[[{"header":{"parameterUnit":"m.s-1","parameterCategory":1,"la1":30.6,"la2":28.766,"lo1":-90.7593,"lo2":-88.6598,"dy":0.0162,"dx":0.0183,"nx":116,"ny":114,"refTime":"2024-04-30T06:00:00:Z","depth":0,"parameterNumber":2,"parameterNumberName":"U-component_of_WINDS"},"data":[0.0,0.0,0.0,0.0,0.0,0.0,0.0,0.0,0.0,0.0,0.0,0.0,0.0,0.0,0.0,0.0,0.0,0.0,0.0,0.0,0.0,0.0,0.0,0.0,0.0,0.0,0.0,0.0,0.0,0.0,0.0,0.0,0.0,0.0,0.0,0.0,0.0,0.0,0.0,0.0,0.0,0.0,0.0,0.0,0.0,0.0,0.0,0.0,0.0,0.0,0.0,0.0,0.0,0.0,0.0,0.0,0.0,0.0,0.0,0.0,0.0,0.0,0.0,0.0,0.0,0.0,0.0,0.0,0.0,0.0,0.0,0.0,0.0,0.0,0.0,0.0,0.0,0.0,0.0,0.0,0.0,0.0,0.0,0.0,0.0,0.0,0.0,0.0,0.0,0.0,0.0,0.0,0.0,0.0,0.0,0.0,0.0,0.0,0.0,0.0,0.0,0.0,0.0,0.0,0.0,0.0,0.0,0.0,0.0,0.0,0.0,0.0,0.0,0.0,0.0,0.0,0.0,0.0,0.0,0.0,0.0,0.0,0.0,0.0,0.0,0.0,0.0,0.0,0.0,0.0,0.0,0.0,0.0,0.0,0.0,0.0,0.0,0.0,0.0,0.0,0.0,0.0,0.0,0.0,0.0,0.0,0.0,0.0,0.0,0.0,0.0,0.0,0.0,0.0,0.0,0.0,0.0,0.0,0.0,0.0,0.0,0.0,0.0,0.0,0.0,0.0,0.0,0.0,0.0,0.0,0.0,0.0,0.0,0.0,0.0,0.0,0.0,0.0,0.0,0.0,0.0,0.0,0.0,0.0,0.0,0.0,0.0,0.0,0.0,0.0,0.0,0.0,0.0,0.0,0.0,0.0,0.0,0.0,0.0,0.0,0.0,0.0,0.0,0.0,0.0,0.0,0.0,0.0,0.0,0.0,0.0,0.0,0.0,0.0,0.0,0.0,0.0,0.0,0.0,0.0,0.0,0.0,0.0,0.0,0.0,0.0,0.0,0.0,0.0,0.0,0.0,0.0,0.0,0.0,0.0,0.0,0.0,0.0,0.0,0.0,0.0,0.0,0.0,0.0,0.0,0.0,0.0,0.0,0.0,0.0,0.0,0.0,0.0,0.0,0.0,0.0,0.0,0.0,0.0,0.0,0.0,0.0,0.0,0.0,0.0,0.0,0.0,0.0,0.0,0.0,0.0,0.0,0.0,0.0,0.0,0.0,0.0,0.0,0.0,0.0,0.0,0.0,0.0,0.0,0.0,0.0,0.0,0.0,0.0,0.0,0.0,0.0,0.0,0.0,0.0,0.0,0.0,0.0,0.0,0.0,0.0,0.0,0.0,0.0,0.0,0.0,0.0,0.0,0.0,0.0,0.0,0.0,0.0,0.0,0.0,0.0,0.0,0.0,0.0,0.0,0.0,0.0,0.0,0.0,0.0,0.0,0.0,0.0,0.0,0.0,0.0,0.0,0.0,0.0,0.0,0.0,0.0,0.0,0.0,0.0,0.0,0.0,0.0,0.0,0.0,0.0,0.0,0.0,0.0,0.0,0.0,0.0,0.0,0.0,0.0,0.0,0.0,0.0,0.0,0.0,0.0,0.0,0.0,0.0,0.0,0.0,0.0,0.0,0.0,0.0,0.0,0.0,0.0,0.0,0.0,0.0,0.0,0.0,0.0,0.0,0.0,0.0,0.0,0.0,0.0,0.0,0.0,0.0,0.0,0.0,0.0,0.0,0.0,0.0,0.0,0.0,0.0,0.0,0.0,0.0,0.0,0.0,0.0,0.0,0.0,0.0,0.0,0.0,0.0,0.0,0.0,0.0,0.0,0.0,0.0,0.0,0.0,0.0,0.0,0.0,0.0,0.0,0.0,0.0,0.0,0.0,0.0,0.0,0.0,0.0,0.0,0.0,0.0,0.0,0.0,0.0,0.0,0.0,0.0,0.0,0.0,0.0,0.0,0.0,0.0,0.0,0.0,0.0,0.0,0.0,0.0,0.0,0.0,0.0,0.0,0.0,0.0,0.0,0.0,0.0,0.0,0.0,0.0,0.0,0.0,0.0,0.0,0.0,0.0,0.0,0.0,0.0,0.0,0.0,0.0,0.0,0.0,0.0,0.0,0.0,0.0,0.0,0.0,0.0,0.0,0.0,0.0,0.0,0.0,0.0,0.0,0.0,0.0,0.0,0.0,0.0,0.0,0.0,0.0,0.0,0.0,0.0,0.0,0.0,0.0,0.0,0.0,0.0,0.0,0.0,0.0,0.0,0.0,0.0,0.0,0.0,0.0,0.0,0.0,0.0,0.0,0.0,0.0,0.0,0.0,0.0,0.0,0.0,0.0,0.0,0.0,0.0,0.0,0.0,0.0,0.0,0.0,0.0,0.0,0.0,0.0,0.0,0.0,0.0,0.0,0.0,0.0,0.0,0.0,0.0,0.0,0.0,0.0,0.0,0.0,0.0,0.0,0.0,0.0,0.0,0.0,0.0,0.0,0.0,0.0,0.0,0.0,0.0,0.0,0.0,0.0,0.0,0.0,0.0,0.0,0.0,0.0,0.0,0.0,0.0,0.0,0.0,0.0,0.0,0.0,0.0,0.0,0.0,0.0,0.0,0.0,0.0,0.0,0.0,0.0,0.0,0.0,0.0,0.0,0.0,0.0,0.0,0.0,0.0,0.0,0.0,0.0,0.0,0.0,0.0,0.0,0.0,0.0,0.0,0.0,0.0,0.0,0.0,0.0,0.0,0.0,0.0,0.0,0.0,0.0,0.0,0.0,0.0,0.0,0.0,0.0,0.0,0.0,0.0,0.0,0.0,0.0,0.0,0.0,0.0,0.0,0.0,0.0,0.0,0.0,0.0,0.0,0.0,0.0,0.0,0.0,0.0,0.0,0.0,0.0,0.0,0.0,0.0,0.0,0.0,0.0,0.0,0.0,0.0,0.0,0.0,0.0,0.0,0.0,0.0,0.0,0.0,0.0,0.0,0.0,0.0,0.0,0.0,0.0,0.0,0.0,0.0,0.0,0.0,0.0,0.0,0.0,0.0,0.0,0.0,0.0,0.0,0.0,0.0,0.0,0.0,0.0,0.0,0.0,0.0,0.0,0.0,0.0,0.0,0.0,0.0,0.0,0.0,0.0,0.0,0.0,0.0,0.0,0.0,0.0,0.0,0.0,0.0,0.0,0.0,0.0,0.0,0.0,0.0,0.0,0.0,0.0,0.0,0.0,0.0,0.0,0.0,0.0,0.0,0.0,0.0,0.0,0.0,0.0,0.0,0.0,0.0,0.0,0.0,0.0,0.0,0.0,0.0,0.0,0.0,0.0,0.0,0.0,0.0,0.0,0.0,0.0,0.0,0.0,0.0,0.0,0.0,0.0,0.0,0.0,0.0,0.0,0.0,0.0,0.0,0.0,0.0,0.0,0.0,0.0,0.0,0.0,0.0,0.0,0.0,0.0,0.0,0.0,0.0,0.0,0.0,0.0,0.0,0.0,0.0,0.0,0.0,0.0,0.0,0.0,0.0,0.0,0.0,0.0,0.0,0.0,0.0,0.0,0.0,0.0,0.0,0.0,0.0,0.0,0.0,0.0,0.0,0.0,0.0,0.0,0.0,0.0,0.0,0.0,0.0,0.0,0.0,0.0,0.0,0.0,0.0,0.0,0.0,0.0,0.0,0.0,0.0,0.0,0.0,0.0,0.0,0.0,0.0,0.0,0.0,0.0,0.0,0.0,0.0,0.0,0.0,0.0,0.0,0.0,0.0,0.0,0.0,0.0,0.0,0.0,0.0,0.0,0.0,0.0,0.0,0.0,0.0,0.0,0.0,0.0,0.0,0.0,0.0,0.0,0.0,0.0,0.0,0.0,0.0,0.0,0.0,0.0,0.0,0.0,0.0,0.0,0.0,0.0,0.0,0.0,0.0,0.0,0.0,0.0,0.0,0.0,0.0,0.0,0.0,0.0,0.0,0.0,0.0,0.0,0.0,0.0,0.0,0.0,0.0,0.0,0.0,0.0,0.0,0.0,0.0,0.0,0.0,0.0,0.0,0.0,0.0,0.0,0.0,0.0,0.0,0.0,0.0,0.0,0.0,0.0,0.0,0.0,0.0,0.0,0.0,0.0,0.0,0.0,0.0,0.0,0.0,0.0,0.0,0.0,0.0,0.0,0.0,0.0,0.0,0.0,0.0,0.0,0.0,0.0,0.0,0.0,0.0,0.0,0.0,0.0,0.0,0.0,0.0,0.0,0.0,0.0,0.0,0.0,0.0,0.0,0.0,0.0,0.0,0.0,0.0,0.0,0.0,0.0,0.0,0.0,0.0,0.0,0.0,0.0,0.0,0.0,0.0,0.0,0.0,0.0,0.0,0.0,0.0,0.0,0.0,0.0,0.0,0.0,0.0,0.0,0.0,0.0,0.0,0.0,0.0,0.0,0.0,0.0,0.0,0.0,0.0,0.0,0.0,0.0,0.0,0.0,0.0,0.0,0.0,0.0,0.0,0.0,0.0,0.0,0.0,0.0,0.0,0.0,0.0,0.0,0.0,0.0,0.0,0.0,0.0,0.0,0.0,0.0,0.0,0.0,0.0,0.0,0.0,0.0,0.0,0.0,0.0,0.0,0.0,0.0,0.0,0.0,0.0,0.0,0.0,0.0,0.0,0.0,0.0,0.0,0.0,0.0,0.0,0.0,0.0,0.0,0.0,0.0,0.0,0.0,0.0,0.0,0.0,0.0,0.0,0.0,0.0,0.0,0.0,0.0,0.0,0.0,0.0,0.0,0.0,0.0,0.0,0.0,0.0,0.0,0.0,0.0,0.0,0.0,0.0,0.0,0.0,0.0,0.0,0.0,0.0,0.0,0.0,0.0,0.0,0.0,0.0,0.0,0.0,0.0,0.0,0.0,0.0,0.0,0.0,0.0,0.0,0.0,0.0,0.0,0.0,0.0,0.0,0.0,0.0,0.0,0.0,0.0,0.0,0.0,0.0,0.0,0.0,0.0,0.0,0.0,0.0,0.0,0.0,0.0,0.0,0.0,0.0,0.0,0.0,0.0,0.0,0.0,0.0,0.0,0.0,0.0,0.0,0.0,0.0,0.0,0.0,0.0,0.0,0.0,0.0,0.0,0.0,0.0,0.0,0.0,0.0,0.0,0.0,0.0,0.0,0.0,0.0,0.0,0.0,0.0,0.0,0.0,0.0,0.0,0.0,0.0,0.0,0.0,0.0,0.0,0.0,0.0,0.0,0.0,0.0,0.0,0.0,0.0,0.0,0.0,0.0,0.0,0.0,0.0,0.0,0.0,0.0,0.0,0.0,0.0,0.0,0.0,0.0,0.0,0.0,0.0,0.0,0.0,0.0,0.0,0.0,0.0,0.0,0.0,0.0,0.0,0.0,0.0,0.0,0.0,0.0,0.0,0.0,0.0,0.0,0.0,0.0,0.0,0.0,0.0,0.0,0.0,0.0,0.0,0.0,0.0,0.0,0.0,0.0,0.0,0.0,0.0,0.0,0.0,0.0,0.0,0.0,0.0,0.0,0.0,0.0,0.0,0.0,0.0,0.0,0.0,0.0,0.0,0.0,0.0,0.0,0.0,0.0,0.0,0.0,0.0,0.0,0.0,0.0,0.0,0.0,0.0,0.0,0.0,0.0,0.0,0.0,0.0,0.0,0.0,0.0,0.0,0.0,0.0,0.0,0.0,0.0,0.0,0.0,0.0,0.0,0.0,0.0,0.0,0.0,0.0,0.0,0.0,0.0,0.0,0.0,0.0,0.0,0.0,0.0,0.0,0.0,0.0,0.0,0.0,0.0,0.0,0.0,0.0,0.0,0.0,0.0,0.0,0.0,0.0,0.0,0.0,0.0,0.0,0.0,0.0,0.0,0.0,0.0,0.0,0.0,0.0,0.0,0.0,0.0,0.0,0.0,0.0,0.0,0.0,0.0,0.0,0.0,0.0,0.0,0.0,0.0,0.0,0.0,0.0,0.0,0.0,0.0,0.0,0.0,0.0,0.0,0.0,0.0,0.0,0.0,0.0,0.0,0.0,0.0,0.0,0.0,0.0,0.0,0.0,0.0,0.0,0.0,0.0,0.0,0.0,0.0,0.0,0.0,1.455,1.2808,0.0,0.0,0.0,0.0,0.0,0.0,0.0,0.0,0.0,0.0,0.0,0.0,0.0,0.0,0.0,0.0,0.0,0.0,0.0,0.0,0.0,0.0,0.0,1.0208,1.0213,1.0256,1.0815,1.2031,1.4062,1.4941,1.5385,1.5357,1.531,1.5265,1.5195,1.6042,1.6465,1.6407,1.6407,1.6907,1.7888,1.9643,2.0516,2.0605,0.0,0.0,0.0,0.0,0.0,0.0,0.0,0.0,0.0,0.0,0.0,0.0,0.0,0.0,0.0,0.0,0.0,0.0,0.0,0.0,0.0,0.0,0.0,0.0,0.0,0.0,0.0,0.0,0.0,0.0,0.0,0.0,0.0,0.0,0.0,0.0,0.0,0.0,0.0,0.0,0.0,0.0,0.0,0.0,0.0,0.0,0.0,0.0,0.0,0.0,0.0,0.0,0.0,0.0,0.0,0.0,0.0,0.0,0.0,0.0,0.0,0.0,0.0,0.0,0.0,0.0,0.0,0.0,0.0,0.0,0.9188,0.806,0.0,0.0,0.0,0.0,0.0,0.0,0.0,0.0,0.0,0.0,0.0,0.0,0.0,0.0,0.0,0.0,0.0,0.0,0.0,0.0,0.0,1.0128,1.0174,1.0196,1.0209,1.019,1.0234,1.0896,1.2344,1.4275,1.5348,1.5284,1.5338,1.5596,1.608,1.5516,1.5888,1.7253,1.785,1.758,1.6599,1.9715,2.1274,2.1429,2.1248,0.0,0.0,0.0,0.0,0.0,0.0,0.0,0.0,0.0,0.0,0.0,0.0,0.0,0.0,0.0,0.0,0.0,0.0,0.0,0.0,0.0,0.0,0.0,0.0,0.0,0.0,0.0,0.0,0.0,0.0,0.0,0.0,0.0,0.0,0.0,0.0,0.0,0.0,0.0,0.0,0.0,0.0,0.0,0.0,0.0,0.0,0.0,0.0,0.0,0.0,0.0,0.0,0.0,0.0,0.0,0.0,0.0,0.0,0.0,0.0,0.0,0.0,0.0,0.9111,0.7442,0.7662,0.845,0.7498,0.5354,0.6707,0.6235,0.4519,0.4519,0.0,0.0,0.0,0.0,0.0,0.0,0.0,0.0,0.0,0.0,0.0,0.0,0.0,0.0,0.0,0.0,0.0,0.0,0.0,1.0179,1.0113,1.0166,1.0182,1.0117,1.0121,1.0271,1.0625,1.3513,1.5215,1.5214,1.521,1.6617,1.9561,1.6708,1.5305,1.5541,1.8504,2.06,2.1831,2.3755,2.4678,2.4734,2.3854,2.3594,2.3711,0.0,0.0,0.0,0.0,0.0,0.0,0.0,0.0,0.0,0.0,0.0,0.0,0.0,0.0,0.0,0.0,0.0,0.0,0.0,0.0,0.0,0.0,0.0,0.0,0.0,0.0,0.0,0.0,0.0,0.0,0.0,0.0,0.0,0.0,0.0,0.0,0.0,0.0,0.0,0.0,0.0,2.0172,2.3897,0.0,0.0,0.0,0.0,0.0,0.0,0.0,0.0,0.0,0.0,0.0,0.0,0.0,1.4472,1.4055,1.3575,1.32,1.2871,0.9946,0.9105,1.0127,0.9198,0.8586,0.8256,0.8475,0.0,0.4519,0.4519,0.0,0.0,0.0,0.0,0.0,0.0,0.0,0.0,0.0,0.0,0.0,0.0,0.0,0.0,0.0,0.0,0.0,0.0,0.0,0.0,0.0,1.0133,1.0133,1.0094,1.1863,1.2172,1.0317,1.3334,1.5189,1.5189,1.5189,1.5901,1.74,1.5958,1.5824,1.7112,2.0196,2.2235,2.3274,2.4649,2.6004,2.7234,2.6556,2.5527,2.4199,2.2734,0.0,0.0,0.0,0.0,0.0,0.0,0.0,0.0,0.0,0.0,0.0,0.0,0.0,0.0,0.0,0.0,0.0,0.0,0.0,0.0,0.0,0.0,0.0,0.0,0.0,0.0,0.0,0.0,0.0,0.0,0.0,0.0,0.0,0.0,0.0,0.0,0.0,0.0,0.0,1.7321,1.71,2.023,2.0601,2.1545,0.0,0.0,0.0,0.0,0.0,0.0,0.0,0.0,0.0,1.9747,1.7863,1.6878,1.6911,1.6799,1.5935,1.4307,1.3057,1.2777,1.3184,1.0207,0.8804,0.8804,0.8804,0.8096,0.6794,0.5171,0.4519,0.4519,0.0,0.0,0.0,0.0,1.0363,1.0522,0.0,0.0,0.0,0.0,0.0,0.0,0.0,0.0,0.0,0.0,0.0,0.0,1.0094,1.0883,1.2094,1.3843,1.5535,1.5785,1.4093,1.4747,1.5189,1.5189,1.5189,1.5189,1.5189,1.6055,1.7766,2.0304,2.1543,2.2793,2.4053,2.537,2.6871,2.8486,2.8324,2.714,2.5166,2.3769,2.3164,2.3027,0.0,0.0,0.0,0.0,0.0,0.0,0.0,0.0,0.0,0.0,0.0,0.0,0.0,0.0,0.0,0.0,0.0,0.0,0.0,0.0,0.0,0.0,0.0,0.0,0.0,0.0,0.0,0.0,0.0,0.0,0.0,0.0,0.0,0.0,0.0,0.0,0.0,1.6977,1.7602,1.9224,1.9138,2.0321,0.0,0.0,0.0,0.0,0.0,0.0,1.969,2.0318,2.0991,2.168,2.171,2.1729,2.1781,2.1794,2.0701,1.8487,1.7197,1.6518,1.6398,1.3094,1.1599,1.1599,1.1599,1.1166,1.023,0.6926,0.5605,0.555,0.4791,0.4519,0.4236,0.1953,0.3234,0.6059,0.0,0.0,0.0,0.0,0.0,0.0,0.0,0.0,0.0,0.0,0.0,1.0094,1.0094,1.2997,1.7535,2.3976,2.1784,2.1323,2.4341,1.8669,1.5189,1.5189,1.5189,1.5189,1.5189,1.8388,2.165,2.4957,2.1927,2.2073,2.5245,2.6967,2.7832,2.7948,2.845,2.8356,2.7717,2.6179,2.5488,2.5293,2.3711,0.0,0.0,0.0,0.0,0.0,0.0,0.0,0.0,0.0,0.0,0.0,0.0,0.0,0.0,0.0,0.0,0.0,0.0,0.0,0.0,0.0,0.0,0.0,0.0,0.0,0.0,0.0,0.0,0.0,0.0,0.0,0.0,0.0,0.0,0.0,0.0,0.0,0.0,2.3857,2.2814,0.0,0.0,0.0,0.0,2.0039,1.9767,1.969,1.969,2.2039,2.4567,2.7145,2.722,2.7181,2.7199,2.7199,2.7134,2.6923,2.1927,1.9579,1.9579,1.9339,1.9226,1.9226,1.9226,1.7659,1.4735,1.0376,0.8593,0.8315,0.555,0.4519,0.4463,0.4349,0.6808,1.0273,0.0,0.0,0.0,1.007,1.0113,1.0157,1.0245,1.0226,1.0192,1.0205,1.0133,1.054,1.1661,1.1868,1.5535,2.4514,2.4207,2.2169,1.9016,1.6535,1.5189,1.5189,1.5189,1.7247,2.1592,2.288,2.4457,2.6379,2.4457,2.488,2.7495,2.7775,2.8871,3.0621,3.0814,3.0386,2.9371,2.6706,2.5576,2.5414,2.3376,2.1777,0.0,0.0,0.0,0.0,0.0,0.0,0.0,0.0,0.0,0.0,0.0,0.0,0.0,0.0,0.0,0.0,0.0,0.0,0.0,0.0,0.0,0.0,0.0,0.0,0.0,0.0,0.0,0.0,0.0,0.0,0.0,0.0,0.0,0.0,0.0,0.0,0.0,2.567,2.3727,0.0,2.2917,2.2579,2.2277,2.2229,2.2203,2.2951,2.4717,2.7116,2.8943,2.9886,2.9935,2.9148,2.7625,2.7625,2.84,2.9876,2.6437,2.4832,2.4775,2.3055,2.2271,2.2271,2.2271,2.1661,2.0536,1.8956,1.5028,0.9874,0.883,0.8397,0.8397,0.8397,0.9377,1.0624,0.0,0.9764,0.0,1.007,1.0094,1.0157,1.0272,1.0234,1.0211,1.0234,1.0157,1.054,1.1699,1.3868,1.7939,2.4707,2.3207,2.0227,1.6292,1.6599,1.6401,1.5247,1.6305,1.9016,2.3515,2.4726,2.5668,2.6418,2.6822,2.7187,2.7572,2.8371,3.0352,3.3244,3.3244,3.284,3.1898,2.8582,2.6504,2.5363,2.3906,2.2182,2.0516,0.0,0.0,0.0,0.0,0.0,0.0,0.0,0.0,0.0,0.0,0.0,0.0,0.0,0.0,0.0,0.0,0.0,0.0,0.0,0.0,0.0,0.0,0.0,0.0,0.0,0.0,0.0,0.0,0.0,0.0,0.0,0.0,0.0,0.0,0.0,2.5411,2.8697,2.8346,2.7185,2.5469,2.5304,2.5542,2.6119,2.7072,2.8002,2.8794,3.0335,3.1449,3.2039,3.1524,3.0418,2.8841,2.8795,2.9613,3.119,2.9569,2.8795,2.8701,2.5911,2.4251,2.3595,2.3595,2.3595,2.367,2.4567,2.1557,1.6157,1.4414,1.3462,1.2959,1.1668,1.0895,1.0428,0.0,0.9922,1.0094,1.0094,1.0094,1.0157,1.0272,1.0246,1.0224,1.0291,1.0273,1.0286,1.0325,1.9285,2.5303,2.5303,1.9304,1.6118,1.7523,1.9196,1.8657,1.5343,1.8484,2.035,2.0446,2.363,2.5322,2.538,2.8629,2.8591,2.5534,2.8841,3.2167,3.5339,3.5339,3.5397,3.5282,3.1955,2.8591,2.5495,2.5524,2.3505,2.0484,0.0,0.0,0.0,0.0,0.0,0.0,0.0,0.0,0.0,0.0,0.0,0.0,0.0,0.0,0.0,0.0,0.0,0.0,0.0,0.0,0.0,0.0,0.0,0.0,0.0,0.0,0.0,0.0,0.0,0.0,0.0,0.0,0.0,1.9713,2.2373,2.6851,3.3201,3.6703,3.6687,3.1815,3.1326,3.1326,3.1326,3.3998,3.437,3.1478,3.132,3.2091,3.3881,3.2231,3.1291,3.1334,3.1291,3.1291,3.1291,3.1291,3.1291,3.1189,2.8252,2.5807,2.3844,2.3844,2.3844,2.404,2.6546,2.761,2.7175,2.2041,1.9379,1.7978,1.4292,1.2019,1.034,0.9698,0.9922,1.0094,1.0094,1.0094,1.0157,1.0272,1.0289,1.023,1.018,1.2284,1.4253,1.5484,2.1408,2.5303,2.5303,2.3592,2.0631,1.6176,1.6349,1.617,1.5247,1.8484,2.1438,2.3861,2.4822,2.5928,2.7198,2.6871,2.7495,2.9014,2.9956,3.0898,3.1802,3.1802,3.3167,3.5435,3.4493,3.2487,2.9737,2.7486,2.5514,2.4072,0.0,0.0,0.0,0.0,0.0,0.0,0.0,0.0,0.0,0.0,0.0,0.0,0.0,0.0,0.0,0.0,0.0,0.0,0.0,0.0,0.0,0.0,0.0,0.0,0.0,0.0,0.0,0.0,0.0,0.0,0.0,2.171,2.2436,2.2792,2.764,3.2706,3.6853,3.6826,3.5904,3.4515,3.4404,3.4404,3.4404,3.5165,3.5267,3.4438,3.3547,3.4401,3.7246,3.4576,3.3488,3.431,3.3488,3.3087,3.3087,3.3087,3.3087,3.3051,3.2245,3.0845,2.9131,2.9131,2.9131,2.9018,2.8044,2.8607,2.988,2.6714,2.6327,2.7423,2.6408,2.1763,1.5002,0.9698,0.9922,1.0094,1.0094,1.0094,1.0157,1.0272,1.0293,1.0245,1.0121,1.4324,1.8234,2.0619,2.3543,2.5303,2.5303,2.4015,2.1534,1.7593,1.5997,1.6458,1.9304,2.1323,2.3303,2.5264,2.6687,2.7928,2.8948,2.864,2.914,3.0417,3.1859,3.2532,3.2532,3.2532,3.3628,3.5488,3.5122,3.4043,3.2387,3.019,2.8479,2.7294,2.7822,2.6651,2.4943,2.6632,2.4922,2.2229,2.4707,0.0,0.0,0.0,0.0,0.0,0.0,0.0,0.0,0.0,0.0,0.0,0.0,0.0,0.0,0.0,0.0,0.0,0.0,0.0,0.0,0.0,0.0,0.0,0.0,2.4258,2.7361,2.8118,3.2632,3.656,3.8469,3.7614,3.6545,3.5694,3.5622,3.5622,3.5622,3.5622,3.5622,3.5622,3.5756,3.6725,3.8652,3.7349,3.6012,3.4794,3.4141,3.4037,3.451,3.451,3.4585,3.469,3.4069,3.2854,3.119,3.119,3.0642,2.9657,2.9284,2.9919,3.0958,0.0,0.0,0.0,0.0,2.0049,1.4988,0.9698,0.9922,1.0094,1.0094,1.0094,1.0132,1.0267,1.0271,1.0232,1.0132,1.5727,2.115,2.488,2.4957,2.488,2.5264,2.2573,2.0542,1.9773,1.7166,1.8547,2.5014,2.5303,2.5303,2.5303,2.8648,3.0398,3.0398,3.2083,3.2237,3.1032,3.3686,3.5128,3.5493,3.5493,3.5493,3.5455,3.462,3.4121,3.3849,3.302,3.1604,2.9907,2.8888,2.8112,2.7734,2.9214,2.6113,2.1742,2.4771,0.0,0.0,0.0,0.0,0.0,0.0,0.0,0.0,0.0,0.0,0.0,0.0,0.0,0.0,0.0,0.0,0.0,0.0,0.0,0.0,0.0,0.0,0.0,0.0,2.882,3.3578,3.3762,3.6633,3.8707,3.8707,3.8707,3.7982,3.6122,3.5739,3.5622,3.5622,3.581,3.5968,3.5968,3.7703,0.0,0.0,0.0,3.8518,3.4403,3.4489,3.5077,3.6065,3.6065,3.6212,3.647,3.5021,3.3517,3.2038,3.2038,3.0705,2.8667,3.0813,3.1698,3.1429,2.8684,2.7393,2.5948,1.6428,1.2659,1.2224,0.9698,0.9922,1.0094,1.0094,1.0094,1.011,1.0125,1.0132,1.0163,1.0252,1.3725,1.8516,2.463,2.288,2.2361,2.5053,2.4707,2.2015,1.6535,1.7643,2.0546,2.5101,2.5303,2.5303,2.5303,2.8648,3.0398,3.0398,3.2083,3.3449,3.4455,3.2359,3.2859,3.5493,3.5493,3.5493,3.546,3.4863,3.4642,3.464,3.4081,3.2591,3.0677,3.047,3.0321,3.0294,3.0611,2.926,2.7471,2.8441,2.7227,2.5245,2.4918,2.4591,0.0,0.0,0.0,0.0,0.0,0.0,0.0,0.0,0.0,0.0,0.0,0.0,0.0,0.0,0.0,0.0,0.0,0.0,0.0,2.552,2.9126,3.2196,3.3606,3.6633,3.8707,3.8707,3.8707,3.8546,3.8135,3.6586,3.5622,3.5622,3.7155,3.8083,3.8083,3.8465,3.8707,3.8707,3.9863,3.9621,3.7753,3.8707,3.9306,3.9527,3.9527,0.0,3.958,3.834,3.7582,3.7243,3.7243,3.605,3.411,3.4566,3.4759,3.4269,2.9463,2.6119,2.3382,1.8665,1.4942,1.1848,0.9698,0.9811,0.9949,1.0078,1.0094,1.0094,1.0094,1.0094,1.0112,1.0187,1.1692,1.4697,1.9781,1.8792,1.842,2.0092,2.1803,2.1361,1.7958,2.061,2.3198,2.5197,2.5303,2.5303,2.5303,2.9467,3.166,3.166,3.2929,3.393,3.4609,3.3474,3.3724,3.5105,3.5383,3.5354,3.5164,3.6065,3.6058,3.5463,3.545,3.4543,3.312,3.2585,3.2906,3.3549,3.2699,3.1974,3.1287,3.0551,2.9983,2.9229,2.7333,2.5829,2.436,0.0,0.0,0.0,0.0,0.0,0.0,0.0,0.0,0.0,0.0,0.0,0.0,0.0,0.0,2.231,2.231,0.0,2.5473,2.8467,3.1461,3.409,3.5976,3.6248,3.6853,3.8505,3.8707,3.8707,3.8707,3.7773,3.6729,3.5694,3.7542,3.8707,3.8707,3.8707,3.8707,3.8707,3.9275,3.9599,3.9599,4.0193,4.063,4.0859,4.0617,4.0489,4.0489,3.9884,3.9599,3.9576,3.897,3.7506,3.5694,3.6729,3.7155,3.6788,3.3061,2.9032,2.4878,2.0795,1.6362,1.1694,0.9698,0.9698,0.9784,1.0057,1.0094,1.0094,1.0094,1.0094,1.0094,1.0094,1.0226,1.1349,1.4106,1.4291,1.4209,1.4209,1.735,1.96,2.0254,2.3438,2.5303,2.5303,2.5937,2.6283,2.6283,3.0215,3.2593,3.3245,3.3643,3.3758,3.3714,3.4846,3.5138,3.4714,3.5034,3.4925,3.468,3.688,3.7333,3.6547,3.6593,3.6167,3.5385,3.4412,3.478,3.5679,3.4651,3.4082,3.3584,3.2066,3.2138,3.2458,3.0057,2.7606,2.5371,2.4276,2.31,0.0,0.0,0.0,0.0,0.0,0.0,0.0,0.0,2.5343,2.6031,2.3646,2.3156,2.3342,2.3934,2.5964,2.8677,3.211,3.4645,3.6768,3.8465,3.6413,3.5734,3.8395,3.8707,3.8707,3.8707,3.8707,3.8016,3.6316,3.8567,3.9655,3.8744,3.8707,3.8822,3.9036,3.9036,3.9505,4.0489,4.059,4.0843,4.1191,4.0828,4.06,4.0489,4.0489,4.037,4.0101,3.9127,3.7738,3.6357,3.8016,3.8707,3.8546,3.6865,3.2998,2.7837,2.3398,1.7912,1.2031,0.9698,0.9698,0.9784,1.0057,1.0094,1.0094,1.0094,1.0094,1.0094,1.0094,1.0226,1.0458,1.0834,1.0791,1.0733,1.0671,1.3805,1.7054,2.01,2.3438,2.5303,2.5303,2.8206,2.9821,2.9821,2.9973,3.1521,3.449,3.3109,3.271,3.3287,3.4445,3.487,3.4674,3.4189,3.3954,3.4031,3.579,3.7256,3.8272,3.6893,3.6001,3.544,3.5037,3.4541,3.4247,3.555,3.5055,3.377,3.3566,3.1721,2.9953,3.2397,3.1992,3.0031,2.7101,2.5263,2.4204,2.431,2.4036,2.3914,2.4737,2.5236,2.5637,0.0,0.0,2.6607,2.6268,2.6201,2.7029,2.9702,3.0463,3.2288,3.7084,3.8132,3.8433,3.8676,3.8377,3.8303,3.867,3.8707,3.8707,3.8707,3.8707,3.8596,3.835,4.2351,4.3038,3.8927,3.8707,3.9189,4.0266,4.0283,4.0353,4.0489,4.0909,4.1149,4.1191,4.1139,4.0889,4.0489,4.0489,3.9905,3.8873,3.875,3.8564,3.835,3.8596,3.8707,3.8676,3.8433,3.5394,3.0616,2.7128,2.0783,1.3201,0.9698,0.9698,0.9784,1.0057,1.0094,1.0094,1.0094,1.0094,1.0094,1.0094,1.0187,1.0252,1.0308,1.0199,1.0133,1.0094,1.3228,1.6651,2.0081,2.3438,2.6187,2.8168,2.9629,3.0398,3.0398,2.9946,3.0715,3.2794,3.2857,3.3299,3.4093,3.4547,3.4636,3.4401,3.4232,3.44,3.4871,3.6193,3.7514,3.8597,3.7459,3.6762,3.6211,3.4156,3.355,3.388,3.4596,3.4394,0.0,3.0558,2.9347,2.9214,3.0595,3.054,2.9365,2.6153,2.4781,2.4339,2.4357,2.4739,2.5212,2.5535,2.641,2.7274,2.7583,2.8336,2.8592,2.7029,2.8095,3.0226,3.322,3.4763,3.6245,0.0,3.8707,3.8707,3.8707,3.8707,3.8707,3.8707,3.8707,3.8707,3.8707,4.0396,4.1479,4.1479,4.154,4.1548,4.1493,4.2273,4.2959,4.3451,4.1527,4.0623,4.0903,4.1101,4.1208,4.1198,4.0932,4.1736,4.347,4.347,4.1705,3.8799,4.0671,4.1479,4.1479,4.1479,4.0396,3.8891,4.0763,3.8377,3.3247,2.8305,2.2805,1.6871,0.9698,0.9768,0.9875,1.007,1.0094,1.0094,1.0094,1.0094,1.0113,1.0156,1.0161,1.0208,1.0293,1.0217,1.0133,1.0094,1.3228,1.6247,1.8734,2.2715,2.6185,2.8879,2.9898,3.0398,3.0398,3.0071,3.0226,3.0946,3.2156,3.3144,3.3893,3.4118,3.4061,3.3759,3.4096,3.471,3.5569,3.6633,3.7442,3.799,3.7649,3.6758,3.5444,3.3175,3.2008,3.1549,3.1256,3.0577,2.9274,2.5768,2.5768,2.7346,2.7934,2.8081,2.7603,2.5474,2.4557,2.43,2.474,2.5594,2.6447,2.6855,2.812,2.9301,2.9495,3.0344,3.0693,2.9248,3.0145,3.2287,3.5803,3.7703,3.8707,3.8707,3.9441,4.0029,4.0029,3.9258,3.8707,3.8707,3.79,3.7837,3.9088,4.0997,4.2525,4.3424,4.1332,4.1206,4.3946,4.5036,4.5665,4.5783,4.3404,4.2257,4.2598,4.2617,4.2602,4.2598,4.214,4.3201,4.5586,4.5203,4.3189,4.0157,4.2488,4.3497,4.3497,4.3497,4.1757,3.9301,4.1661,4.0203,3.6122,3.0922,2.5421,1.9464,0.0,0.9916,1.0086,1.0094,1.0094,1.0094,1.0094,1.0094,1.0156,1.0275,1.0179,1.0153,1.0292,1.0295,1.0233,1.0113,1.3228,1.5247,1.5343,2.0924,2.4613,2.5417,2.8629,3.0398,3.0398,3.0398,3.0161,2.9754,3.0695,3.1416,3.1908,3.2705,3.2913,3.2669,3.3485,3.4458,3.5569,3.6633,3.6783,3.6348,3.7168,3.5349,3.2195,3.2482,2.9861,2.5915,2.485,2.2428,1.9727,1.9565,2.0978,2.3162,2.5236,2.5713,2.5642,2.6337,2.5419,2.4538,2.6098,2.6891,2.7628,2.921,3.0553,3.168,3.2414,3.2329,3.2616,3.4322,3.2795,3.2738,3.7685,3.8676,3.8707,3.8707,4.1313,4.3332,4.3332,4.0671,3.8707,3.8707,3.5899,3.5669,0.0,3.9496,4.0139,4.3259,4.3406,4.3994,4.5457,4.5586,4.5808,4.6268,4.6171,4.6133,4.6152,4.6152,4.615,4.614,4.568,4.549,4.5549,4.4175,4.3493,4.3351,4.3442,4.3497,4.3497,4.3497,4.2154,4.0085,4.017,4.0104,3.961,3.6415,2.9052,1.9991,0.0,0.0,1.0094,1.0094,1.0094,1.0094,1.0094,1.0094,1.0113,1.0156,1.0129,0.0,0.0,0.0,0.0,0.0,1.1152,1.2786,1.5055,1.8796,2.2029,2.4463,2.5672,2.6521,2.7014,2.9244,3.0311,3.0155,2.9501,2.9907,3.1339,3.1347,3.152,3.1843,3.2651,3.3513,3.4431,3.533,3.574,3.5647,3.4451,3.304,3.1407,2.9493,2.8403,2.7413,0.0,2.088,1.9305,1.9305,2.0262,2.173,2.3199,2.3731,2.3969,2.4777,2.5163,2.5629,2.7024,2.8279,2.9665,3.1531,3.2916,3.3981,3.4729,3.5028,3.54,3.6237,3.6291,3.6017,3.5538,3.5459,3.6156,3.8358,4.1405,4.3497,4.3497,4.0726,3.79,3.5716,3.5143,0.0,0.0,0.0,0.0,4.324,4.3497,4.4117,4.5531,4.5901,4.6132,4.6308,4.6308,4.6308,4.6308,4.629,4.6151,4.5834,4.568,4.5586,4.5549,4.4146,4.3497,4.3497,4.3497,4.3497,4.3391,4.1877,4.2219,4.3513,4.1059,4.007,3.9731,3.6646,2.99,2.1849,0.0,0.0,0.0,1.0094,1.0094,0.0,0.0,0.0,0.0,0.0,0.0,0.0,0.0,0.0,0.0,0.0,0.0,1.1555,1.4978,1.6701,1.9032,2.2299,2.268,2.3604,2.5264,2.7437,2.7995,2.6783,2.6438,2.7182,2.893,2.9214,2.9649,3.0277,3.1397,3.2118,3.2559,3.3183,3.304,3.2311,3.1419,2.9966,2.8214,2.6934,2.6435,0.0,2.2528,2.0318,1.9048,1.9113,1.965,2.0556,2.1877,2.274,2.3449,2.4504,2.491,2.5548,2.7852,2.9953,3.1977,3.4068,3.5431,3.6371,3.684,3.7187,3.7305,3.6964,3.5986,3.4247,3.0962,3.0375,3.1806,3.6229,4.0634,4.3497,4.3497,4.0726,3.834,3.7367,3.5866,3.5344,0.0,0.0,0.0,4.2249,4.3729,4.4819,4.5566,4.604,4.6308,4.6308,4.6308,4.63,4.63,4.6137,4.5911,4.5586,4.5586,4.5323,4.4834,4.3912,4.3497,4.3497,4.3497,4.3497,4.3321,4.1059,4.1966,4.4525,4.1366,4.007,3.9731,3.6646,3.0232,2.2708,0.0,0.0,0.0,0.0,0.0,0.0,0.0,0.0,0.0,0.0,0.0,0.0,0.0,0.0,0.0,0.0,0.0,0.0,1.4978,1.4616,1.5729,1.8963,1.9694,2.1534,2.4707,2.4784,2.3207,2.0042,2.162,2.3208,2.4784,2.6216,2.7208,2.7884,2.9595,3.016,2.9848,3.016,2.8846,2.6691,2.8124,2.6423,2.3161,2.494,2.4078,2.1913,2.1729,2.0354,1.866,1.8843,1.9193,1.9806,2.1438,2.2826,2.4118,2.5524,2.4897,2.4635,2.8639,3.1699,3.432,3.6604,3.7955,3.8707,3.8707,3.8707,3.8267,3.6743,3.2596,2.8227,0.0,0.0,2.619,3.232,3.8615,4.2745,4.2745,4.0561,4.0084,0.0,0.0,0.0,0.0,0.0,0.0,4.0655,4.4176,4.6078,4.5618,4.604,4.6308,4.6308,4.6308,4.6298,4.6294,4.5834,4.5586,4.5586,4.5531,4.4792,4.3497,4.3497,4.3497,4.3497,4.3497,4.3444,4.3178,4.1105,4.1534,4.3267,4.0984,4.002,3.9489,3.612,2.9744,2.2031,0.0,0.0,0.0,0.0,0.0,0.0,0.0,0.0,0.0,0.0,0.0,0.0,0.0,0.0,0.0,0.0,0.0,0.0,1.4978,1.2704,1.2712,1.6111,1.6405,1.6901,1.7766,1.7785,1.7362,1.6497,1.6926,1.851,2.1152,2.2224,2.3059,2.3739,2.6098,2.6245,2.4745,2.5518,2.4854,2.3399,2.4457,2.4498,2.381,2.3372,2.3359,2.3272,2.0829,1.9593,1.9241,2.0074,2.1316,2.2666,2.3635,2.4831,2.5906,2.6257,2.6869,2.7805,2.9396,3.1638,3.4281,3.748,3.8505,3.8707,3.8707,3.8707,3.8579,3.8175,3.5147,3.087,2.5236,2.419,0.0,2.6374,3.0063,0.0,3.2706,3.823,0.0,4.3387,0.0,4.135,4.2176,4.2268,0.0,0.0,4.5216,4.5728,4.5603,4.604,4.6308,4.6308,4.6308,4.6298,4.6294,4.5834,4.5586,4.5586,4.4542,4.3868,4.3497,4.3497,4.3497,4.3497,4.3497,4.2544,4.1059,4.2167,4.2977,4.3267,4.0984,3.8707,3.5809,2.8845,2.2563,1.6893,0.0,0.0,0.0,0.0,0.0,0.0,0.0,0.0,0.0,0.0,0.0,0.0,0.0,0.0,0.0,0.0,0.0,0.0,0.0,1.1998,1.1632,1.5055,1.5189,1.5189,1.5189,1.5189,1.4849,1.4099,1.5349,1.696,1.8935,1.9749,2.0717,2.1802,2.2799,2.279,2.1969,2.1402,2.1053,0.0,0.0,2.158,2.0432,2.0604,2.0184,1.9381,1.8823,1.9453,2.077,2.2317,2.359,2.4854,2.6487,2.696,2.7174,2.8269,2.9532,3.0973,3.2664,3.5101,3.7555,3.9309,3.9588,3.9294,3.8817,3.8707,3.8707,3.8707,3.3844,2.8484,2.4869,2.419,2.5126,0.0,0.0,0.0,3.5367,4.0065,4.3497,0.0,4.3497,0.0,4.3497,4.3497,4.4087,0.0,4.5783,4.5911,4.5911,4.6163,4.6308,4.6308,4.6308,4.6195,4.6005,4.5738,4.5586,4.5586,4.4811,4.4106,4.3497,4.3497,4.3497,4.3444,4.2426,4.221,4.2559,4.3245,4.2885,4.1877,4.0594,3.8246,3.4485,2.6166,1.8561,1.194,0.0,0.0,0.0,0.0,0.0,0.0,0.0,0.0,0.0,0.0,1.0113,1.0094,0.0,0.0,0.0,0.0,0.0,0.0,0.0,0.0,1.2094,1.5074,1.5189,1.5189,1.5189,1.5189,1.4484,1.3027,1.5484,1.6933,1.7459,1.8041,1.9106,2.0446,1.9508,1.951,2.0051,1.7907,1.7732,1.8955,1.9743,1.8465,1.6276,0.0,1.6375,1.3786,1.6745,1.9443,2.1965,2.4306,2.5577,2.6641,2.9332,2.9184,2.8512,3.1039,3.2206,3.3479,3.7113,4.0091,4.1992,4.1534,4.1075,4.0377,3.9019,3.7698,3.678,3.678,3.0063,2.419,2.419,2.419,2.63,3.2742,0.0,4.3002,4.3424,4.3497,4.3497,4.3497,4.3497,4.3563,4.3758,4.3772,4.4308,4.559,4.606,4.6303,4.6308,4.6308,4.6308,4.6308,4.6308,4.6059,4.5603,4.5586,4.5586,4.5586,4.5586,4.4858,4.3497,4.3497,4.3597,4.3656,4.17,4.2523,4.5223,4.3986,4.2167,4.007,3.9679,3.7552,3.3751,2.5214,1.6171,0.7846,0.0,0.0,0.0,0.0,0.0,0.0,0.0,0.0,0.0,0.0,1.0175,1.0094,0.0,0.0,0.0,0.0,0.0,0.0,0.0,0.0,0.0,1.517,1.5189,1.5189,1.5189,1.5189,1.5061,1.4772,1.5272,1.5561,1.5657,1.5773,1.5971,1.6259,1.6052,1.6007,1.6007,1.5516,1.5911,1.6753,1.5938,1.6821,1.86,1.8128,0.0,0.0,1.6745,1.837,1.9618,2.2936,2.5797,2.8368,3.0882,3.1507,3.1756,3.3718,3.2966,3.3092,4.0437,4.2842,4.3185,4.3112,4.3002,4.2194,3.935,3.2485,2.6704,2.6704,2.5364,2.419,2.419,2.419,2.63,3.2742,3.7019,4.0451,4.3112,4.3497,4.3497,0.0,4.3497,4.3974,4.512,4.5244,0.0,0.0,4.6252,4.6309,4.6308,4.6308,4.6308,4.6308,4.6308,4.6059,4.5603,4.5586,4.5586,4.5586,4.5586,4.4858,4.3497,4.3497,4.4117,4.5204,4.4821,4.4339,4.3836,4.3597,4.2167,3.985,3.7279,3.4037,2.9668,2.0464,1.3256,0.6716,0.0,0.0,0.0,0.0,0.0,0.0,1.0293,1.0293,1.0291,1.0302,1.1784,1.2177,1.0394,1.0193,1.0196,0.0,0.0,0.0,0.0,0.0,0.0,1.5138,1.5189,1.5189,1.5189,1.5189,1.4901,1.4324,0.0,1.5226,1.5254,1.5245,1.5746,1.6578,1.5688,1.5229,1.5082,1.4804,1.5542,1.6881,1.6947,1.7913,1.9011,1.6479,0.0,0.0,1.5274,1.6655,1.8392,2.0085,2.3771,2.8044,3.0547,3.2547,3.4337,3.6305,3.7217,3.8456,4.2445,4.3497,4.3497,4.3497,4.3497,4.1754,3.5165,2.876,2.419,2.419,2.419,2.419,2.419,2.419,2.5199,2.8301,3.5771,4.1148,4.102,4.2433,0.0,4.4847,4.4081,4.4046,4.5457,4.5586,4.5781,4.6268,4.6305,4.6306,4.6308,4.6308,4.6308,4.6308,4.6308,4.6195,4.5974,4.7492,4.824,4.8221,4.6451,4.5244,4.4594,4.4594,4.495,4.5568,4.4834,4.3435,4.1884,4.38,3.932,3.1083,2.9591,2.7949,2.5492,1.8417,1.0697,0.1993,0.0,0.0,0.0,0.0,0.0,0.0,1.0268,1.0266,1.0266,1.0266,1.2616,1.3281,1.0586,1.0219,1.0183,0.0,0.0,0.0,0.0,0.0,0.0,0.0,1.4516,1.4113,1.4113,0.0,0.0,1.3497,1.444,0.0,0.0,0.0,0.0,0.0,1.5944,1.5273,1.5107,1.4794,1.5475,0.0,0.0,1.8262,1.7928,0.0,0.0,0.0,0.0,1.5274,1.7456,1.82,2.1348,2.5508,2.8815,3.2424,3.5883,3.8059,4.0983,4.3497,4.3497,4.3497,4.3563,4.3881,4.3404,4.0251,3.0244,2.6025,2.419,2.419,2.419,2.419,2.419,2.419,2.419,2.419,3.2724,3.8469,3.5954,4.0157,4.4143,0.0,4.4572,0.0,4.5591,4.5643,0.0,4.6128,4.6246,4.6308,4.6308,4.6308,4.6308,4.6308,4.7012,4.7383,4.7383,4.9595,5.0317,4.9567,4.6874,4.5586,4.5586,4.5586,4.5586,4.5513,4.4117,4.1813,3.9356,4.2262,3.5389,2.3135,2.3135,2.1799,1.9249,1.4306,0.5065,-0.6837,0.0,0.0,0.0,0.0,0.0,0.0,1.0148,1.0124,1.0124,1.0124,1.0505,1.0645,1.0332,1.0293,1.0292,0.0,0.0,0.0,0.0,0.0,0.0,0.0,0.0,0.0,0.0,0.0,0.0,1.3497,1.3843,0.0,0.0,0.0,0.0,0.0,0.0,1.5106,1.4947,1.5073,0.0,0.0,0.0,0.0,0.0,0.0,0.0,0.0,0.0,1.5206,1.6289,1.9452,1.9678,1.9614,2.5295,3.0716,3.5439,3.7963,4.0983,4.3497,4.3497,4.3497,4.3804,4.5099,4.3079,3.7941,2.7101,2.441,2.419,2.419,2.419,2.419,2.419,2.419,2.419,2.419,2.5199,2.586,2.5566,3.5899,4.406,4.5494,0.0,0.0,4.6052,4.5853,4.562,4.5645,4.6053,4.6308,4.6308,4.6308,4.6308,4.6308,4.9316,5.0937,5.0937,5.0791,4.9125,4.6067,4.574,4.5586,4.5586,4.5586,4.5586,4.5513,4.4117,4.0613,3.5943,3.6261,3.1141,2.3135,2.3135,1.746,0.878,0.3404,-0.8108,-2.1729,0.0,0.0,0.0,0.0,0.0,0.0,1.0124,1.0094,1.0094,1.0094,1.0141,1.0203,1.0293,1.0293,1.0293,1.0293,1.0293,0.0,0.0,0.0,0.0,0.0,0.0,0.0,0.0,0.0,1.2796,1.3027,1.4137,0.0,0.0,0.0,0.0,0.0,0.0,1.5159,1.5059,1.4847,0.0,0.0,0.0,0.0,0.0,0.0,0.0,0.0,0.0,0.0,1.7069,1.8071,1.8144,1.8148,2.0114,2.2805,2.6394,3.2407,3.7504,4.1523,4.3065,4.3497,4.3152,4.178,4.0974,3.7638,2.6693,2.419,2.419,2.419,2.419,2.419,2.419,2.419,2.419,2.419,2.419,2.506,2.7578,3.2542,3.7244,4.0784,4.3319,0.0,0.0,0.0,4.5719,4.6007,4.7987,4.8732,4.7691,4.848,4.9075,4.9355,5.0683,5.1406,5.1406,4.8883,4.6951,4.5586,4.5586,4.5586,4.5586,4.5586,4.5142,4.4111,4.0325,3.4645,2.783,2.4826,2.1661,1.8049,1.1726,0.4781,-0.2674,-1.0901,-2.0996,-3.1089,0.0,0.0,0.0,0.0,0.0,1.0269,1.0171,1.0155,1.0138,1.0102,1.0094,1.0147,1.0292,1.0293,1.0293,1.0293,1.0293,0.0,0.0,0.0,0.0,0.0,0.0,0.0,0.0,0.0,1.193,1.193,1.3118,1.4209,0.0,0.0,1.5189,1.5189,0.0,0.0,0.0,0.0,0.0,0.0,0.0,0.0,0.0,0.0,0.0,0.0,0.0,0.0,0.0,0.0,0.0,1.7658,1.6789,1.7286,1.957,2.6537,3.2631,3.7623,3.9986,4.1211,4.1403,3.963,3.9926,3.7921,2.7385,2.4551,2.417,2.4016,2.4094,2.419,2.419,2.419,2.419,2.419,2.419,2.5649,2.9826,3.0592,3.2084,0.0,0.0,4.5738,0.0,4.5796,4.577,4.6148,4.8347,4.9101,4.7757,4.9061,5.0264,5.1154,5.0344,4.9883,4.9883,4.7039,4.5586,4.5586,4.5586,4.5586,4.5586,4.5163,4.3558,4.0787,3.4528,2.7722,2.1069,2.2434,1.8313,1.0048,-0.0493,-0.8709,-1.5292,-2.2457,-3.0067,-3.716,0.0,0.0,0.0,0.0,0.0,1.0293,1.0293,1.0293,1.0244,1.0121,1.0094,1.0147,1.0292,1.0293,1.0293,1.0293,1.0293,0.0,0.0,0.0,0.0,0.0,0.0,0.0,1.0094,1.0113,1.0133,1.0133,1.0133,1.1882,1.5189,1.5189,1.5189,1.5189,0.0,0.0,0.0,0.0,1.1157,0.0,0.0,0.0,1.3396,0.0,0.0,0.0,0.0,0.0,0.0,0.0,0.0,0.0,0.0,1.6289,1.7565,2.129,2.6607,3.1679,3.3438,3.583,3.8271,3.9882,4.0689,3.859,2.8959,2.5423,2.4074,2.3588,2.3876,2.419,2.419,2.419,2.419,2.419,2.419,2.5649,2.9826,3.0398,0.0,0.0,0.0,4.5586,4.5605,4.5586,4.5669,4.59,4.6171,4.6195,4.5858,4.71,4.8702,5.0645,4.7892,4.6348,4.6348,4.5844,4.5586,4.5586,4.5586,4.5586,4.5549,4.4146,4.0624,3.5139,2.6852,2.0477,1.7135,3.3225,2.4178,-0.0905,-1.1545,-2.1313,-2.9599,-2.9702,-3.4105,-4.007,0.0,0.0,0.0,0.0,0.0,0.0,1.0293,1.0293,1.0273,1.0241,1.0233,1.0244,1.0292,1.0293,1.0268,1.0169,1.0243,0.0,0.0,0.0,0.0,0.0,0.0,1.0094,1.0094,1.0094,1.0094,1.0094,1.244,1.4132,1.5189,1.5189,1.5189,1.5189,1.5189,1.5018,0.0,1.1134,0.9938,0.0,0.0,0.9917,1.0551,0.0,0.0,0.0,0.0,0.0,0.0,0.0,0.0,0.0,0.0,0.0,0.0,1.7839,2.1516,2.569,2.8254,3.1935,3.462,3.2647,3.4154,3.4752,2.9497,2.5511,2.3116,2.3834,2.4094,2.3935,2.3067,2.2892,2.2892,2.2892,2.3624,2.4653,2.5978,0.0,0.0,3.0393,3.5393,4.0527,0.0,0.0,4.5654,4.5819,4.6637,4.6826,4.6172,4.7069,4.7522,4.7359,4.7658,4.7167,4.5832,4.5677,4.5586,4.5586,4.5586,4.5099,4.4098,4.2083,3.6016,2.7287,3.2461,2.3427,0.681,3.0425,1.8022,-1.6457,-2.2903,-2.879,-3.3945,-3.6061,-3.9228,-4.2426,0.0,0.0,0.0,0.0,0.0,0.0,1.0212,1.0212,1.0241,1.0293,1.0292,1.0298,1.0293,1.0246,1.0187,1.0106,1.0174,0.0,0.0,0.0,0.0,0.0,1.0094,1.0094,1.0094,1.0094,1.0729,1.2017,1.4151,1.5189,1.5189,1.5189,1.4516,1.3267,1.3163,1.2968,0.0,1.1539,1.0254,0.897,0.9681,1.0221,1.0805,0.0,0.0,0.0,0.0,0.0,0.0,0.0,0.0,0.0,0.0,0.0,0.0,0.0,1.8275,2.1312,2.456,2.8693,3.1346,2.8337,3.1664,3.4193,2.8615,2.4743,2.2525,2.333,2.3491,2.3236,2.246,2.1751,2.1524,2.218,2.2968,2.3938,2.5161,0.0,0.0,3.5295,0.0,0.0,0.0,4.5161,4.5301,4.5438,4.6274,4.6554,4.6053,4.6573,4.6573,4.5859,4.6736,4.6437,4.4815,4.5323,4.5586,4.5586,4.5058,4.389,4.2167,4.0767,3.3878,2.3191,2.443,1.2196,0.0,2.5319,1.222,-2.8221,-3.215,-3.5661,-3.8742,-4.0671,-4.2611,-4.4271,0.0,0.0,0.0,0.0,0.0,0.0,0.0,1.0094,1.0144,1.0272,1.0293,1.0293,1.0292,1.0171,1.0094,1.0094,1.0094,0.0,0.0,0.0,0.0,1.0074,1.0074,1.0074,1.0074,1.0086,1.1652,1.4843,1.4843,1.4843,1.4843,1.4843,1.3132,1.0086,0.9832,0.9728,0.9842,1.2158,1.152,0.9213,1.2192,1.3396,0.0,0.0,0.0,0.0,0.0,0.0,0.0,0.0,0.0,0.0,0.0,0.0,0.0,0.0,0.0,0.0,0.0,2.5742,2.818,2.6406,3.181,3.5253,2.6551,2.3396,0.0,2.2152,2.2123,2.2123,2.2123,2.0894,2.0413,2.2049,2.2389,2.3545,2.6651,3.117,0.0,0.0,4.3801,0.0,4.3941,4.4353,4.4707,4.4928,4.5342,4.5568,4.5457,4.5722,4.5818,4.5726,4.5299,4.4608,4.3646,4.4947,4.555,4.5419,4.396,4.2167,4.007,4.007,3.3293,2.066,0.6271,-0.8741,-2.0285,1.5973,0.449,-3.6197,-3.9303,-4.1789,-4.3646,-4.3646,-4.4489,-4.5586,0.0,0.0,0.0,0.0,0.0,0.0,0.0,0.0,0.0,0.0,1.0293,1.0267,1.0155,1.0124,1.0094,0.0,0.0,0.0,0.0,0.0,0.0,0.9791,0.9791,0.9791,0.9791,1.0006,1.0498,1.1305,1.1305,1.1305,1.1305,1.1305,1.0863,1.0094,1.002,0.9899,0.9746,1.0331,1.0159,0.9735,1.2356,1.3396,0.0,0.0,0.0,0.0,1.3396,1.5291,0.0,0.0,0.0,0.0,0.0,0.0,0.0,0.0,1.6789,1.7346,1.8757,0.0,2.2735,2.2596,2.4374,2.5833,0.0,2.3249,2.1915,2.0599,2.0311,2.0311,2.0311,2.1071,2.1811,2.2237,2.3213,2.4392,2.5779,0.0,0.0,0.0,4.2106,4.3033,4.1856,4.3476,4.483,4.5381,4.5531,4.5142,4.4046,4.5052,4.5178,4.4121,4.4486,4.4857,4.5099,4.5419,4.5058,4.3955,4.1896,4.0642,4.007,4.007,2.7449,0.5214,0.1602,-0.8741,-2.2631,-1.6879,-2.4159,-3.9375,-4.2921,-4.4645,-4.512,-4.512,-4.5323,-4.5586,0.0,0.0,0.0,0.0,0.0,0.0,0.0,0.0,0.0,0.0,1.0268,1.0243,1.0117,1.0094,1.0094,0.0,0.0,0.0,0.0,0.9957,0.9819,0.9706,0.9698,0.9761,0.9881,1.0034,1.0094,1.0094,1.0094,1.0094,1.0094,1.0094,1.0094,1.0167,1.151,1.1225,0.979,1.1278,1.1893,1.1991,1.2996,0.0,0.0,0.0,0.0,0.0,1.5409,1.6441,0.0,1.7811,1.7811,1.7811,0.0,0.0,0.0,0.0,1.7264,1.7288,1.7432,1.843,1.9491,1.97,2.102,2.2112,2.1436,2.1179,2.0829,1.9874,1.969,1.9945,2.0731,2.1645,2.231,2.231,2.3335,2.4854,0.0,0.0,0.0,3.7845,3.9937,4.1517,0.0,4.3316,4.4252,4.4619,4.4644,4.4299,4.3548,4.4834,4.5244,4.4489,4.4204,4.4261,4.4644,4.4644,4.4695,4.4767,4.3529,4.1958,4.007,3.8635,2.4123,-0.0403,-0.7511,-0.5857,0.0147,-2.2977,-3.6495,-4.2837,-4.4824,-4.5586,-4.5618,-4.5836,-4.593,-4.593,0.0,0.0,0.0,0.0,0.0,0.0,0.0,0.0,0.0,0.0,0.0,0.0,0.0,0.0,0.0,0.0,0.0,0.0,1.0094,1.0094,1.0006,0.9764,0.9768,0.9869,1.009,1.0094,1.0094,1.0094,1.0094,1.0094,1.0094,1.0094,1.0078,1.0144,1.2641,1.2242,0.9919,1.3141,1.4488,1.4453,1.3818,0.0,0.0,0.0,0.0,0.0,0.0,0.0,0.0,1.7811,1.7811,1.7811,1.7811,0.0,0.0,0.0,0.0,0.0,1.732,1.7502,1.7811,1.7811,1.9881,2.1221,1.8684,1.8949,1.969,1.969,1.969,2.0154,2.1615,2.2123,0.0,2.2106,2.3435,0.0,2.9379,0.0,0.0,3.6817,3.8125,0.0,4.2132,4.3059,4.3497,4.3497,4.3497,4.3597,4.3804,4.495,4.5513,4.5283,4.4117,4.3642,4.3934,4.3943,4.4729,4.6308,4.6308,4.4457,4.0779,3.3411,1.7426,-0.5262,-1.8434,-0.2377,2.9386,-1.7192,-3.9693,-4.4855,-4.5393,-4.5632,-4.5769,-4.614,-4.6308,-4.6308,0.0,0.0,0.0,0.0,0.0,0.0,0.0,0.0,0.0,0.0,0.0,0.0,0.0,0.0,0.0,0.0,0.0,0.0,1.0094,1.0094,1.0082,1.0048,1.0044,1.0061,1.0094,1.0094,1.0094,1.0094,1.0094,1.0094,1.0094,1.0094,0.9972,0.9787,1.0236,1.0157,0.9919,1.3141,1.4488,1.4488,1.4393,0.0,0.0,0.0,0.0,0.0,0.0,0.0,0.0,1.7811,1.7811,1.7811,1.7811,0.0,0.0,0.0,0.0,0.0,1.7704,1.7743,1.7811,1.7811,1.8952,1.9978,1.9516,1.9552,1.969,1.969,1.969,1.9782,2.005,2.1291,2.2049,0.0,0.0,2.8819,0.0,0.0,3.2949,3.6648,0.0,3.8865,3.7377,4.1045,4.3497,4.3497,4.3497,4.4016,4.5223,4.5475,4.5058,4.3868,4.3631,4.4262,4.5854,4.5877,4.6007,4.6308,4.6308,4.598,4.4433,1.7626,-0.5771,-2.5385,-2.7735,-0.2733,3.5573,-1.7769,-4.0347,-4.1566,-4.447,-4.5836,-4.6198,-4.6268,-4.6308,-4.6308,0.0,0.0,0.0,0.0,0.0,0.0,0.0,0.0,0.0,0.0,0.0,0.0,0.0,0.0,0.0,0.0,0.0,1.0174,1.0102,1.0094,1.0094,1.0094,1.0094,1.0094,1.0094,1.0094,1.0094,1.0094,1.0094,1.0094,1.0094,0.996,0.9825,0.9698,0.9698,0.9698,0.979,1.1269,1.2921,1.4488,0.0,0.0,0.0,0.0,0.0,0.0,0.0,0.0,0.0,0.0,1.7811,1.7811,1.7811,0.0,0.0,0.0,0.0,0.0,1.7811,1.7811,1.8177,1.9824,2.0656,2.1086,2.1086,2.0379,1.969,1.969,1.969,0.0,0.0,0.0,2.2772,2.4231,0.0,2.9894,3.2371,3.2644,3.3074,0.0,0.0,3.8241,3.605,3.7888,4.0423,4.3263,4.1882,4.1456,4.2783,4.4586,4.495,4.3548,4.2713,4.3568,4.6259,4.4465,4.4473,4.6308,4.6308,4.6308,4.4915,0.4235,-1.9953,-2.9985,-3.3734,-2.2651,-0.3976,-2.9858,-4.0489,-4.0669,-4.251,-4.3344,-4.3748,-4.5331,-4.6084,-4.6308,0.0,0.0,0.0,0.0,0.0,0.0,0.0,0.0,0.0,0.0,0.0,0.0,0.0,0.0,0.0,0.0,0.0,1.0241,1.011,1.0094,1.0094,1.0094,1.0094,1.0094,1.0094,1.0094,1.0094,1.0094,1.0094,1.0094,1.009,0.9838,0.9698,0.9698,0.9698,0.9698,0.9698,0.9698,1.1131,1.3435,0.0,0.0,0.0,0.0,0.0,0.0,0.0,0.0,0.0,0.0,0.0,0.0,0.0,0.0,0.0,1.7811,1.7811,1.7811,1.7811,1.7811,1.8369,2.0686,2.1786,2.231,2.231,2.126,2.0311,2.0311,1.998,0.0,0.0,2.317,0.0,2.787,2.9483,3.0806,3.194,3.3148,3.3791,3.3458,3.6128,3.736,3.5722,3.5622,3.7266,4.134,3.9372,3.8709,4.0403,4.297,4.3961,4.298,4.1822,4.2466,4.5078,4.2519,4.293,4.6308,4.6308,3.9101,2.4545,-1.2901,-3.0397,-3.1475,-3.7265,-3.9536,-3.9189,-4.012,-4.0568,-4.0699,-4.1069,-4.1699,-4.2673,-4.4938,-4.5424,-4.5067,0.0,0.0,0.0,0.0,0.0,0.0,0.0,0.0,0.0,0.0,0.0,0.0,0.0,0.0,0.0,0.0,1.0293,1.0241,1.011,1.0094,1.0094,1.0094,1.0094,1.0094,1.0094,1.0094,1.0094,1.0094,1.0094,1.0094,1.009,0.9838,0.9698,0.9698,0.9698,0.9698,0.9698,0.9698,0.9827,1.0304,1.3306,0.0,0.0,0.0,0.0,0.0,0.0,0.0,0.0,0.0,0.0,0.0,0.0,0.0,1.7811,1.7811,1.7811,1.7811,1.7811,1.7811,1.7862,1.8059,2.0247,2.231,2.231,2.2209,2.2106,2.2106,2.0829,0.0,0.0,2.5717,3.0615,3.0874,3.1822,3.261,3.2951,0.0,3.4863,3.6617,3.6219,3.5766,3.5622,3.5622,3.5735,3.6161,3.5973,3.7167,4.0332,4.0719,4.1025,4.1348,4.1253,4.132,4.1562,4.1328,4.293,4.6308,4.6308,1.7773,-3.5019,-3.8541,-3.8322,-3.5315,-3.7737,-3.9391,-4.0389,-4.0454,-4.0772,-4.115,-4.1191,-4.3144,-4.5957,-4.617,-4.3987,-4.1364,0.0,0.0,0.0,0.0,0.0,0.0,0.0,0.0,0.0,0.0,0.0,1.0147,1.0292,0.0,0.0,0.0,1.0293,1.0271,1.0233,1.0141,1.0094,1.0094,1.0094,1.0094,1.0094,1.0094,1.0094,1.0094,1.0094,1.0001,0.9844,0.9747,0.9698,0.9698,0.9698,0.9698,0.9698,0.9698,0.9698,0.9974,1.3196,1.4488,0.0,0.0,0.0,0.0,0.0,0.0,0.0,0.0,1.5054,1.5054,1.5054,1.6323,1.7625,1.6712,1.7084,1.7811,1.7811,1.7811,1.7811,1.7811,1.8674,2.001,2.1887,2.3731,2.5033,2.5033,2.3458,0.0,0.0,0.0,2.7009,2.8702,2.9767,3.1041,3.2787,3.3414,3.4338,3.601,3.2928,3.1933,3.5284,3.4037,3.3786,3.547,3.7476,3.8861,3.9358,3.7437,3.782,4.1093,4.1191,3.8252,3.2109,2.1082,0.7616,-0.8105,-0.8105,-1.9727,-4.1191,-4.1191,-4.0429,-3.9118,-3.9603,-4.0082,-4.0489,-4.0489,-4.0604,-4.079,-4.1097,-4.1992,-4.3084,-4.2797,-4.1756,-4.0989,0.0,0.0,0.0,0.0,0.0,0.0,0.0,0.0,1.0094,0.0,0.0,0.0,0.0,1.0293,0.0,0.0,1.0293,1.0272,1.024,1.0187,1.0157,1.0156,1.0156,1.0133,1.0094,1.0094,0.9056,0.6903,0.8966,0.9881,0.9698,0.9698,0.9698,0.9698,0.9698,0.9698,0.9698,0.9698,1.0286,1.1397,1.3618,1.4488,0.0,0.0,0.0,0.0,0.0,0.0,0.0,0.0,1.3396,1.3396,1.3396,1.5105,1.6915,1.59,1.6478,1.7542,1.7743,1.7811,1.8031,1.8995,1.8481,1.8352,2.0416,2.39,2.6962,2.7909,2.5695,2.2802,2.0168,0.0,0.0,0.0,2.7536,2.923,3.1328,3.1924,3.2653,3.4057,3.0307,2.9027,3.2749,3.2056,3.2572,3.5402,3.7337,3.7784,3.6414,3.4213,3.4986,3.9413,3.9551,2.9458,0.8387,-0.5919,-2.1914,-3.9427,-3.9427,-4.0053,-4.1191,-4.1191,-4.1191,-4.1171,-4.071,-4.0489,-4.0412,-3.9354,-3.9546,-4.0559,-4.1012,-4.1191,-4.1149,-4.0665,-4.0489,-4.0816,0.0,0.0,0.0,0.0,0.0,0.0,0.0,0.0,1.0094,1.0094,1.0094,0.0,0.0,0.0,0.0,0.0,1.0293,1.0241,1.011,1.0232,1.0298,1.0306,1.0294,1.0233,1.0094,1.0037,0.671,0.0,0.6521,0.9661,0.9606,0.9661,0.9698,0.9698,0.9727,0.9735,0.9735,0.9735,1.1581,1.4488,1.4488,1.4488,1.4488,0.0,0.0,0.0,0.0,0.0,0.0,0.0,1.3396,1.3396,1.3396,1.4394,1.5578,1.5578,1.6143,1.691,1.7612,1.7789,1.8521,2.1515,2.0002,1.7789,1.7822,2.2412,2.7503,3.0531,2.7144,2.2802,2.0168,2.0782,0.0,2.337,2.5717,2.7671,2.8559,2.906,2.9772,3.0982,2.9057,2.7625,2.761,2.9789,3.2408,3.5368,3.4474,3.3057,3.1291,3.1252,3.272,3.5896,3.5547,1.382,-3.1036,-3.787,-3.9242,-3.5588,-3.5588,-3.7529,-4.1152,-4.1172,-4.1191,-4.1171,-4.0671,-4.0466,-4.0181,-3.6873,-3.745,-4.0501,-4.1012,-4.1191,-4.1149,-4.0665,-4.0489,-4.0489,0.0,0.0,0.0,0.0,0.0,0.0,0.0,0.0,1.0094,1.0094,1.0094,0.0,0.0,0.0,0.0,0.0,0.0,1.0272,1.0241,1.0271,1.0292,1.0299,1.0302,1.0233,1.0094,0.5441,0.2019,0.0,0.6521,0.7366,0.2976,0.7549,0.95,0.9234,1.1365,1.2581,1.3086,1.3086,1.3637,1.4488,1.4488,1.4488,1.4488,0.0,0.0,0.0,0.0,0.0,0.0,0.0,0.0,0.0,1.3396,1.3701,1.4057,1.4057,1.4234,1.4706,1.6044,1.7076,0.0,1.8927,1.7762,1.6865,1.8718,2.1448,2.4458,2.7418,2.5648,2.2802,2.0168,2.0019,0.0,2.2413,2.383,2.5139,2.6378,2.6627,2.6518,2.5904,2.6869,2.8255,2.9978,3.0781,3.1562,3.2442,3.3309,3.3057,3.1291,3.335,3.5002,3.5976,0.3066,-1.9196,-2.8659,-3.2351,-3.3623,-3.251,-3.251,-3.4202,-3.7351,-4.0005,-4.1191,-4.1054,-3.8466,-3.7206,-3.6911,-3.5911,-3.6231,-3.7585,-4.0192,-4.1191,-4.1149,-4.0665,-4.0489,-4.0489,0.0,0.0,0.0,0.0,0.0,0.0,0.9968,1.0094,1.0094,1.0094,1.0141,1.0203,0.0,0.0,0.0,1.0293,1.0293,1.0293,1.0293,1.0293,1.0293,1.0293,1.0307,1.0233,1.0094,0.6095,0.4018,0.4018,0.7828,0.7596,0.3616,0.7538,0.9331,0.9296,1.1122,1.2888,1.4414,1.3141,1.3325,1.4488,1.4488,1.4488,1.4488,0.0,0.0,0.0,0.0,0.0,0.0,0.0,0.0,0.0,1.3591,1.3462,1.3396,1.3396,1.3396,1.3611,1.4581,1.5902,0.0,1.7002,1.7701,1.881,2.0352,0.0,0.0,0.0,2.5035,2.2802,2.0168,1.969,0.0,2.1799,2.2921,2.3879,2.4702,2.4807,2.4507,2.3699,2.5016,2.7363,3.0858,3.119,3.1487,3.2179,3.2565,3.2288,3.1157,3.2926,2.6426,0.9941,-2.0117,-3.4381,-3.0962,-3.2386,-3.2466,-3.119,-3.119,-3.2505,-3.499,-3.7831,-3.9121,-3.9004,-3.6774,-3.5685,-3.5501,-3.5641,-3.5827,-3.6191,-3.8179,-3.9016,-3.91,-3.8811,-3.9468,-4.0489,0.0,0.0,0.9542,0.9047,0.0,0.0,0.9992,1.0094,1.0094,1.0094,1.0219,1.0292,0.0,0.0,0.0,1.0293,1.0293,1.0293,1.0293,1.0292,1.0292,1.0272,1.028,1.0214,1.0094,1.0094,1.0094,1.0094,0.9825,0.9447,0.8979,0.8979,0.9386,1.0121,0.9827,1.1002,1.302,1.069,1.1379,1.4084,1.4378,1.4488,1.4488,1.4488,0.0,0.0,0.0,0.0,0.0,0.0,0.0,0.0,1.3867,1.3573,1.3396,1.3396,1.3599,1.382,1.3905,1.4943,0.0,1.63,1.9366,0.0,2.2106,1.9956,1.9521,2.4943,0.0,2.2517,2.0124,1.969,2.0109,2.1425,2.2637,2.343,2.343,2.3535,2.3595,2.3595,2.3752,2.5711,3.0342,3.0921,3.1603,3.3039,3.1901,3.1089,3.0912,2.7324,0.8223,-2.9067,-3.3422,-3.5437,-3.5996,-3.5706,-3.4079,-3.119,-3.1351,-3.2345,-3.4059,-3.5383,-3.5996,-3.5976,-3.5357,-3.5258,-3.557,-3.5864,-3.5996,-3.5974,-3.564,-3.5702,-3.5996,-3.5996,-3.7948,-4.0554,0.0,0.0,0.9675,0.9542,0.0,0.0,1.0033,1.0094,1.0094,1.0094,1.0131,1.0181,1.0292,1.0293,0.0,1.0293,1.0293,1.0293,1.0293,1.0295,1.0254,1.0157,1.014,1.0133,1.0094,1.0094,1.0094,1.0094,0.9825,0.9633,0.9525,0.9525,1.0931,1.3361,1.0837,0.7255,0.3414,0.7825,1.0102,1.0947,1.349,1.4488,1.4488,1.4488,1.4488,0.0,0.0,0.0,0.0,0.0,0.0,0.0,1.3997,1.3652,1.3396,1.3396,1.5037,1.7038,1.7818,1.7718,0.0,0.0,2.1608,2.1945,2.0565,1.9762,1.9669,2.093,2.0868,2.0348,1.9794,1.969,2.0004,2.0976,2.168,2.2099,2.2099,2.2966,2.3595,2.3595,2.5035,2.6478,2.7553,2.8764,2.913,2.8271,2.9921,3.0956,3.0898,0.0059,-1.9922,-2.5029,-2.7467,-3.1051,-3.5957,-3.35,-3.186,-3.123,-3.2598,-3.4041,-3.5533,-3.5851,-3.5996,-3.5859,-3.3092,-3.3409,-3.5896,-3.5974,-3.5996,-3.5974,-3.564,-3.5702,-3.5996,-3.5996,-3.8139,-4.1003,0.0,0.0,0.0,0.0,0.0,0.0,0.0,0.0,1.0094,1.0094,1.0153,1.0211,1.0293,1.0293,0.0,0.0,1.0299,1.0277,1.0217,1.019,1.0175,1.0094,1.0094,1.0094,1.0094,1.0094,1.0094,1.0094,0.9825,0.9698,0.9735,1.1278,1.2884,1.4359,1.1149,0.7806,0.4867,0.8266,0.9698,0.9845,1.1526,1.3123,1.4488,1.4488,1.4488,1.4488,1.4488,0.0,0.0,0.0,0.0,0.0,0.0,0.0,1.3934,1.3934,1.5021,1.6571,1.8144,0.0,0.0,2.2417,0.0,2.2797,2.1305,2.0926,2.0926,2.0926,2.0277,1.9782,2.01,1.9889,1.9839,2.0288,2.0572,2.0737,2.0737,2.1306,2.2048,2.288,2.3918,2.4594,2.4594,2.5317,2.5917,2.6208,1.9944,1.3353,0.7009,-1.3803,-2.5392,-2.5093,-2.7439,-3.0271,-3.3535,-1.7166,-1.568,-2.9062,-3.1337,-3.2802,-3.3535,-3.2936,-3.2985,-3.3457,-3.168,-3.1821,-3.3321,-3.3321,-3.4282,-3.5735,-3.5558,-3.5618,-3.5749,-3.5749,-3.6911,-3.868,0.0,0.0,0.0,0.0,0.0,0.0,0.0,0.0,0.0,0.994,1.0191,1.0271,1.0293,1.0293,1.0293,0.0,0.0,0.0,1.0113,1.0094,1.0094,1.0094,1.0094,1.0094,1.0094,1.0094,1.0094,1.0094,0.9825,0.9717,0.9831,1.3025,1.4488,1.4378,1.1709,1.0525,1.0488,0.9937,1.001,1.0525,1.0525,1.1783,1.3728,1.4286,1.4488,1.4511,1.4592,1.4865,1.5189,1.5189,0.0,0.0,0.0,0.0,1.4488,1.4488,1.4488,1.4914,1.6834,0.0,1.9979,2.2822,2.3524,0.0,2.2917,2.2362,2.2021,2.2258,2.1023,2.005,2.053,2.012,1.969,1.969,1.969,1.969,1.969,1.969,2.0345,2.2077,2.2497,2.2552,2.2338,2.2658,2.3683,2.556,0.7634,-0.8181,-1.9119,-1.998,-2.1945,-2.583,-2.87,-3.0416,-3.0898,-0.5422,-0.4024,-2.6549,-2.9504,-3.0898,-3.0859,-2.9819,-2.9901,-3.0898,-3.0832,-3.067,-3.0398,-3.0398,-3.2398,-3.5493,-3.5493,-3.5493,-3.552,-3.5558,-3.554,-3.5988,0.0,0.0,0.0,0.0,0.0,0.0,0.0,0.0,0.0,0.0,1.0117,1.0169,1.0292,1.0293,1.0293,1.0293,1.0292,1.0233,1.0113,0.0,0.0,1.0094,1.0094,1.0094,1.0094,1.0094,1.0094,1.0094,0.9825,0.9825,1.0101,1.3086,1.4488,1.4469,1.4047,1.3857,1.3692,1.0892,1.1306,1.3857,1.3857,1.2444,1.0653,1.3435,1.4488,1.4537,1.4965,1.5153,1.5189,1.5189,1.5165,0.0,0.0,0.0,1.4488,1.4488,1.4488,1.4652,1.5364,0.0,1.9526,0.0,2.0814,2.1541,0.0,0.0,2.09,0.0,2.1524,2.0764,2.063,2.012,1.969,1.969,1.969,1.969,1.969,1.969,2.0345,2.2077,2.3265,2.3513,2.2405,2.4098,2.5381,2.5683,-0.0866,-1.7838,-1.9609,-2.1134,-2.2233,-2.2856,-2.5721,-2.8443,-3.0879,-2.6792,-2.5085,-2.5877,-2.929,-3.0898,-3.0898,-3.0726,-3.0749,-3.0878,-3.0579,-3.0439,-3.0398,-3.0398,-3.2398,-3.5493,-3.5493,-3.5493,-3.5534,-3.5831,-3.5762,-3.5988,0.0,0.0,0.0,0.0,0.0,0.0,0.0,0.0,0.0,0.0,0.0,0.5917,0.9775,1.0246,1.0293,1.0293,1.0292,1.0233,1.0113,1.0094,1.0094,1.0094,1.0094,1.0094,1.0094,1.0094,1.0094,1.0094,0.9972,0.9977,1.0167,1.3389,1.4881,1.4881,1.4881,1.4757,1.4396,1.2994,1.3214,1.4488,1.4488,1.3655,1.2535,1.3967,1.4658,1.4925,1.5121,1.5189,1.5189,1.5189,1.5189,1.5177,1.5106,0.0,0.0,0.0,1.4488,1.4603,1.508,1.6078,1.7539,0.0,2.0312,2.0696,2.215,2.1446,2.0353,1.9871,2.0822,2.1554,2.0942,2.0224,1.969,1.969,1.998,2.01,1.9762,2.0548,2.1462,2.2209,2.3917,2.4822,2.4257,1.2008,0.3023,0.0452,-1.2152,-1.969,-1.969,-2.204,-2.3359,-2.3359,-2.5169,-2.6737,-2.7969,-2.7988,-2.7226,-2.5742,-2.905,-3.072,-3.0898,-3.0898,-3.0898,-3.0878,-3.0543,-3.0398,-3.0552,-3.2455,-3.4128,-3.5493,-3.5493,-3.5609,-3.5788,-3.5721,-3.563,-3.5718,0.0,0.0,0.0,0.0,0.0,0.0,0.0,0.0,0.0,0.0,0.0,0.2576,0.9364,0.0,0.0,0.0,1.0292,1.0233,1.0113,1.0094,1.0498,1.1363,1.0556,1.0094,1.0094,1.0094,1.0094,1.0094,1.0979,1.094,1.0152,1.2741,1.4416,1.5253,1.5214,1.5004,1.4678,1.4678,1.4678,1.4668,1.4556,1.4488,1.4511,1.4616,1.4909,1.5189,1.5189,1.522,1.525,1.5218,1.5189,1.5189,1.5189,1.5189,0.0,0.0,0.0,0.0,0.0,0.0,1.6027,1.9502,2.0371,2.0366,0.0,0.0,1.9996,0.0,2.0213,2.1965,2.0936,2.0141,1.9711,1.9854,2.0277,2.0543,2.0439,1.9698,1.9332,1.985,2.1948,2.2265,1.9439,-0.0281,-1.4767,-1.9376,-2.012,-2.0345,-2.0345,-2.2807,-2.419,-2.419,-2.5182,-2.5703,-2.5703,-2.5703,-2.6133,-2.7031,-2.8439,-2.9694,-3.0771,-3.0771,-3.0771,-3.0762,-3.051,-3.0398,-3.0667,-3.409,-3.5493,-3.552,-3.5596,-3.5774,-3.5953,-3.562,-3.5493,-3.5622,0.0,0.0,0.0,0.0,0.0,0.0,0.0,0.0,0.0,0.0,0.0,0.2576,0.9364,1.0106,1.0158,1.0293,1.0292,1.0233,1.0113,1.0094,1.1555,1.4786,1.1825,0.0,1.0094,1.0094,1.0094,1.0094,1.3344,1.3286,1.0113,1.0404,1.2286,1.5368,1.5253,1.5183,1.5165,1.5165,1.5165,1.5121,1.4678,1.4488,1.4556,1.4996,1.5177,1.5189,1.5189,1.5287,1.5366,1.5245,1.5189,1.5189,1.5189,1.5189,1.5209,0.0,0.0,0.0,0.0,1.5189,0.0,1.9678,2.0585,0.0,0.0,0.0,1.9844,1.8142,2.0213,2.1821,2.025,1.9807,1.9803,2.0227,2.0481,2.1017,2.2281,1.5573,1.1246,1.3152,1.5529,1.2855,0.2362,-0.7289,-1.4767,-1.9376,-2.1229,-2.2152,-2.2152,-2.345,-2.419,-2.419,-2.5182,-2.5703,-2.5703,-2.5703,-2.7363,-3.0586,-2.7187,-2.7266,-3.0436,-3.0436,-3.0436,-3.0425,-3.0421,-3.0398,-3.0667,-3.409,-3.5493,-3.5534,-3.5849,-3.5976,-3.5953,-3.562,-3.5493,-3.5949,0.0,0.0,0.0,0.0,0.0,0.0,0.0,0.0,0.0,0.0,0.0,0.0,0.0,1.0094,1.015,1.0292,1.0215,1.0156,1.0094,1.2151,1.392,1.5151,1.4036,1.3363,1.3363,1.3363,1.2305,1.0094,1.3517,1.4612,1.3454,1.13,1.213,1.5399,1.534,1.5287,1.5189,1.5189,1.5189,1.5183,1.5018,1.4957,1.4973,1.5146,1.5189,1.5189,1.5189,0.0,1.5388,1.5347,1.5272,1.5189,1.5189,1.5189,1.5189,1.5189,1.5189,1.5189,0.0,0.0,0.0,1.6928,1.8945,2.0546,2.0354,2.0305,1.9815,1.8142,1.8674,1.9226,1.8668,1.8713,1.897,1.9296,2.0146,1.996,1.7605,1.3673,0.9826,0.6501,0.3537,-0.0841,-0.7488,-1.191,-1.5501,-1.843,-1.9334,-1.998,-2.0599,-2.2891,-2.419,-2.419,-2.5182,-2.5703,-2.5703,-2.5703,-2.6232,-2.7324,-2.8174,-2.9206,-3.0398,-3.0398,-3.0398,-3.0398,-3.0398,-3.0398,-3.0694,-3.4309,-3.5827,-3.5836,-3.5951,-3.5996,-3.5953,-3.562,-3.5493,-3.568,0.0,0.0,0.0,0.8891,0.0,0.95,0.9683,0.9698,0.9698,0.9698,0.0,0.0,0.0,0.0,1.0197,1.0293,1.0227,1.0644,1.1733,1.2863,1.4024,1.5226,1.5265,1.5265,1.5265,1.5265,1.4147,1.1874,1.4147,1.531,1.5346,1.3081,1.1367,1.0332,1.2656,1.4282,1.5265,1.5265,1.5241,1.5189,1.5189,1.5189,1.5193,1.5193,1.5206,1.5189,0.0,0.0,0.0,1.5344,1.5266,1.5174,1.5018,1.5095,1.5252,1.5204,1.5189,1.5189,1.5189,0.0,0.0,0.0,1.7103,1.9052,2.0062,2.0302,1.9968,1.888,1.8467,1.8327,1.8396,1.8557,1.8801,1.918,1.893,1.766,1.4594,1.095,0.6671,0.1563,-0.4278,-0.9033,-1.1807,-1.453,-1.6796,-1.8521,-1.9002,-1.9364,-1.9675,-2.216,-2.3913,-2.4689,-2.5347,-2.5703,-2.5703,-2.5703,-2.5561,-2.5341,-2.8764,-3.0398,-3.0398,-3.0398,-3.0398,-3.0398,-3.0398,-3.0398,-3.0687,-3.444,-3.5996,-3.5996,-3.5996,-3.5996,-3.5953,-3.562,-3.5493,-3.5493,0.8005,0.8486,0.888,0.8891,0.8891,0.9078,0.9617,0.9698,0.9698,0.9698,0.0,0.0,0.0,0.0,0.0,1.0449,1.0449,1.1791,1.4995,1.2103,1.1793,1.5254,1.5391,1.5391,1.539,1.539,1.539,1.5391,1.5391,1.5391,1.5391,1.5391,1.0059,0.0738,0.746,1.2285,1.539,1.5391,1.5319,1.5207,1.5207,1.5193,1.5202,1.5187,1.5185,0.0,1.5185,1.5271,0.0,1.519,0.0,0.0,0.0,1.4922,1.5369,1.525,1.5207,1.5207,0.0,0.0,0.0,0.0,0.0,0.0,1.9477,2.0227,2.0238,2.0285,1.9785,1.9369,1.9477,1.9144,1.9041,1.9646,1.6711,1.4128,1.3494,0.6947,0.1179,-0.1653,-0.7342,-1.1091,-1.1091,-1.535,-1.8535,-1.9603,-2.0499,-2.0632,-1.9818,-2.1415,-2.3378,-2.5623,-2.5703,-2.5703,-2.5703,-2.5703,-2.5561,-2.5341,-2.8764,-3.0398,-3.0398,-3.0367,-3.0355,-3.0355,-3.0398,-3.0398,-3.0687,-3.444,-3.5996,-3.5996,-3.5996,-3.5996,-3.5954,-3.5621,-3.552,-3.5512,1.0539,0.9354,0.8319,0.8824,0.8891,0.9078,0.9617,0.9698,0.9698,0.0,0.0,0.0,0.9818,1.0019,1.119,1.3769,1.3984,1.4334,1.5155,1.4412,1.4371,1.5352,1.5391,1.5359,1.5252,1.5268,1.5296,1.5391,1.5391,1.5391,1.5391,1.5391,1.3811,1.1079,1.3,1.4379,1.5256,1.536,1.5388,1.5334,1.5334,1.5293,1.5164,1.4812,1.4901,0.0,0.0,1.5105,1.512,0.0,1.5329,1.6847,0.0,1.5126,1.5267,1.5331,1.5334,1.5334,1.5334,0.0,0.0,0.0,0.0,0.0,1.8285,1.8516,1.8625,2.0076,2.0211,1.948,1.7512,1.3391,1.0551,1.1353,1.252,1.064,0.2965,-0.0612,-0.4,-0.8196,-1.2303,-1.4975,-1.5429,-1.7007,-1.845,-1.9483,-2.0265,-2.0975,-2.1554,-2.2923,-2.4291,-2.5663,-2.5703,-2.5703,-2.5703,-2.5703,-2.5561,-2.5341,-2.8764,-3.0398,-3.0386,-2.9696,-2.9397,-2.9436,-3.0114,-3.0398,-3.0687,-3.444,-3.5996,-3.5975,-3.5721,-3.58,-3.5996,-3.5893,-3.571,-3.5853,1.0028,0.9815,0.9388,0.8967,0.9941,1.0532,0.981,0.9698,0.9698,0.0,0.0,0.0,1.1822,0.834,0.6714,0.8789,1.291,1.5365,1.5297,1.536,1.5391,1.5391,1.5353,1.5287,1.5195,1.5011,1.5031,1.5309,1.5309,1.5309,1.5312,1.5367,1.5321,1.5189,1.5189,1.5234,1.5284,1.531,1.5309,1.5309,1.5309,1.5268,1.5171,1.4909,1.483,0.0,0.0,0.0,1.4747,1.3736,1.453,0.0,1.5139,1.4691,1.4551,1.514,1.5348,1.5358,1.5319,1.7252,1.877,1.6747,0.0,0.0,1.7841,1.8056,1.8278,1.9028,1.9303,1.8758,1.6676,1.2149,0.8061,0.5984,0.711,0.5255,-0.3264,-0.6259,-0.919,-1.3609,-1.583,-1.7316,-1.8154,-1.8517,-1.9045,-1.9889,-2.075,-2.1766,-2.3025,-2.4185,-2.5085,-2.5683,-2.5703,-2.5703,-2.5703,-2.5703,-2.5561,-2.5322,-2.7007,-2.7812,-2.7854,-2.8639,-2.8994,-2.9044,-2.9992,-3.0398,-3.0571,-3.2915,-3.4632,-3.5762,-3.5581,-3.562,-3.5816,-3.5951,-3.58,-3.5988,0.0,1.0114,1.1261,0.9527,1.1542,1.268,1.0558,1.0231,1.0206,0.0,1.019,1.1065,1.3265,0.5422,0.0,0.0,0.8398,1.418,1.5312,1.5391,1.5391,1.5391,1.5272,1.5189,1.5189,1.4785,1.4766,1.5121,1.5171,1.5189,1.5195,1.5316,1.5307,1.5189,1.5189,1.5272,1.5368,1.5253,1.5189,1.5189,1.5189,1.4947,1.4622,1.5049,1.4917,1.4469,1.4371,1.4343,1.4299,1.382,1.3551,0.0,1.4556,1.4504,1.4246,1.5019,1.5324,1.5396,1.5433,1.6661,1.7891,1.7612,1.8064,0.0,1.7734,1.8195,1.8544,1.7797,1.7665,1.7327,1.6273,1.2962,0.8488,0.2733,0.1087,-0.1357,-0.6712,-1.0096,-1.3501,-1.7407,-1.7899,-1.8379,-1.9588,-1.9615,-1.9869,-2.0581,-2.1657,-2.2887,-2.4265,-2.5202,-2.5703,-2.5703,-2.5703,-2.5703,-2.5703,-2.5662,-2.5539,-2.5303,-2.454,-2.419,-2.43,-2.7548,-2.8994,-2.9044,-2.988,-3.0299,-3.0436,-3.0765,-3.2717,-3.5493,-3.5493,-3.5493,-3.5547,-3.5884,-3.58,-3.593,0.9502,1.0765,1.1668,1.1302,1.2441,1.3448,1.3555,1.3563,1.3353,1.2756,1.3188,1.0852,0.3734,0.1192,0.0,0.0,0.1836,0.6523,1.4863,1.5391,1.5391,1.5391,1.5272,1.5189,1.5189,1.5107,1.4914,1.4645,1.5011,1.5189,1.5195,1.5231,1.5226,1.5189,1.5189,1.5209,1.5234,1.5209,1.5189,1.5189,1.5189,1.343,1.1105,1.4067,1.4917,1.4488,1.4469,1.4096,1.3786,1.4955,1.4385,1.3702,0.0,1.775,1.8067,1.6095,1.5764,1.6142,1.6736,1.7851,1.8472,0.0,1.7545,0.0,1.7139,1.7022,1.744,1.8427,1.6995,1.5272,1.4262,0.8898,0.3564,0.0379,-0.3949,-0.7851,-1.061,-1.1388,-1.3066,-1.6759,-1.7198,-1.7847,-1.9543,-1.9211,-1.947,-2.083,-2.2554,-2.4052,-2.5197,-2.5534,-2.5703,-2.5703,-2.5703,-2.5703,-2.5703,-2.5493,-2.5346,-2.5303,-2.454,-2.419,-2.43,-2.7548,-2.8994,-2.9017,-2.9185,-2.9696,-3.0436,-3.0765,-3.2717,-3.5493,-3.5493,-3.5493,-3.5547,-3.5884,-3.58,-3.5603,1.0736,1.1363,1.1805,1.1805,1.2687,1.3653,1.4393,1.4488,1.4362,1.4005,1.005,0.541,0.0532,0.0,0.0,0.0,0.4653,1.0502,1.7389,1.6256,1.5293,1.5293,1.5231,1.5189,1.5189,1.4973,1.4738,1.4488,1.4738,1.4973,1.5093,0.9998,1.0325,1.5189,1.5189,1.5189,1.5189,1.5189,1.5054,1.4724,1.3257,0.0,1.2298,1.4147,1.4708,1.4453,1.4087,1.3715,1.3501,1.4255,1.4501,0.0,1.6305,1.7074,1.7193,0.0,1.5954,1.594,1.6306,0.0,0.0,1.6736,0.0,0.0,0.0,1.7201,1.7274,1.713,1.5555,1.3571,1.1529,0.7243,0.3096,0.0115,-0.3205,-0.634,-0.8933,-1.131,-1.3893,-1.698,-1.6528,-1.6825,-1.898,-1.8238,-1.8703,-2.133,-2.3133,-2.4415,-2.5158,-2.5525,-2.5636,-2.5493,-2.5508,-2.5508,-2.5508,-2.5371,-2.5303,-2.5303,-2.454,-2.419,-2.43,-2.7548,-2.8583,-2.789,-2.8676,-2.9533,-3.0414,-3.0591,-3.1568,-3.3138,-3.5012,-3.5762,-3.5762,-3.5948,-3.58,-3.5493,1.1227,1.1423,1.1512,1.1747,1.2687,1.3653,1.4393,1.4488,1.4488,1.4488,0.7545,0.1914,0.0186,0.1669,0.2787,0.2787,1.0406,1.627,1.8812,1.7221,1.5882,1.5228,1.5114,1.5073,1.5073,1.4688,1.4488,1.4488,1.4488,1.4747,1.5016,0.6768,0.7306,1.5112,1.3151,1.3363,1.5189,1.5101,1.4857,1.4272,0.0,1.2248,1.4488,1.4488,1.4488,1.4375,1.3427,1.32,1.3339,1.3245,1.4149,1.5329,1.5507,1.5323,0.0,0.0,0.0,0.0,0.0,0.0,0.0,0.0,0.0,1.816,0.0,0.0,0.0,1.4907,0.0,0.0,0.0,0.0,0.0,0.0464,-0.1133,-0.3042,-0.5945,-0.981,-1.3335,-1.5881,-1.4626,-1.4543,-1.6962,-1.6405,-1.7468,-2.1209,-2.2729,-2.3691,-2.4181,-2.5111,-2.5535,-2.535,-2.5303,-2.5303,-2.5303,-2.5303,-2.5233,-2.5084,-2.4493,-2.4074,-2.3925,-2.6522,-2.7031,-2.5959,-2.809,-2.9533,-3.0398,-3.0398,-3.0398,-3.0698,-3.3819,-3.543,-3.5996,-3.5996,-3.58,-3.5493,1.0097,1.011,1.047,1.1601,1.2687,1.3653,1.4393,1.4488,1.4488,1.4488,1.2975,0.884,0.0864,0.7684,1.2855,1.2855,1.4293,1.4904,1.4241,1.7654,1.8369,1.5324,1.4794,1.4571,1.4571,1.4522,1.4488,1.4488,1.4488,1.4747,1.517,1.4017,1.4093,1.4805,0.5749,0.6749,1.5171,1.4766,1.4556,0.0,1.3429,1.3612,0.0,1.4488,1.4488,1.4277,1.259,1.2524,1.3239,0.0,1.3323,1.3648,0.0,1.498,1.5393,1.5566,0.0,0.0,0.0,0.0,0.0,0.0,1.5882,0.0,0.0,0.0,1.36,1.2221,0.0,0.0,0.0,0.0,0.0,0.0149,-0.1561,-0.3413,-0.5181,-0.6265,-0.7855,-1.0387,-0.9573,-0.9597,-1.1661,-1.3003,-1.5297,-1.9076,-2.0078,-2.0853,-2.166,-2.4022,-2.539,-2.5466,-2.5367,-2.5303,-2.5303,-2.5303,-2.4968,-2.4321,-2.4247,-2.3602,-2.2542,-2.2894,-2.2954,-2.3022,-2.7204,-2.9533,-3.0398,-3.0398,-3.0398,-3.0466,-3.1198,-3.332,-3.5996,-3.5996,-3.58,-3.5493,0.9905,0.9905,1.0072,1.0592,1.1672,1.2785,1.3726,1.3862,1.3862,1.3862,1.3591,1.1957,0.818,1.0868,0.0,0.0,0.0,1.2175,0.0,1.3933,1.8471,1.7629,1.0205,0.8729,1.4378,1.4488,1.4488,1.4488,1.4488,1.4603,1.4785,1.4785,1.4785,1.4607,1.0332,0.7653,0.6729,1.2197,1.4488,0.0,0.0,1.321,0.0,1.3613,1.3025,1.1734,1.0968,1.1043,1.1505,1.1505,1.11,0.0,0.0,0.0,0.0,1.2838,0.0,0.0,0.0,0.0,0.0,0.0,0.0,0.0,1.1989,0.0,0.9846,0.0,0.0,0.0,0.0,0.0,0.0,0.0,-0.2231,-0.3016,-0.3698,-0.3975,-0.523,-0.8321,-0.697,-0.6693,-0.9024,-1.077,-1.3344,-1.7303,-1.7944,-1.9077,-2.1238,-2.387,-2.5341,-2.5385,-2.5322,-2.5303,-2.5303,-2.5303,-2.493,-2.419,-2.3445,-2.2833,-2.231,-2.231,-2.231,-2.2462,-2.509,-2.7488,-2.9625,-3.0188,-3.0398,-3.0414,-3.0552,-3.1605,-3.3281,-3.5273,-3.58,-3.5493,1.0696,1.032,0.9905,0.9905,1.0949,1.2154,1.3243,1.3396,1.3701,1.4514,1.4616,1.4616,1.4616,1.3573,0.0,0.0,1.3701,1.0159,0.0,0.0,1.7737,1.8842,0.9885,0.818,1.5243,1.5673,1.5821,1.5821,1.5821,1.5362,1.4488,1.4488,1.4387,1.4224,1.4417,0.9096,0.063,0.0,1.4446,1.4757,1.346,1.1199,0.8651,0.9422,0.8666,0.7436,0.9328,1.0133,1.0196,0.9588,0.8683,0.7941,0.8927,0.9858,1.05,0.0,0.0,0.0,1.0268,0.0,0.0,0.0,0.0,0.0,0.0,0.0,0.0,0.0,0.0,0.0,0.0,0.0,-0.1142,-0.2454,0.0,-0.2802,-0.2449,-0.2416,-0.3334,-0.5689,-0.4441,-0.4345,-0.6854,-0.8316,-1.0893,-1.5201,-1.6107,-1.7659,-2.0425,-2.3351,-2.4897,-2.4815,-2.5135,-2.5303,-2.5303,-2.5303,-2.493,-2.417,-2.291,-2.231,-2.231,-2.231,-2.231,-2.2377,-2.3664,-2.5529,-2.7764,-2.8636,-2.9398,-3.0022,-3.0022,-3.0307,-3.1175,-3.4608,-3.571,-3.5493,1.2672,1.1387,0.9905,0.9905,1.0949,1.2154,1.3243,1.3396,1.4429,1.7304,1.7676,0.0,0.0,0.0,0.0,0.0,0.0,0.961,0.0594,0.0,1.6459,1.7794,1.7439,1.7371,0.0,1.8645,1.9158,1.9158,1.9158,1.7546,1.4488,1.4488,1.4114,1.3479,1.418,0.9096,0.0594,0.961,1.433,1.5536,1.2907,0.7251,0.0378,0.0412,0.0383,0.1188,0.7891,1.0273,0.9952,0.7833,0.6331,0.5604,0.6755,0.7728,0.8485,0.0,0.0,0.0,0.9223,0.8602,0.7802,0.7606,0.6678,0.0,0.0,0.0,0.0753,0.0,0.0,0.0,-0.2856,-0.2781,-0.2595,-0.2537,-0.3092,0.0,0.0,-0.1736,-0.1667,-0.1173,-0.1173,-0.2141,-0.4578,-0.5281,-0.7568,-1.2476,-1.4585,-1.6466,-1.8398,-2.2031,-2.3889,-2.3566,-2.4683,-2.5303,-2.5303,-2.5303,-2.493,-2.417,-2.291,-2.231,-2.231,-2.231,-2.231,-2.2377,-2.3664,-2.4263,-2.4413,-2.5152,-2.6866,-2.9044,-2.9044,-2.9606,-3.0837,-3.4263,-3.5501,-3.5493,1.4553,1.4313,1.3783,1.3783,1.4168,1.4206,1.3509,1.5054,1.6365,0.0,0.0,0.0,0.0,1.5389,1.5094,0.0,0.0,1.1054,0.8004,1.2831,0.0,0.0,0.0,0.9305,0.0,1.6813,1.7428,1.8316,1.898,1.7415,1.3759,1.3759,1.3638,1.3413,1.3653,1.1954,0.0,0.0,0.0,0.0,0.0,0.2394,0.0,0.0,0.0,0.0303,0.2637,0.3477,0.3842,0.6215,0.5733,0.4228,0.4618,0.5487,0.6355,0.628,0.586,0.5289,0.4828,0.4234,0.3504,0.2311,0.1541,0.0761,-0.0469,-0.1689,0.0,0.0,0.0,0.0,0.0,-0.4591,-0.4138,-0.4085,-0.3824,-0.329,0.0,-0.1682,-0.0818,0.0175,-0.0092,0.0,-0.2863,-0.4563,-0.7513,-1.2331,-1.4732,-1.7114,-1.9792,-2.2048,-2.3585,-2.428,-2.4784,-2.5165,-2.5422,-2.5111,-2.4949,-2.4904,-2.3147,-2.1691,-2.0565,-2.0565,-2.0565,-2.0665,-2.2252,-2.3422,-2.4228,-2.4459,-2.6321,-2.8994,-2.8994,-2.957,-3.0841,-3.4484,-3.5685,-3.5383,1.4505,1.4876,1.5074,1.5697,0.0,1.5239,1.358,1.5455,0.0,0.0,1.3591,0.0,1.2021,0.0,1.3013,0.0,1.1113,1.1318,1.1768,1.3001,0.0,1.608,0.8805,0.0,0.0,1.4876,1.5607,1.7101,1.641,1.5726,1.4936,1.3887,1.3972,1.4919,1.387,1.3191,1.2818,1.2818,1.2169,0.0,0.0,0.0,0.0179,0.1857,0.1448,0.0,0.0,0.0,0.0526,0.398,0.4156,0.3037,0.3445,0.41,0.443,0.3168,0.2583,0.2216,0.1616,0.0923,0.0103,-0.1039,-0.1998,-0.2991,-0.4119,-0.5162,-0.607,-0.674,0.0,0.0,0.0,-0.5947,-0.5255,-0.4954,-0.4434,-0.3728,0.0,-0.1671,-0.0433,0.0756,0.0367,0.0,0.0,-0.4152,-0.7475,-1.2457,-1.4739,-1.7271,-2.0379,-2.215,-2.3419,-2.4134,-2.483,-2.5294,-2.5498,-2.5156,-2.5091,-2.5274,-2.3258,-2.1385,-1.969,-1.8893,-1.8968,-1.9747,-2.091,-2.2197,-2.3513,-2.3513,-2.5697,-2.9021,-2.9357,-2.9864,-3.0687,-3.3128,-3.439,-3.4698,1.2826,1.3198,1.3702,1.5389,1.5668,0.0,0.0,0.0,1.5668,0.0,1.2293,0.9905,0.9905,0.9905,0.9905,0.9905,0.9905,1.0396,1.1637,1.0675,0.0,0.0,1.3267,1.3198,1.3198,0.0,0.0,1.5668,1.2153,1.293,1.7653,1.49,1.5086,1.7586,1.4776,1.2889,1.1805,1.1725,1.0922,0.9096,0.2716,0.0134,0.0627,0.5132,0.398,0.0,0.0,0.0,0.018,0.134,0.1697,0.1919,0.304,0.3445,0.2721,-0.0845,-0.1205,-0.0437,-0.0248,-0.1226,-0.2339,-0.2561,-0.4028,-0.5814,-0.73,-0.8134,-0.8798,-0.9592,-0.9134,-0.8373,-0.7753,-0.6883,-0.6006,-0.5171,-0.4945,-0.4371,-0.2873,-0.1657,-0.0492,0.0755,0.0358,0.0,0.0,-0.4121,-0.7509,-1.2652,-1.4651,-1.7008,-2.0242,-2.2134,-2.3155,-2.3217,-2.4781,-2.559,-2.5503,-2.5307,-2.5214,-2.5214,-2.332,-2.143,-1.9639,-1.7463,-1.7626,-1.9566,-1.9639,-2.0632,-2.218,-2.2254,-2.4954,-2.9093,-3.0022,-3.0398,-3.0417,-3.0535,-3.1883,-3.3429,1.2826,1.3198,1.3323,0.0,1.3868,1.3702,0.0,0.0,0.0,0.0,1.1564,0.9905,0.9905,0.9905,0.9905,0.9905,0.9905,0.0,0.0,0.0,0.0,1.5045,1.3901,1.3198,1.3198,1.3198,0.0,1.3868,1.2906,1.3795,1.6324,1.6561,1.6541,1.6282,1.5505,1.3925,1.1725,1.0784,0.8882,0.622,0.321,0.2019,0.2184,0.3828,0.262,0.0,0.0,0.0,0.0045,0.0359,0.0448,0.0538,0.0807,0.0941,0.0403,-0.2319,-0.3105,-0.3043,-0.3112,-0.3492,-0.4133,-0.5227,-0.6288,-0.7315,-0.8274,-0.9013,-0.9401,-0.9086,-0.929,-0.9424,-0.9226,-0.8107,-0.7185,-0.7273,-0.5867,-0.414,-0.243,0.0,0.0,0.0672,0.0,0.0,-0.0534,-0.5779,-1.0049,-1.2324,-1.4663,-1.7703,-2.1729,-2.0316,-2.0598,-2.326,-2.4098,-2.4883,-2.5637,-2.4374,-2.3988,-2.4476,-2.3961,-2.2304,-1.9639,-1.7463,-1.6795,-1.7435,-1.9006,-1.9945,-2.0481,-2.1751,-2.4954,-2.9093,-3.0022,-3.0398,-3.0606,-3.2292,-3.2498,-3.1823,1.2978,1.3198,0.0,1.3198,0.0,0.0,1.3198,1.4012,0.0,1.3323,1.2109,0.0,1.1332,1.0483,1.0295,1.1245,1.1332,0.0,1.1332,0.0,0.0,1.4627,1.3702,1.3198,1.3198,1.2389,0.0,1.3198,1.2354,1.3276,1.5827,1.6565,1.6512,1.577,1.5013,1.3276,1.0727,0.7108,0.5174,0.4453,0.3486,0.3111,0.0,0.3453,0.2101,0.0,0.0,0.0,0.0,0.0,0.0,0.0,0.0,-0.0359,-0.1074,-0.2637,-0.3579,-0.4083,-0.4097,-0.4737,-0.5584,-0.6421,-0.7396,-0.8368,-0.9054,-0.9517,-0.971,-0.9309,-0.951,-0.971,-0.9413,-0.8651,-0.7929,-0.7425,-0.5422,-0.3543,0.0,0.0,0.0,0.0,0.061,0.07,0.1457,-0.3684,-0.7994,-1.0303,-1.1808,-1.4777,-1.9781,-1.7089,-1.7853,-2.3233,-2.3605,-2.4128,-2.4994,-2.2783,-2.2513,-2.419,-2.3642,-2.2067,-1.9603,-1.6384,-1.4937,-1.5096,-1.831,-1.969,-1.9944,-2.2964,-2.5715,-2.8139,-2.9785,-3.0142,-2.9867,-3.0476,-3.0904,-3.119,1.3198,1.3198,0.0,0.0,0.0,0.0,0.0,1.4813,0.0,1.3837,0.0,1.3411,1.2822,1.1032,1.0797,1.301,0.0,1.3082,1.2826,1.2826,1.2826,1.2826,1.2826,1.2943,1.3198,1.1082,1.0446,0.0,1.0941,1.2307,1.5448,1.5448,1.5448,1.5389,1.3868,1.1982,0.9564,0.3488,0.1957,0.3581,0.3581,0.3581,0.3578,0.3265,0.1834,0.0,0.009,0.0045,0.0,0.0,0.0,0.0,-0.0135,-0.0895,-0.1834,-0.2433,-0.3342,-0.4199,-0.407,-0.5236,-0.6475,-0.6588,-0.7616,-0.885,-0.951,-0.971,-0.9762,-0.9666,-0.9762,-0.9614,-0.9061,-0.8876,-0.8352,-0.6685,-0.4583,0.0,0.0,0.0,0.0,0.0,0.0,0.0,0.35,-0.0046,-0.3728,-0.6802,-0.6693,-0.9457,-1.623,-1.3065,-1.4877,-2.3194,-2.3269,-2.3419,-2.3906,-2.1428,-2.1529,-2.417,-2.291,-2.1228,-1.9155,-1.4857,-1.2881,-1.3094,-1.7086,-1.915,-2.0093,-2.4788,-2.6691,-2.6935,-2.9289,-2.9713,-2.8894,-2.7949,-2.9282,-3.1562,1.3198,0.0,0.0,0.0,0.0,1.5289,1.3473,1.3523,1.4287,1.5715,1.5903,1.4551,1.0885,1.0131,1.0797,1.301,1.3198,0.0,0.0,0.0,0.0,1.0802,1.0802,1.1579,1.3163,0.9885,0.6234,0.2317,0.9274,1.3022,1.3648,1.3648,1.3648,1.3648,1.3323,1.2107,1.0039,0.7033,0.4924,0.3581,0.3581,0.3581,0.3401,0.1387,0.0359,0.0045,0.0583,0.0403,0.0,0.0,0.0,-0.0135,-0.0762,-0.1119,-0.1624,-0.3163,-0.3886,-0.422,-0.4147,-0.4911,-0.5814,-0.6421,-0.7235,-0.8103,-0.8798,-0.9413,-0.9666,-0.9113,-0.9413,-0.9762,-0.9666,-0.9452,-0.8673,-0.6876,-0.5531,0.0,0.0,0.0,0.0,0.0,0.0,0.1042,0.447,0.089,-0.1598,-0.1349,0.0726,-0.2974,-1.4332,-0.9337,-1.1547,-2.3351,-2.329,-2.2995,-2.2964,-2.2691,-2.3136,-2.417,-2.291,-2.0475,-1.698,-1.4179,-1.2881,-1.292,-1.3747,-1.6268,-2.0149,-2.4766,-2.6691,-2.6856,-2.8573,-2.9141,-2.9282,-3.1674,-3.2881,-3.3343,0.0,0.0,0.0,0.0,0.0,0.0,0.0,1.1689,1.2436,1.4511,1.4776,1.3523,1.0257,0.9905,1.0375,1.1584,1.1689,1.1319,1.0361,1.0283,1.0283,1.0283,1.0283,1.0725,1.1689,0.9066,0.5166,0.0,0.7849,1.2198,1.3198,1.3198,1.2638,1.1641,1.05,0.9458,0.844,0.6186,0.4618,0.349,0.2235,0.1744,0.1611,0.0449,0.0,0.0045,0.0324,0.0,-0.0556,-0.0556,-0.0556,-0.0697,-0.1469,-0.1952,-0.2344,-0.3237,-0.3818,-0.4212,-0.419,-0.5095,-0.6145,-0.6534,-0.745,-0.8374,-0.8699,-0.9061,-0.9211,-0.8857,-0.9061,-0.9263,-0.9263,-0.8547,-0.7547,-0.6211,-0.4345,0.0,0.0,0.0,0.2172,0.0,0.0,0.0,0.0,0.6288,0.5476,0.5107,0.6681,0.2362,-0.9658,-0.4758,-0.8226,-2.2759,-2.0252,-1.9612,-2.1697,-2.2693,-2.3544,-2.417,-2.1973,-1.8745,-1.4617,-1.343,-1.2465,-1.1792,-1.3468,-1.6328,-2.0143,-2.4789,-2.6691,-2.6841,-2.8412,-2.9293,-3.0127,-3.3449,-3.3562,-3.2034,0.0,1.4943,0.0,0.0,1.4484,1.4087,1.0794,1.0283,1.084,1.2378,1.2253,1.1508,1.0125,0.9995,1.006,1.0271,1.0283,1.0283,1.0283,1.0283,1.0283,1.0283,1.0283,1.0283,1.0283,0.8603,0.5886,0.2187,0.7627,1.0847,1.1902,1.2366,1.1509,0.95,0.728,0.6289,0.6161,0.436,0.3581,0.3401,0.0986,0.0,0.0,0.0,0.0,0.0,-0.0191,-0.0628,-0.1158,-0.1458,-0.1454,-0.1452,-0.2144,-0.2716,-0.3171,-0.3497,-0.3991,-0.446,-0.465,-0.5659,-0.6642,-0.6804,-0.7723,-0.8586,-0.8752,-0.8699,-0.8593,-0.8752,-0.8804,-0.8752,-0.8593,-0.7616,-0.6519,-0.545,-0.303,-0.0773,0.0,0.0,0.0,0.0,0.0,0.0,0.7858,1.0433,1.1582,1.0444,1.0318,0.5531,-0.5423,-0.2331,-0.7216,-2.2537,-1.8236,-1.6745,-1.8982,-2.1602,-2.3041,-2.3231,-2.083,-1.7034,-1.2008,-1.2008,-1.1529,-1.0807,-1.4016,-1.7639,-2.1531,-2.5217,-2.6889,-2.7313,-2.8759,-2.9788,-3.083,-3.3527,-3.2812,-3.051,0.0,0.0,0.0,0.0,0.0,1.0734,1.0342,1.0283,1.0361,1.0544,0.9184,0.8742,1.0096,1.0256,1.0288,1.0312,1.0283,1.0283,1.0283,1.0283,1.0283,1.0283,1.0283,1.0283,1.0283,0.8603,0.8252,0.9316,0.9961,0.9372,0.7612,0.964,0.9412,0.7224,0.4913,0.3928,0.3884,0.3711,0.3581,0.3401,0.0986,0.0,0.0,0.0,0.0,-0.0097,-0.0765,-0.1024,-0.131,-0.2646,-0.2671,-0.2203,-0.2811,-0.3066,-0.3388,-0.4687,-0.5159,-0.5366,-0.6182,-0.6465,-0.675,-0.745,-0.7723,-0.799,-0.8646,-0.8262,-0.7996,-0.8646,-0.8804,-0.8593,-0.7937,-0.767,-0.6897,-0.486,-0.3137,-0.1372,0.0824,0.0,0.2528,0.3224,0.0,0.0,0.3705,0.8214,1.1518,1.2435,0.9933,0.452,-0.4311,-0.5461,-1.1419,-2.3577,-2.0887,-1.7246,-1.3128,-1.9029,-2.1411,-2.0206,-1.9859,-1.6003,-0.9166,-0.9166,-0.9721,-1.0807,-1.4016,-1.9457,-2.6075,-2.6522,-2.7542,-2.8874,-2.9877,-3.0502,-3.0894,-3.1206,-3.1128,-3.0855,0.0,0.0,1.434,1.434,1.2089,1.0283,1.0283,1.0283,1.0283,1.0283,0.9687,0.9521,1.0205,1.0283,1.0283,1.0283,1.0283,1.0283,1.0283,1.0283,1.0283,1.0283,1.0283,1.0283,1.0283,0.9609,0.96,1.0283,0.8973,0.8252,0.8125,0.9619,0.8399,0.4918,0.4012,0.3581,0.349,0.2057,0.1432,0.1343,0.0404,0.0,0.0,0.0,-0.0289,-0.0697,-0.1012,-0.1693,-0.2503,-0.3077,-0.3149,-0.3019,-0.3726,-0.3962,-0.4131,-0.5148,-0.5436,-0.5614,-0.6401,-0.6588,-0.6804,-0.7509,-0.7343,-0.7235,-0.7996,-0.7563,-0.7128,-0.7402,-0.7503,-0.7396,-0.7074,-0.6691,-0.5801,-0.4036,-0.2485,-0.0606,0.2039,0.0,0.0,0.4438,0.0,0.7675,0.7241,0.9003,1.0785,1.2081,1.2249,0.8275,-0.0811,-0.2805,-0.9067,-2.0929,-2.0766,-1.9261,-1.6772,-1.5861,-1.5779,-1.6494,-1.6028,-1.2423,-0.6218,-0.6606,-0.9235,-1.3751,-1.8341,-2.2745,-2.6691,-2.6691,-2.7631,-2.9093,-3.0022,-3.047,-3.0593,-3.0593,-3.0593,-3.0593,1.2018,1.2119,1.2119,1.2119,1.1103,1.0283,1.0283,1.0283,1.0283,1.0283,1.0283,1.0283,1.0283,1.0283,1.0283,1.0283,1.0283,1.0283,1.0283,1.0283,1.0283,1.0283,1.0283,1.0283,1.0283,1.0283,1.0283,1.0283,0.808,0.7635,0.8784,0.8665,0.6904,0.3887,0.3887,0.3887,0.3693,0.1105,0.0,0.0,0.0,0.0,0.0,0.0,-0.0502,-0.1228,-0.1365,-0.2237,-0.3345,-0.3594,-0.3675,-0.3833,-0.4316,-0.4519,-0.468,-0.5546,-0.5651,-0.5706,-0.6691,-0.675,-0.675,-0.7235,-0.6966,-0.675,-0.7235,-0.6627,-0.5973,-0.5973,-0.6308,-0.6534,-0.6312,-0.5647,-0.4648,-0.2929,-0.1438,0.0498,0.3259,0.4249,0.0,0.5703,0.8107,0.9061,0.7433,0.7913,0.8114,0.748,0.9569,0.7755,0.0601,-0.43,-1.0712,-1.9057,-2.0825,-2.0225,-1.7212,-1.5272,-1.3738,-1.272,-1.2813,-1.0364,-0.5756,-0.6207,-0.9436,-1.4944,-2.0197,-2.4087,-2.6691,-2.6691,-2.7631,-2.9093,-3.0022,-3.0394,-3.0367,-3.0099,-3.0155,-3.0398,0.9902,1.0312,1.0312,1.0312,1.0293,1.0283,1.0283,1.0283,1.0283,1.0283,1.0283,1.0283,1.0283,1.0283,1.0283,1.0283,1.0283,1.0283,1.0283,1.0283,1.0283,1.0283,1.0283,1.0283,1.0283,1.0283,1.0283,1.0283,0.808,0.7635,0.8752,0.5919,0.456,0.4508,0.4508,0.4508,0.4284,0.1281,0.0,0.0,0.0,0.0,0.0,0.0,-0.0627,-0.1567,-0.2006,-0.2651,-0.3398,-0.4236,-0.446,-0.4515,-0.4519,-0.4519,-0.4791,-0.6154,-0.6091,-0.5814,-0.7283,-0.7128,-0.6588,-0.6588,-0.6588,-0.6588,-0.6588,-0.5475,-0.4426,-0.4426,-0.5588,-0.6367,-0.5651,-0.4925,-0.3704,-0.1496,0.0111,0.1826,0.4091,0.4946,0.0,0.6376,0.6998,0.5695,0.1502,0.3586,0.2921,-0.2422,-0.0396,0.0346,-0.1284,-1.2692,-1.9151,-1.9116,-2.1758,-1.9313,-1.1269,-1.8223,-1.7452,-0.8982,-1.1113,-1.092,-0.8671,-0.8725,-1.0308,-1.3194,-1.7811,-2.2437,-2.6691,-2.6691,-2.7631,-2.9093,-3.0022,-3.0394,-3.0286,-2.9357,-2.9607,-3.0398,1.0388,1.124,1.2051,1.2051,1.2051,1.165,1.0459,0.9013,0.8039,0.8039,0.9381,1.0732,1.1924,1.0996,0.9707,0.8203,0.9421,1.0283,1.0283,1.0283,1.0283,1.0283,1.0283,0.9588,0.808,0.9549,0.9549,0.8039,0.7349,0.6597,0.5878,0.4952,0.4519,0.4519,0.4519,0.4519,0.4463,0.3456,0.1906,0.0,0.0,0.0,-0.0105,-0.1136,-0.1476,-0.1643,-0.2575,-0.3479,-0.4181,-0.4405,-0.4519,-0.4519,-0.4519,-0.4519,-0.468,-0.5601,-0.5706,-0.5706,-0.6691,-0.6421,-0.5982,-0.6475,-0.5487,-0.4549,-0.498,-0.3935,-0.289,-0.289,-0.3277,-0.3553,-0.3279,-0.266,-0.1773,-0.0555,0.0444,0.1719,0.339,0.4682,0.4934,0.3698,0.6278,0.6463,0.2158,0.0712,-0.0587,-0.2192,-0.4742,-0.5367,-0.33,-0.8576,-1.3625,-1.7824,-1.9186,-1.9908,-2.0037,-2.0862,-1.7835,-1.1067,-1.0976,-0.9163,-0.5846,-0.5864,-0.7416,-1.0482,-1.6923,-2.0557,-2.208,-2.4145,-2.6579,-2.9123,-3.0296,-3.0601,-3.0286,-2.9355,-2.9185,-2.9456,1.1475,1.2139,1.2569,1.1551,1.2215,1.2168,1.0064,0.8543,0.7695,0.7695,0.8896,1.0152,1.1247,1.0403,0.8992,0.7139,0.8244,0.9053,0.9053,0.9053,0.9053,0.9053,0.9873,0.9262,0.7063,0.8366,0.8366,0.6979,0.6361,0.5535,0.4519,0.4519,0.4519,0.4519,0.4519,0.4519,0.4519,0.4519,0.2732,0.0,0.0,0.0,-0.0112,-0.1006,-0.1898,-0.2679,-0.3067,-0.3738,-0.4519,-0.4519,-0.4519,-0.446,-0.4181,-0.407,-0.4233,-0.5214,-0.5324,-0.5273,-0.5982,-0.5487,-0.4827,-0.5265,-0.4165,-0.3007,-0.3109,-0.2443,-0.1725,-0.1447,-0.1389,-0.1387,-0.1387,-0.0777,-0.0055,0.0721,0.1443,0.2334,0.3566,0.5179,0.5533,0.3646,0.573,0.5825,0.2052,-0.1458,-0.3929,-0.5094,-0.769,-0.8297,-0.6118,-0.8126,-1.1175,-1.526,-1.7074,-1.9577,-2.2957,-2.19,-1.7819,-1.0853,-0.9053,-0.6892,-0.4519,-0.4519,-0.6091,-0.9138,-1.5654,-1.9332,-2.0813,-2.2694,-2.5132,-2.7706,-2.8608,-2.8753,-2.8387,-2.7512,-2.797,-2.8994,1.2627,1.2627,1.181,0.9263,1.0897,1.1715,0.9099,0.8751,0.8804,0.8804,0.8804,0.8804,0.8804,0.8804,0.8357,0.7241,0.7068,0.6979,0.6979,0.6979,0.6979,0.6979,0.9035,0.9206,0.7063,0.7101,0.7012,0.6834,0.5259,0.4519,0.4519,0.4519,0.4519,0.4519,0.4519,0.4519,0.4519,0.4519,0.2732,0.0,0.0,0.0,0.0,0.0,-0.1786,-0.4239,-0.3297,-0.3572,-0.4349,-0.4349,-0.4349,-0.4236,-0.3511,-0.3289,-0.3508,-0.4882,-0.4835,-0.4457,-0.5105,-0.4333,-0.3289,-0.3234,-0.2619,-0.184,-0.1117,-0.089,-0.0666,0.0,0.0166,0.0166,0.0221,0.0829,0.1551,0.2213,0.2998,0.3732,0.446,0.6225,0.6892,0.5421,0.523,0.406,0.108,-0.2913,-0.6697,-1.0049,-0.9249,-0.8823,-0.9294,-1.0479,-1.1349,-1.1794,-1.5307,-1.8243,-2.0473,-2.1073,-1.6973,-0.8309,-0.5597,-0.4405,-0.4519,-0.4519,-0.5982,-0.8778,-1.4176,-1.8631,-2.2152,-2.2349,-2.3587,-2.5346,-2.557,-2.5493,-2.5149,-2.4442,-2.6245,-2.9017,0.9777,0.9777,0.9577,0.891,0.9316,0.9242,0.7673,0.8223,0.8804,0.8804,0.8804,0.8804,0.8804,0.8804,0.8691,0.841,0.7548,0.6979,0.6979,0.6979,0.6979,0.6979,0.84,0.8464,0.7041,0.7916,0.7296,0.5076,0.4714,0.4519,0.4519,0.4519,0.4519,0.4519,0.4519,0.4519,0.4519,0.4519,0.2732,0.0,0.0,0.0,0.0,0.0,-0.1118,-0.2788,-0.2961,-0.2903,-0.2732,-0.2732,-0.2732,-0.2732,-0.2565,-0.2454,-0.2508,-0.2894,-0.2896,-0.2785,-0.295,-0.273,-0.2454,-0.2454,-0.1503,-0.0334,0.0391,0.1004,0.1447,0.1615,0.167,0.1832,0.2432,0.3149,0.3649,0.3871,0.4488,0.5046,0.5214,0.5666,0.5367,0.3966,0.3724,0.2347,-0.1104,-0.3341,-0.5788,-0.8806,-0.8817,-0.8906,-0.9427,-0.8788,-0.8883,-0.9907,-1.321,-1.5126,-1.5514,-1.591,-1.1947,-0.3765,-0.3058,-0.3345,-0.4519,-0.4519,-0.4897,-0.591,-1.3289,-1.7932,-2.0483,-2.2785,-2.4487,-2.5593,-2.5445,-2.5011,-2.4444,-2.4266,-2.6245,-2.9093,0.8804,0.8804,0.8804,0.8804,0.8804,0.8591,0.7936,0.839,0.8804,0.8804,0.8804,0.8804,0.8804,0.8804,0.8804,0.8804,0.8216,0.7836,0.7836,0.7836,0.7836,0.7836,0.8464,0.8504,0.7856,0.7166,0.6091,0.4519,0.4519,0.4519,0.4519,0.4519,0.4519,0.4519,0.4519,0.3735,0.2454,0.2454,0.1507,0.0,0.0,0.0,0.0,0.0,-0.0504,-0.1285,-0.2068,-0.2289,-0.2174,-0.2174,-0.2174,-0.212,-0.1786,-0.1675,-0.1563,-0.0892,-0.1394,-0.2119,-0.1781,-0.1447,-0.1058,-0.0334,0.039,0.1113,0.1506,0.2174,0.273,0.2732,0.3282,0.3828,0.4207,0.4922,0.5307,0.498,0.5534,0.5869,0.5542,0.5454,0.4888,0.3479,0.2975,0.1597,-0.1394,-0.2707,-0.4422,-0.6929,-0.7197,-0.7344,-0.7616,-0.6634,-0.6812,-0.843,-1.023,-1.1247,-1.1441,-0.9003,-0.5531,-0.1169,-0.1172,-0.2009,-0.3456,-0.4181,-0.5896,-0.8696,-1.5176,-1.8612,-1.9954,-2.3322,-2.5011,-2.5479,-2.4989,-2.454,-2.419,-2.419,-2.5597,-2.7788,0.8804,0.8804,0.8804,0.8804,0.8804,0.8804,0.8804,0.8804,0.8804,0.8804,0.8804,0.8804,0.8804,0.8804,0.8804,0.8804,0.8804,0.8804,0.8804,0.8804,0.8804,0.8804,0.8804,0.8804,0.8804,0.5982,0.4519,0.4519,0.4519,0.4519,0.4519,0.4519,0.4519,0.4463,0.4015,0.2399,0.0,0.0,0.0,0.0,0.0,0.0,0.0,0.0,0.0,-0.0112,-0.0952,-0.1509,-0.1842,-0.1842,-0.1785,-0.1618,-0.0949,-0.067,-0.0335,0.0894,-0.0056,-0.1392,-0.0777,-0.0167,0.0668,0.2004,0.245,0.2561,0.267,0.3282,0.384,0.3895,0.4827,0.5706,0.5814,0.6362,0.6529,0.576,0.6357,0.6573,0.5651,0.5517,0.5004,0.3646,0.2711,0.1442,-0.0557,-0.1332,-0.2534,-0.4591,-0.4628,-0.457,-0.4588,-0.3878,-0.423,-0.5829,-0.6425,-0.6941,-0.7526,-0.2503,0.0223,0.0665,0.0447,-0.078,-0.2881,-0.3503,-0.7541,-1.4171,-1.8313,-2.0255,-2.0809,-2.4028,-2.5345,-2.5233,-2.4493,-2.419,-2.419,-2.419,-2.5179,-2.6914,0.8804,0.8804,0.8804,0.8804,0.8804,0.8804,0.8804,0.8804,0.8804,0.8804,0.8804,0.8804,0.8804,0.8804,0.8804,0.8804,0.8804,0.8804,0.8804,0.8804,0.8804,0.8804,0.8804,0.8804,0.8804,0.5982,0.4519,0.4519,0.4519,0.4519,0.4519,0.4519,0.4519,0.4405,0.1842,0.0448,0.0,0.0,0.0,0.0,0.0,0.0,0.0,0.0,0.0,0.0,-0.0168,-0.028,-0.0336,-0.0336,0.0056,0.0614,0.0726,0.1172,0.1729,0.1952,0.1783,0.156,0.1671,0.1782,0.206,0.2936,0.3597,0.4204,0.4848,0.5575,0.6091,0.6091,0.6258,0.6637,0.723,0.745,0.7289,0.6529,0.7528,0.7729,0.5756,0.5508,0.5163,0.431,0.3053,0.1836,0.0833,0.0665,-0.0055,-0.1638,-0.1205,-0.0823,-0.082,-0.0165,0.0657,0.1504,-0.1386,-0.2812,-0.2521,-0.0858,0.125,0.3681,0.2441,-0.0821,-0.5655,-0.2261,-0.7241,-1.8754,-2.0959,-2.2859,-2.4498,-2.5309,-2.5492,-2.5233,-2.4493,-2.419,-2.419,-2.419,-2.6691,-3.0176,0.8804,0.8804,0.8804,0.8804,0.8804,0.8804,0.8804,0.8804,0.8804,0.8804,0.8804,0.8804,0.8804,0.8804,0.8804,0.8804,0.8804,0.8804,0.8804,0.8804,0.8804,0.8804,0.7337,0.647,0.647,0.5171,0.4519,0.4519,0.4519,0.4519,0.4519,0.4519,0.3624,0.2009,0.0615,0.0,0.0,0.0,0.0,0.0,0.0,0.0,0.0,0.0,0.0504,0.1174,0.0895,0.0951,0.1174,0.1174,0.1396,0.1675,0.1675,0.1952,0.2341,0.3166,0.3113,0.2952,0.3277,0.3663,0.4158,0.4867,0.5307,0.5692,0.6018,0.6357,0.6691,0.7047,0.7469,0.7847,0.8171,0.8547,0.8343,0.6853,0.7492,0.7528,0.5756,0.5132,0.4794,0.4426,0.3111,0.2062,0.1725,0.2052,0.1657,0.022,0.1482,0.203,0.1206,0.2252,0.3343,0.4338,0.2768,0.2002,0.2204,0.33,0.4314,0.5127,0.396,0.0378,-0.5241,-0.64,-1.2519,-2.2201,-2.354,-2.4659,-2.552,-2.5481,-2.542,-2.5233,-2.4493,-2.419,-2.4266,-2.4651,-2.7384,-3.0898,0.8804,0.8804,0.8804,0.8804,0.8804,0.8804,0.8804,0.8804,0.8804,0.8804,0.8804,0.8804,0.8804,0.8804,0.8804,0.8804,0.8804,0.8804,0.8804,0.8804,0.848,0.7824,0.566,0.4519,0.4519,0.4519,0.4519,0.4519,0.4519,0.4519,0.4519,0.4519,0.2899,0.0,0.0,0.0,0.0,0.0,0.0,0.0,0.0,0.0,0.0,0.0,0.0895,0.2174,0.2176,0.2176,0.2174,0.2174,0.2286,0.2454,0.2454,0.2728,0.3169,0.432,0.4436,0.4278,0.4761,0.5311,0.5928,0.6691,0.6858,0.6912,0.7074,0.7128,0.7278,0.7988,0.8574,0.8947,0.8947,0.9429,0.9072,0.6961,0.7337,0.7326,0.5542,0.5089,0.486,0.4703,0.3663,0.3058,0.3224,0.371,0.3591,0.2487,0.3963,0.4501,0.3501,0.4389,0.5309,0.6134,0.5896,0.6053,0.6767,0.7616,0.7407,0.612,0.528,0.1492,-0.494,-1.1407,-1.7541,-2.3155,-2.4929,-2.5661,-2.5595,-2.5376,-2.5303,-2.5243,-2.4682,-2.4459,-2.4508,-2.5084,-2.7634,-3.0799,0.8804,0.8804,0.8804,0.8804,0.8804,0.8804,0.8804,0.8804,0.8804,0.8804,0.8804,0.8804,0.8804,0.8804,0.8804,0.8804,0.8804,0.8804,0.8804,0.8804,0.7605,0.4952,0.4625,0.4519,0.4519,0.4519,0.4519,0.4519,0.4519,0.4519,0.4519,0.4519,0.2899,0.0,0.0,0.0,0.0,0.0,0.0,0.0,0.0,0.0,0.0,0.0,0.0895,0.2397,0.379,0.34,0.2174,0.2174,0.2676,0.3231,0.3289,0.4223,0.5265,0.5374,0.5869,0.6367,0.6421,0.6475,0.6696,0.745,0.7616,0.7777,0.848,0.8646,0.885,0.9503,0.9703,0.9703,0.9703,0.9762,0.9072,0.6961,0.7741,0.767,0.4948,0.5638,0.6166,0.5483,0.532,0.5538,0.6199,0.6308,0.6308,0.6195,0.6362,0.6671,0.7164,0.672,0.7036,0.8423,0.7524,0.8429,1.1195,1.0764,0.9394,0.7087,0.6508,0.1893,-0.653,-1.4851,-1.903,-1.9889,-2.3946,-2.5558,-2.5321,-2.5303,-2.5303,-2.5284,-2.5243,-2.5222,-2.5233,-2.5274,-2.7488,-3.0482,0.8427,0.8804,0.8804,0.8804,0.8804,0.8804,0.8804,0.8804,0.8804,0.8804,0.8804,0.8804,0.8804,0.8804,0.8804,0.8804,0.7176,0.6145,0.6145,0.6145,0.566,0.4574,0.4519,0.4519,0.4519,0.4519,0.4519,0.4519,0.4519,0.4519,0.4519,0.4519,0.3901,0.2788,0.2788,0.2788,0.2788,0.2788,0.2788,0.2788,0.2788,0.2788,0.2788,0.2788,0.3121,0.368,0.4294,0.4125,0.3624,0.3624,0.4116,0.4663,0.4718,0.5374,0.6253,0.674,0.7396,0.7943,0.7943,0.7919,0.8059,0.8817,0.9332,0.9688,0.9961,1.0064,1.021,1.0914,1.072,1.0415,1.0415,1.0064,0.9235,0.7551,0.7706,0.754,0.6041,0.6253,0.6352,0.5597,0.5928,0.6091,0.5928,0.6745,0.7074,0.6642,0.745,0.8084,0.8252,0.9283,1.025,1.1189,1.1886,1.275,1.3928,1.348,1.1496,0.803,0.5233,-0.0866,-0.9825,-1.4472,-1.7532,-1.9406,-2.3802,-2.5636,-2.5539,-2.5371,-2.5303,-2.5303,-2.5303,-2.5303,-2.5243,-2.478,-2.7058,-3.0414,0.8262,0.8804,0.8804,0.8804,0.8804,0.8804,0.8804,0.8804,0.8804,0.8804,0.8804,0.8804,0.8804,0.8804,0.8427,0.7557,0.566,0.4519,0.4519,0.4519,0.4519,0.4519,0.4519,0.4519,0.4519,0.4519,0.4519,0.4519,0.4519,0.4519,0.4519,0.4519,0.4519,0.4519,0.4519,0.4519,0.4519,0.4519,0.4519,0.4519,0.4519,0.4519,0.4519,0.4519,0.4519,0.4519,0.4519,0.468,0.4948,0.4948,0.5328,0.5873,0.5873,0.6362,0.7128,0.8084,0.8732,0.9159,0.9361,0.9533,0.9717,0.9806,1.0312,1.0813,1.0813,1.0813,1.1015,1.1665,1.1266,1.0813,1.0813,1.0261,0.9347,0.7931,0.7723,0.745,0.6696,0.6588,0.6475,0.6249,0.6632,0.6853,0.6573,0.7444,0.7931,0.7646,0.8567,0.9197,0.9356,1.1332,1.2541,1.2764,1.4481,1.5478,1.5668,1.5164,1.2394,0.7498,0.5591,-0.1279,-1.2456,-1.3368,-1.6282,-2.0824,-2.4139,-2.5629,-2.5683,-2.5508,-2.5441,-2.5427,-2.533,-2.5956,-2.6795,-2.5986,-2.7512,-3.0007,0.8209,0.8804,0.8804,0.8804,0.8804,0.8804,0.8804,0.8804,0.8804,0.8804,0.8804,0.8804,0.8752,0.8752,0.761,0.4736,0.4519,0.4519,0.4519,0.4519,0.4519,0.4519,0.4519,0.4519,0.4519,0.4519,0.4519,0.4519,0.4519,0.4519,0.4519,0.4519,0.4519,0.4519,0.4519,0.4519,0.4519,0.4519,0.4519,0.4519,0.4519,0.4519,0.4519,0.4519,0.4519,0.4519,0.4519,0.5113,0.5919,0.5919,0.6199,0.6588,0.6588,0.7128,0.7984,0.9399,0.9814,0.9969,1.0618,1.1266,1.1466,1.0167,1.0312,1.0813,1.0813,1.0813,1.1015,1.1665,1.1266,1.0813,1.0813,1.0261,0.9347,0.7931,0.7723,0.7456,0.6696,0.6642,0.6912,0.7616,0.7723,0.799,0.8752,0.8804,0.9106,0.9762,0.9814,1.0115,1.0813,1.2735,1.3464,1.2744,1.4585,1.5864,1.6466,1.5668,1.1842,0.5105,0.8247,0.1383,-1.3934,-1.2048,-1.5851,-2.403,-2.4919,-2.5453,-2.5703,-2.5703,-2.5703,-2.5662,-2.5406,-2.736,-3.0248,-2.9357,-2.9017,-2.9138,0.5605,0.7391,0.8804,0.8804,0.8804,0.8804,0.8804,0.8804,0.8804,0.8804,0.8804,0.8043,0.5982,0.5764,0.5441,0.457,0.4519,0.4519,0.4519,0.4519,0.4519,0.4519,0.4519,0.4519,0.4519,0.4519,0.4519,0.4519,0.4519,0.4519,0.4519,0.4519,0.4519,0.4519,0.4519,0.4519,0.4519,0.4519,0.4519,0.4519,0.4519,0.4519,0.4519,0.4519,0.4519,0.4519,0.4519,0.5003,0.5756,0.6632,0.7122,0.745,0.799,0.8321,0.8633,0.9562,0.9814,0.9969,1.0618,1.1266,1.1715,1.1316,1.1733,1.2255,1.2255,1.2255,1.2304,1.251,1.1981,1.1366,1.0864,1.0261,0.951,0.8639,0.848,0.8374,0.8156,0.8156,0.8196,0.8383,0.8862,0.9228,0.9408,0.9887,1.0458,1.1073,1.163,1.2171,1.2792,1.3453,1.4086,1.4733,1.5297,1.4934,1.3656,1.3394,0.995,0.3385,0.2571,-0.3742,-1.4714,-1.7006,-1.9797,-2.29,-2.4582,-2.534,-2.5427,-2.5427,-2.5427,-2.542,-2.533,-2.5918,-2.707,-2.9208,-2.957,-2.9138,0.4519,0.5928,0.7122,0.7122,0.7122,0.7122,0.7122,0.7122,0.7122,0.7122,0.7122,0.6416,0.468,0.4519,0.4519,0.4519,0.4519,0.4519,0.4519,0.4519,0.4519,0.4519,0.4519,0.4519,0.4519,0.4519,0.4519,0.4519,0.4519,0.4519,0.4519,0.4519,0.4519,0.4519,0.4519,0.4519,0.4519,0.4519,0.4519,0.4519,0.4519,0.4519,0.4519,0.4519,0.5222,0.6145,0.5555,0.5982,0.6897,0.767,0.8203,0.8613,0.9047,0.9361,0.971,1.0415,1.061,1.0795,1.1668,1.2059,1.2274,1.2432,1.2807,1.3086,1.292,1.3008,1.3076,1.291,1.2295,1.166,1.1106,1.0473,0.9795,0.9241,0.9051,0.8978,0.8978,0.9083,0.9197,0.9117,0.974,1.0202,1.0163,1.073,1.1522,1.2435,1.3137,1.3726,1.41,1.4122,1.4595,1.5588,1.5365,1.3694,1.0498,0.8964,0.6146,0.2086,-0.0554,-0.6897,-1.6478,-2.0743,-2.2554,-2.2436,-2.455,-2.5391,-2.5303,-2.5303,-2.5303,-2.5303,-2.5303,-2.613,-2.7574,-2.9709,-3.0119,-2.969,0.4519,0.4563,0.458,0.4525,0.4519,0.4519,0.4519,0.4519,0.4519,0.4519,0.4519,0.4519,0.4519,0.4519,0.4519,0.4519,0.4519,0.4519,0.4519,0.4519,0.4519,0.4519,0.4519,0.4519,0.4519,0.4519,0.4519,0.4519,0.4519,0.4519,0.4519,0.4519,0.4519,0.4519,0.4519,0.4519,0.4519,0.4519,0.4519,0.4519,0.4519,0.4519,0.4519,0.4625,0.6253,0.8315,0.7128,0.7563,0.8699,0.8758,0.9263,0.9814,0.9917,1.0364,1.0914,1.1616,1.1841,1.2109,1.3186,1.3232,1.3027,1.3408,1.3535,1.3447,1.2988,1.3174,1.335,1.3008,1.24,1.1844,1.1447,1.0833,1.0291,0.9806,0.9432,0.9239,0.9294,0.9606,0.9865,0.9969,1.0517,1.0965,1.1057,1.167,1.257,1.3825,1.4527,1.488,1.4915,1.4869,1.5096,1.5676,1.4926,1.2103,0.7134,0.3034,0.076,0.0288,-0.2372,-0.8974,-1.8987,-2.3319,-2.4295,-2.2694,-2.4788,-2.5547,-2.5284,-2.5233,-2.5243,-2.5303,-2.5303,-2.7187,-3.0001,-3.0464,-3.0623,-3.0567,0.4519,0.4903,0.5078,0.4601,0.4519,0.4519,0.4519,0.4519,0.4519,0.4519,0.4519,0.4519,0.4519,0.4519,0.4519,0.4519,0.4519,0.4519,0.4519,0.4519,0.4519,0.4519,0.4519,0.4519,0.4519,0.4519,0.4519,0.4519,0.4519,0.4519,0.4519,0.4519,0.4519,0.4519,0.4519,0.4519,0.4519,0.4519,0.4519,0.4519,0.4519,0.4519,0.4625,0.5719,0.6199,0.6303,0.6966,0.7509,0.8049,0.8586,0.9263,0.9969,1.083,1.0973,1.0914,1.1616,1.2049,1.2544,1.3272,1.3437,1.3389,1.3486,1.375,1.3799,1.3047,1.2949,1.3086,1.332,1.3258,1.2852,1.1932,1.1668,1.1152,0.9897,0.9432,0.9398,0.9995,0.9917,1.0167,1.1266,1.1516,1.2003,1.3034,1.4125,1.5027,1.5748,1.5935,1.6262,1.6701,1.6305,1.6102,1.6281,1.4092,0.9928,0.381,-0.2221,-0.5621,-0.6414,-0.8367,-1.3582,-2.1553,-2.4126,-2.5061,-2.4688,-2.5383,-2.5547,-2.5253,-2.4682,-2.478,-2.5303,-2.5303,-2.5745,-2.6776,-2.9741,-3.0834,-3.0813,0.4893,0.4975,0.4893,0.4573,0.4519,0.4615,0.4906,0.4951,0.4848,0.4556,0.4519,0.4519,0.4519,0.4779,0.4834,0.4543,0.4783,0.4828,0.4536,0.479,0.4951,0.4951,0.4673,0.4519,0.4519,0.4519,0.4519,0.4519,0.4519,0.4519,0.4519,0.4519,0.4519,0.4519,0.4519,0.4519,0.4519,0.4519,0.4519,0.4519,0.4519,0.5332,0.6578,0.6583,0.6799,0.7117,0.745,0.7836,0.8262,0.8646,0.9008,0.9562,1.1032,1.1642,1.1927,1.2469,1.2795,1.3119,1.3898,1.3965,1.3857,1.4062,1.4121,1.3912,1.333,1.3496,1.3789,1.3809,1.3809,1.344,1.2335,1.2451,1.2224,1.0624,1.0415,1.0642,1.1021,1.1104,1.142,1.2322,1.2991,1.385,1.4951,1.583,1.6479,1.6799,1.6828,1.6954,1.7271,1.6769,1.6343,1.6095,1.338,0.9073,0.3004,-0.2499,-0.8135,-1.3882,-1.6068,-1.9493,-2.3959,-2.5004,-2.5498,-2.5493,-2.5494,-2.5239,-2.4737,-2.4375,-2.4617,-2.5303,-2.5303,-2.6303,-2.7991,-3.0111,-3.0898,-3.0898,0.5329,0.4937,0.4549,0.4656,0.4673,0.4807,0.5209,0.536,0.5246,0.4738,0.4673,0.4673,0.4673,0.5123,0.5226,0.4718,0.5137,0.5212,0.4707,0.5147,0.5428,0.5428,0.4941,0.4625,0.4519,0.4519,0.4519,0.4519,0.4519,0.4519,0.4519,0.4519,0.4519,0.4519,0.4519,0.4519,0.4519,0.4519,0.4625,0.4846,0.4846,0.6362,0.8427,0.7402,0.767,0.8533,0.8049,0.8262,0.8804,0.8804,0.891,0.9368,1.1183,1.2255,1.2959,1.3379,1.3555,1.3789,1.457,1.4521,1.4326,1.4697,1.4512,1.417,1.3896,1.4268,1.459,1.4307,1.4248,1.3929,1.2905,1.3264,1.3197,1.1659,1.1773,1.2049,1.2161,1.2412,1.283,1.3411,1.4789,1.5953,1.6621,1.733,1.7748,1.7879,1.7717,1.7663,1.7756,1.7054,1.6362,1.5763,1.2068,0.7811,0.3101,-0.2658,-1.0453,-2.0175,-2.2725,-2.4566,-2.5703,-2.5703,-2.5662,-2.5629,-2.5398,-2.4877,-2.419,-2.419,-2.4556,-2.5176,-2.5887,-2.7952,-3.0528,-3.0801,-3.0898,-3.0898,0.5411,0.4937,0.4683,0.5212,0.5305,0.5154,0.4707,0.5088,0.5397,0.5315,0.5305,0.5305,0.5305,0.5377,0.5394,0.5312,0.538,0.5391,0.5312,0.538,0.5428,0.5428,0.5349,0.5058,0.4529,0.4519,0.4519,0.4519,0.4519,0.4519,0.4519,0.4519,0.4519,0.4519,0.4519,0.4519,0.4519,0.4519,0.5226,0.6317,0.6317,0.6804,0.7676,0.8268,0.8209,0.7937,0.848,0.8699,0.8804,0.8804,0.9361,1.032,1.2157,1.2774,1.2959,1.3379,1.3769,1.415,1.4648,1.4746,1.4717,1.4775,1.4746,1.4775,1.5088,1.4668,1.4307,1.4629,1.4697,1.4534,1.406,1.4073,1.3835,1.2874,1.2629,1.2687,1.3318,1.3148,1.35,1.4748,1.6634,1.784,1.7953,1.9017,1.9906,2.0398,1.9446,1.9058,1.9539,1.8051,1.6931,1.6288,0.8565,0.3781,0.2515,-0.9452,-1.7651,-2.1959,-2.4019,-2.5247,-2.5703,-2.5703,-2.5564,-2.5346,-2.5313,-2.4877,-2.419,-2.419,-2.4247,-2.4705,-2.8313,-3.0176,-3.0832,-3.0878,-3.0898,-3.0898,0.5428,0.5209,0.5109,0.538,0.5428,0.5336,0.5068,0.5253,0.5428,0.5428,0.5428,0.5428,0.5428,0.5428,0.5428,0.5428,0.5428,0.5428,0.5428,0.5428,0.5428,0.5428,0.5428,0.5301,0.503,0.5027,0.4858,0.4519,0.4519,0.4519,0.4519,0.4519,0.4519,0.4519,0.4519,0.4519,0.4519,0.4519,0.4846,0.55,0.6263,0.7235,0.8209,0.8646,0.8593,0.8374,0.8699,0.8804,0.9008,1.0592,1.2009,1.3132,1.3461,1.3691,1.392,1.4141,1.4355,1.459,1.5019,1.5137,1.5195,1.5439,1.5557,1.5547,1.5732,1.5674,1.5566,1.5508,1.5303,1.5023,1.4656,1.4726,1.4628,1.3786,1.3763,1.3921,1.4214,1.4525,1.5423,1.7456,1.8522,1.9198,1.9655,2.0202,2.0434,2.0344,1.9249,1.869,1.8946,1.7617,1.6411,1.5464,0.9346,0.2497,-0.4946,-1.2744,-1.8891,-2.3375,-2.3842,-2.4327,-2.4768,-2.5336,-2.5561,-2.5522,-2.5363,-2.4877,-2.4228,-2.4632,-2.4809,-2.5191,-2.8938,-3.0593,-3.0898,-3.0898,-3.0898,-3.0898]},{"header":{"parameterUnit":"m.s-1","parameterCategory":1,"la1":30.6,"la2":28.766,"lo1":-90.7593,"lo2":-88.6598,"dy":0.0162,"dx":0.0183,"nx":116,"ny":114,"refTime":"2024-04-30T06:00:00:Z","depth":0,"parameterNumber":3,"parameterNumberName":"V-component_of_WINDS"},"data":[0.0,0.0,0.0,0.0,0.0,0.0,0.0,0.0,0.0,0.0,0.0,0.0,0.0,0.0,0.0,0.0,0.0,0.0,0.0,0.0,0.0,0.0,0.0,0.0,0.0,0.0,0.0,0.0,0.0,0.0,0.0,0.0,0.0,0.0,0.0,0.0,0.0,0.0,0.0,0.0,0.0,0.0,0.0,0.0,0.0,0.0,0.0,0.0,0.0,0.0,0.0,0.0,0.0,0.0,0.0,0.0,0.0,0.0,0.0,0.0,0.0,0.0,0.0,0.0,0.0,0.0,0.0,0.0,0.0,0.0,0.0,0.0,0.0,0.0,0.0,0.0,0.0,0.0,0.0,0.0,0.0,0.0,0.0,0.0,0.0,0.0,0.0,0.0,0.0,0.0,0.0,0.0,0.0,0.0,0.0,0.0,0.0,0.0,0.0,0.0,0.0,0.0,0.0,0.0,0.0,0.0,0.0,0.0,0.0,0.0,0.0,0.0,0.0,0.0,0.0,0.0,0.0,0.0,0.0,0.0,0.0,0.0,0.0,0.0,0.0,0.0,0.0,0.0,0.0,0.0,0.0,0.0,0.0,0.0,0.0,0.0,0.0,0.0,0.0,0.0,0.0,0.0,0.0,0.0,0.0,0.0,0.0,0.0,0.0,0.0,0.0,0.0,0.0,0.0,0.0,0.0,0.0,0.0,0.0,0.0,0.0,0.0,0.0,0.0,0.0,0.0,0.0,0.0,0.0,0.0,0.0,0.0,0.0,0.0,0.0,0.0,0.0,0.0,0.0,0.0,0.0,0.0,0.0,0.0,0.0,0.0,0.0,0.0,0.0,0.0,0.0,0.0,0.0,0.0,0.0,0.0,0.0,0.0,0.0,0.0,0.0,0.0,0.0,0.0,0.0,0.0,0.0,0.0,0.0,0.0,0.0,0.0,0.0,0.0,0.0,0.0,0.0,0.0,0.0,0.0,0.0,0.0,0.0,0.0,0.0,0.0,0.0,0.0,0.0,0.0,0.0,0.0,0.0,0.0,0.0,0.0,0.0,0.0,0.0,0.0,0.0,0.0,0.0,0.0,0.0,0.0,0.0,0.0,0.0,0.0,0.0,0.0,0.0,0.0,0.0,0.0,0.0,0.0,0.0,0.0,0.0,0.0,0.0,0.0,0.0,0.0,0.0,0.0,0.0,0.0,0.0,0.0,0.0,0.0,0.0,0.0,0.0,0.0,0.0,0.0,0.0,0.0,0.0,0.0,0.0,0.0,0.0,0.0,0.0,0.0,0.0,0.0,0.0,0.0,0.0,0.0,0.0,0.0,0.0,0.0,0.0,0.0,0.0,0.0,0.0,0.0,0.0,0.0,0.0,0.0,0.0,0.0,0.0,0.0,0.0,0.0,0.0,0.0,0.0,0.0,0.0,0.0,0.0,0.0,0.0,0.0,0.0,0.0,0.0,0.0,0.0,0.0,0.0,0.0,0.0,0.0,0.0,0.0,0.0,0.0,0.0,0.0,0.0,0.0,0.0,0.0,0.0,0.0,0.0,0.0,0.0,0.0,0.0,0.0,0.0,0.0,0.0,0.0,0.0,0.0,0.0,0.0,0.0,0.0,0.0,0.0,0.0,0.0,0.0,0.0,0.0,0.0,0.0,0.0,0.0,0.0,0.0,0.0,0.0,0.0,0.0,0.0,0.0,0.0,0.0,0.0,0.0,0.0,0.0,0.0,0.0,0.0,0.0,0.0,0.0,0.0,0.0,0.0,0.0,0.0,0.0,0.0,0.0,0.0,0.0,0.0,0.0,0.0,0.0,0.0,0.0,0.0,0.0,0.0,0.0,0.0,0.0,0.0,0.0,0.0,0.0,0.0,0.0,0.0,0.0,0.0,0.0,0.0,0.0,0.0,0.0,0.0,0.0,0.0,0.0,0.0,0.0,0.0,0.0,0.0,0.0,0.0,0.0,0.0,0.0,0.0,0.0,0.0,0.0,0.0,0.0,0.0,0.0,0.0,0.0,0.0,0.0,0.0,0.0,0.0,0.0,0.0,0.0,0.0,0.0,0.0,0.0,0.0,0.0,0.0,0.0,0.0,0.0,0.0,0.0,0.0,0.0,0.0,0.0,0.0,0.0,0.0,0.0,0.0,0.0,0.0,0.0,0.0,0.0,0.0,0.0,0.0,0.0,0.0,0.0,0.0,0.0,0.0,0.0,0.0,0.0,0.0,0.0,0.0,0.0,0.0,0.0,0.0,0.0,0.0,0.0,0.0,0.0,0.0,0.0,0.0,0.0,0.0,0.0,0.0,0.0,0.0,0.0,0.0,0.0,0.0,0.0,0.0,0.0,0.0,0.0,0.0,0.0,0.0,0.0,0.0,0.0,0.0,0.0,0.0,0.0,0.0,0.0,0.0,0.0,0.0,0.0,0.0,0.0,0.0,0.0,0.0,0.0,0.0,0.0,0.0,0.0,0.0,0.0,0.0,0.0,0.0,0.0,0.0,0.0,0.0,0.0,0.0,0.0,0.0,0.0,0.0,0.0,0.0,0.0,0.0,0.0,0.0,0.0,0.0,0.0,0.0,0.0,0.0,0.0,0.0,0.0,0.0,0.0,0.0,0.0,0.0,0.0,0.0,0.0,0.0,0.0,0.0,0.0,0.0,0.0,0.0,0.0,0.0,0.0,0.0,0.0,0.0,0.0,0.0,0.0,0.0,0.0,0.0,0.0,0.0,0.0,0.0,0.0,0.0,0.0,0.0,0.0,0.0,0.0,0.0,0.0,0.0,0.0,0.0,0.0,0.0,0.0,0.0,0.0,0.0,0.0,0.0,0.0,0.0,0.0,0.0,0.0,0.0,0.0,0.0,0.0,0.0,0.0,0.0,0.0,0.0,0.0,0.0,0.0,0.0,0.0,0.0,0.0,0.0,0.0,0.0,0.0,0.0,0.0,0.0,0.0,0.0,0.0,0.0,0.0,0.0,0.0,0.0,0.0,0.0,0.0,0.0,0.0,0.0,0.0,0.0,0.0,0.0,0.0,0.0,0.0,0.0,0.0,0.0,0.0,0.0,0.0,0.0,0.0,0.0,0.0,0.0,0.0,0.0,0.0,0.0,0.0,0.0,0.0,0.0,0.0,0.0,0.0,0.0,0.0,0.0,0.0,0.0,0.0,0.0,0.0,0.0,0.0,0.0,0.0,0.0,0.0,0.0,0.0,0.0,0.0,0.0,0.0,0.0,0.0,0.0,0.0,0.0,0.0,0.0,0.0,0.0,0.0,0.0,0.0,0.0,0.0,0.0,0.0,0.0,0.0,0.0,0.0,0.0,0.0,0.0,0.0,0.0,0.0,0.0,0.0,0.0,0.0,0.0,0.0,0.0,0.0,0.0,0.0,0.0,0.0,0.0,0.0,0.0,0.0,0.0,0.0,0.0,0.0,0.0,0.0,0.0,0.0,0.0,0.0,0.0,0.0,0.0,0.0,0.0,0.0,0.0,0.0,0.0,0.0,0.0,0.0,0.0,0.0,0.0,0.0,0.0,0.0,0.0,0.0,0.0,0.0,0.0,0.0,0.0,0.0,0.0,0.0,0.0,0.0,0.0,0.0,0.0,0.0,0.0,0.0,0.0,0.0,0.0,0.0,0.0,0.0,0.0,0.0,0.0,0.0,0.0,0.0,0.0,0.0,0.0,0.0,0.0,0.0,0.0,0.0,0.0,0.0,0.0,0.0,0.0,0.0,0.0,0.0,0.0,0.0,0.0,0.0,0.0,0.0,0.0,0.0,0.0,0.0,0.0,0.0,0.0,0.0,0.0,0.0,0.0,0.0,0.0,0.0,0.0,0.0,0.0,0.0,0.0,0.0,0.0,0.0,0.0,0.0,0.0,0.0,0.0,0.0,0.0,0.0,0.0,0.0,0.0,0.0,0.0,0.0,0.0,0.0,0.0,0.0,0.0,0.0,0.0,0.0,0.0,0.0,0.0,0.0,0.0,0.0,0.0,0.0,0.0,0.0,0.0,0.0,0.0,0.0,0.0,0.0,0.0,0.0,0.0,0.0,0.0,0.0,0.0,0.0,0.0,0.0,0.0,0.0,0.0,0.0,0.0,0.0,0.0,0.0,0.0,0.0,0.0,0.0,0.0,0.0,0.0,0.0,0.0,0.0,0.0,0.0,0.0,0.0,0.0,0.0,0.0,0.0,0.0,0.0,0.0,0.0,0.0,0.0,0.0,0.0,0.0,0.0,0.0,0.0,0.0,0.0,0.0,0.0,0.0,0.0,0.0,0.0,0.0,0.0,0.0,0.0,0.0,0.0,0.0,0.0,0.0,0.0,0.0,0.0,0.0,0.0,0.0,0.0,0.0,0.0,0.0,0.0,0.0,0.0,0.0,0.0,0.0,0.0,0.0,0.0,0.0,0.0,0.0,0.0,0.0,0.0,0.0,0.0,0.0,0.0,0.0,0.0,0.0,0.0,0.0,0.0,0.0,0.0,0.0,0.0,0.0,0.0,0.0,0.0,0.0,0.0,0.0,0.0,0.0,0.0,0.0,0.0,0.0,0.0,0.0,0.0,0.0,0.0,0.0,0.0,0.0,0.0,0.0,0.0,0.0,0.0,0.0,0.0,0.0,0.0,0.0,0.0,0.0,0.0,0.0,0.0,0.0,0.0,0.0,0.0,0.0,0.0,0.0,0.0,0.0,0.0,0.0,0.0,0.0,0.0,0.0,0.0,0.0,0.0,0.0,0.0,0.0,0.0,0.0,0.0,0.0,0.0,0.0,0.0,0.0,0.0,0.0,0.0,0.0,0.0,0.0,0.0,0.0,0.0,0.0,0.0,0.0,0.0,0.0,0.0,0.0,0.0,0.0,0.0,0.0,0.0,0.0,0.0,0.0,0.0,0.0,0.0,0.0,0.0,0.0,0.0,0.0,0.0,0.0,0.0,0.0,0.0,0.0,0.0,0.0,0.0,0.0,0.0,0.0,0.0,0.0,0.0,0.0,0.0,0.0,0.0,0.0,0.0,0.0,0.0,0.0,0.0,0.0,0.0,0.0,0.0,0.0,0.0,0.0,0.0,0.0,0.0,0.0,0.0,0.0,0.0,0.0,0.0,0.0,0.0,0.0,0.0,0.0,0.0,0.0,0.0,0.0,0.0,0.0,0.0,0.0,0.0,0.0,0.0,0.0,0.0,0.0,0.0,0.0,0.0,0.0,0.0,0.0,0.0,0.0,0.0,0.0,0.0,0.0,0.0,0.0,0.0,0.0,0.0,0.0,0.0,0.0,0.0,0.0,0.0,0.0,0.0,0.0,0.0,0.0,0.0,0.0,0.0,0.0,0.0,0.0,0.0,0.0,0.0,0.0,0.0,0.0,0.0,0.0,0.0,0.0,0.0,0.0,0.0,0.0,0.0,0.0,0.0,0.0,0.0,0.0,0.0,0.0,0.0,0.0,0.0,0.0,0.0,0.0,0.0,0.0,0.0,0.0,0.0,0.0,0.0,0.0,0.0,0.0,0.0,0.0,0.0,0.0,0.0,0.0,0.0,0.0,0.0,0.0,0.0,0.0,0.0,0.0,0.0,0.0,0.0,0.0,0.0,0.0,0.0,0.0,0.0,0.0,0.0,0.0,0.0,0.0,0.0,0.0,0.0,0.0,0.0,0.0,0.0,0.0,0.0,0.0,0.0,0.0,0.0,0.0,0.0,0.0,0.0,0.0,0.0,0.0,0.0,0.0,0.0,0.0,0.0,0.0,0.0,0.0,0.0,0.0,0.0,0.0,0.0,0.0,0.0,0.0,0.0,0.0,0.0,0.0,0.0,0.0,0.0,0.0,0.0,0.0,0.0,0.0,0.0,0.0,0.0,0.0,0.0,0.0,0.0,0.0,0.0,0.0,0.0,0.0,0.0,0.0,0.0,0.0,0.0,0.0,0.0,0.0,0.0,0.0,0.0,0.0,0.0,0.0,0.0,0.0,0.0,0.0,0.0,0.0,0.0,0.0,0.0,0.0,0.0,0.0,0.0,0.0,0.0,0.0,0.0,0.0,0.0,0.0,0.0,0.0,0.0,0.0,0.0,0.0,0.0,0.0,0.0,0.0,0.0,0.0,0.0,0.0,-1.623,-1.7468,0.0,0.0,0.0,0.0,0.0,0.0,0.0,0.0,0.0,0.0,0.0,0.0,0.0,0.0,0.0,0.0,0.0,0.0,0.0,0.0,0.0,0.0,0.0,-0.0736,-0.0916,-0.0875,-0.033,0.0,0.0,0.0,-0.0403,-0.1276,-0.1373,-0.1807,-0.2679,-0.2829,-0.2903,-0.2893,-0.2893,-0.2981,-0.3154,-0.2195,-0.112,0.0,0.0,0.0,0.0,0.0,0.0,0.0,0.0,0.0,0.0,0.0,0.0,0.0,0.0,0.0,0.0,0.0,0.0,0.0,0.0,0.0,0.0,0.0,0.0,0.0,0.0,0.0,0.0,0.0,0.0,0.0,0.0,0.0,0.0,0.0,0.0,0.0,0.0,0.0,0.0,0.0,0.0,0.0,0.0,0.0,0.0,0.0,0.0,0.0,0.0,0.0,0.0,0.0,0.0,0.0,0.0,0.0,0.0,0.0,0.0,0.0,0.0,0.0,0.0,0.0,0.0,0.0,0.0,0.0,0.0,0.0,-1.9593,-2.0462,0.0,0.0,0.0,0.0,0.0,0.0,0.0,0.0,0.0,0.0,0.0,0.0,0.0,0.0,0.0,0.0,0.0,0.0,0.0,0.0,0.0,-0.1604,-0.1114,-0.0624,-0.0714,-0.1705,-0.0895,-0.0214,-0.0027,-0.028,-0.1141,-0.2626,-0.1274,-0.1227,-0.2835,-0.2771,-0.2801,-0.3042,-0.3147,-0.31,-0.2927,-0.3476,-0.2706,-0.0842,-0.0278,0.0,0.0,0.0,0.0,0.0,0.0,0.0,0.0,0.0,0.0,0.0,0.0,0.0,0.0,0.0,0.0,0.0,0.0,0.0,0.0,0.0,0.0,0.0,0.0,0.0,0.0,0.0,0.0,0.0,0.0,0.0,0.0,0.0,0.0,0.0,0.0,0.0,0.0,0.0,0.0,0.0,0.0,0.0,0.0,0.0,0.0,0.0,0.0,0.0,0.0,0.0,0.0,0.0,0.0,0.0,0.0,0.0,0.0,0.0,0.0,0.0,0.0,0.0,-2.0829,-2.0446,-2.1051,-2.3217,-2.4524,-2.492,-2.16,-2.2106,-2.5303,-2.5303,0.0,0.0,0.0,0.0,0.0,0.0,0.0,0.0,0.0,0.0,0.0,0.0,0.0,0.0,0.0,0.0,0.0,0.0,0.0,-0.1772,-0.1692,-0.161,-0.1635,-0.1784,-0.1648,-0.1125,-0.007,-0.148,-0.2444,-0.2683,-0.2477,-0.2706,-0.3449,-0.2984,-0.2733,-0.274,-0.3263,-0.3632,-0.3849,-0.4189,-0.4351,-0.4139,-0.125,0.0,0.0,0.0,0.0,0.0,0.0,0.0,0.0,0.0,0.0,0.0,0.0,0.0,0.0,0.0,0.0,0.0,0.0,0.0,0.0,0.0,0.0,0.0,0.0,0.0,0.0,0.0,0.0,0.0,0.0,0.0,0.0,0.0,0.0,0.0,0.0,0.0,0.0,0.0,0.0,0.0,0.0,0.0,-0.9193,-0.8345,0.0,0.0,0.0,0.0,0.0,0.0,0.0,0.0,0.0,0.0,0.0,0.0,0.0,-1.5184,-1.5886,-1.9938,-2.2077,-2.2293,-2.3149,-2.5016,-2.7636,-2.5273,-2.4247,-2.4321,-2.3768,0.0,-2.5303,-2.5303,0.0,0.0,0.0,0.0,0.0,0.0,0.0,0.0,0.0,0.0,0.0,0.0,0.0,0.0,0.0,0.0,0.0,0.0,0.0,0.0,0.0,-0.1809,-0.1809,-0.1803,-0.2118,-0.1928,-0.1062,-0.2082,-0.2712,-0.2712,-0.2712,-0.284,-0.3107,-0.285,-0.2826,-0.3056,-0.3561,-0.3921,-0.4104,-0.4402,-0.4702,-0.4925,-0.3437,-0.1729,0.0,0.0,0.0,0.0,0.0,0.0,0.0,0.0,0.0,0.0,0.0,0.0,0.0,0.0,0.0,0.0,0.0,0.0,0.0,0.0,0.0,0.0,0.0,0.0,0.0,0.0,0.0,0.0,0.0,0.0,0.0,0.0,0.0,0.0,0.0,0.0,0.0,0.0,0.0,0.0,0.0,-0.6433,-0.8019,-0.9487,-0.9661,-0.9424,0.0,0.0,0.0,0.0,0.0,0.0,0.0,0.0,0.0,-1.6423,-1.6297,-1.7478,-2.0154,-2.2092,-2.3624,-2.478,-2.5351,-2.6342,-2.7642,-2.5262,-2.419,-2.419,-2.419,-2.4374,-2.4708,-2.5138,-2.5303,-2.5303,0.0,0.0,0.0,0.0,-2.0673,-2.1814,0.0,0.0,0.0,0.0,0.0,0.0,0.0,0.0,0.0,0.0,0.0,0.0,-0.1803,-0.1943,-0.216,-0.2472,-0.2774,-0.2819,-0.2517,-0.2634,-0.2712,-0.2712,-0.2712,-0.2712,-0.2712,-0.2867,-0.3173,-0.3626,-0.3799,-0.4019,-0.4295,-0.4473,-0.4738,-0.5023,-0.4931,-0.3332,-0.0714,-0.0207,0.0,0.0,0.0,0.0,0.0,0.0,0.0,0.0,0.0,0.0,0.0,0.0,0.0,0.0,0.0,0.0,0.0,0.0,0.0,0.0,0.0,0.0,0.0,0.0,0.0,0.0,0.0,0.0,0.0,0.0,0.0,0.0,0.0,0.0,0.0,0.0,0.0,0.0,0.0,-0.6179,-0.7112,-0.9637,-1.0554,-1.041,0.0,0.0,0.0,0.0,0.0,0.0,-1.6522,-1.7049,-1.7614,-1.8191,-1.8216,-1.9911,-2.3459,-2.3474,-2.4238,-2.5798,-2.5859,-2.5928,-2.5865,-2.4626,-2.4048,-2.4048,-2.4048,-2.436,-2.4852,-2.4975,-2.5024,-2.5037,-2.5233,-2.5303,-2.5312,-2.5531,-2.5873,-2.6243,0.0,0.0,0.0,0.0,0.0,0.0,0.0,0.0,0.0,0.0,0.0,-0.1803,-0.1803,-0.2321,-0.3131,-0.4282,-0.389,-0.3808,-0.4347,-0.3334,-0.2712,-0.2712,-0.2712,-0.2712,-0.2712,-0.3242,-0.3866,-0.4457,-0.3866,-0.3942,-0.4508,-0.4755,-0.4908,-0.4928,-0.4889,-0.4111,-0.273,-0.08,0.0,0.0,0.0,0.0,0.0,0.0,0.0,0.0,0.0,0.0,0.0,0.0,0.0,0.0,0.0,0.0,0.0,0.0,0.0,0.0,0.0,0.0,0.0,0.0,0.0,0.0,0.0,0.0,0.0,0.0,0.0,0.0,0.0,0.0,0.0,0.0,0.0,0.0,0.0,0.0,0.0,-0.886,-1.1189,0.0,0.0,0.0,0.0,-1.594,-1.6367,-1.6522,-1.6522,-1.8493,-2.0614,-2.2677,-2.2739,-2.2908,-2.3128,-2.3128,-2.3175,-2.3301,-2.3617,-2.3752,-2.3752,-2.367,-2.3637,-2.3637,-2.3637,-2.4757,-2.6446,-2.4897,-2.4266,-2.4321,-2.5037,-2.5303,-2.5313,-2.5313,-2.6805,-2.8809,0.0,0.0,0.0,0.1935,0.1806,0.1541,0.0761,0.0424,-0.0245,-0.1616,-0.1809,-0.1859,-0.203,-0.2093,-0.2774,-0.4378,-0.4323,-0.3959,-0.3396,-0.2953,-0.2712,-0.2712,-0.2712,-0.308,-0.3856,-0.4086,-0.4367,-0.4711,-0.4367,-0.4443,-0.491,-0.4897,-0.5091,-0.5399,-0.5433,-0.5153,-0.4455,-0.3338,-0.235,-0.1332,-0.0357,0.0,0.0,0.0,0.0,0.0,0.0,0.0,0.0,0.0,0.0,0.0,0.0,0.0,0.0,0.0,0.0,0.0,0.0,0.0,0.0,0.0,0.0,0.0,0.0,0.0,0.0,0.0,0.0,0.0,0.0,0.0,0.0,0.0,0.0,0.0,0.0,0.0,0.0,-1.2729,-1.295,0.0,-1.1551,-1.2323,-1.4467,-1.8324,-1.8631,-1.9258,-2.0648,-1.9431,-1.8976,-1.9781,-1.9814,-2.0887,-2.3078,-2.3078,-2.199,-1.9868,-2.2184,-2.3258,-2.3205,-2.1783,-2.1135,-2.1135,-2.1135,-2.1566,-2.2216,-2.1615,-2.3704,-2.7313,-2.7586,-2.768,-2.768,-2.768,-2.8229,-2.8994,0.0,0.3196,0.0,0.1935,0.1803,0.1405,0.0179,-0.0,-0.029,-0.1098,-0.1541,-0.1859,-0.2037,-0.2445,-0.3203,-0.4412,-0.4144,-0.3612,-0.2873,-0.2927,-0.2929,-0.2723,-0.2912,-0.3396,-0.4199,-0.4415,-0.4584,-0.4718,-0.479,-0.4855,-0.4924,-0.5003,-0.5352,-0.5937,-0.5937,-0.5864,-0.5696,-0.504,-0.4079,-0.289,-0.1934,-0.1405,-0.112,0.0,0.0,0.0,0.0,0.0,0.0,0.0,0.0,0.0,0.0,0.0,0.0,0.0,0.0,0.0,0.0,0.0,0.0,0.0,0.0,0.0,0.0,0.0,0.0,0.0,0.0,0.0,0.0,0.0,0.0,0.0,0.0,0.0,0.0,0.0,-1.0202,-1.3919,-1.3749,-1.3628,-1.4557,-1.4609,-1.5883,-1.8977,-1.9759,-2.0438,-2.1307,-1.9233,-1.7432,-1.6149,-1.7295,-1.91,-2.1342,-2.1404,-2.0257,-1.8008,-2.0322,-2.1404,-2.1335,-1.926,-1.8862,-1.9798,-1.9798,-1.9798,-1.9861,-2.0614,-2.332,-2.7023,-2.7109,-2.8223,-2.9804,-3.0396,-2.9934,-2.9044,0.0,0.2589,0.1803,0.1803,0.1803,0.1405,0.0179,-0.0987,-0.1346,-0.0202,-0.1102,-0.1837,-0.1844,-0.3444,-0.4519,-0.4519,-0.3447,-0.2842,-0.309,-0.3385,-0.329,-0.274,-0.3259,-0.3588,-0.3605,-0.422,-0.4522,-0.4532,-0.5113,-0.5106,-0.456,-0.515,-0.5744,-0.6311,-0.6311,-0.6321,-0.63,-0.5706,-0.5106,-0.4553,-0.4501,-0.4144,-0.3382,0.0,0.0,0.0,0.0,0.0,0.0,0.0,0.0,0.0,0.0,0.0,0.0,0.0,0.0,0.0,0.0,0.0,0.0,0.0,0.0,0.0,0.0,0.0,0.0,0.0,0.0,0.0,0.0,0.0,0.0,0.0,0.0,0.0,-0.7616,-0.8143,-0.9773,-1.2084,-1.354,-1.529,-1.7817,-1.8086,-1.8086,-1.8086,-1.9629,-1.9844,-1.8174,-1.7901,-1.6175,-1.2499,-1.5895,-1.7794,-1.7638,-1.7794,-1.7794,-1.7794,-1.7794,-1.7794,-1.7736,-1.6065,-1.692,-1.9743,-1.9743,-1.9743,-1.9905,-2.2176,-2.3065,-2.3005,-2.343,-2.6551,-3.0982,-3.2675,-3.1516,-2.92,0.3506,0.2589,0.1803,0.1803,0.1803,0.1405,0.0179,-0.0292,-0.0693,-0.1227,-0.1973,-0.2513,-0.273,-0.3775,-0.4519,-0.4519,-0.4213,-0.3684,-0.2852,-0.2883,-0.2888,-0.2723,-0.3259,-0.3828,-0.4261,-0.4433,-0.4572,-0.4796,-0.4738,-0.491,-0.5181,-0.5349,-0.5518,-0.5679,-0.5679,-0.5923,-0.6328,-0.616,-0.5728,-0.5243,-0.4847,-0.4556,-0.419,0.0,0.0,0.0,0.0,0.0,0.0,0.0,0.0,0.0,0.0,0.0,0.0,0.0,0.0,0.0,0.0,0.0,0.0,0.0,0.0,0.0,0.0,0.0,0.0,0.0,0.0,0.0,0.0,0.0,0.0,0.0,-1.0009,-1.1804,-0.8749,-1.006,-1.1904,-1.3414,-1.6686,-1.9091,-1.9827,-1.9863,-1.9863,-1.9863,-2.0303,-2.0361,-1.9883,-1.6091,-1.3812,-1.3649,-1.3795,-1.2437,-0.9515,-1.2437,-1.3875,-1.3875,-1.3875,-1.3875,-1.386,-1.3357,-1.5128,-1.8469,-1.8469,-1.8469,-1.8754,-2.1812,-2.1655,-1.9684,-2.2218,-2.2585,-2.1716,-2.2159,-2.5821,-3.0929,0.3506,0.2589,0.1803,0.1803,0.1803,0.1405,0.0179,0.0,-0.0425,-0.1648,-0.2558,-0.3215,-0.3636,-0.4151,-0.4519,-0.4519,-0.4288,-0.3846,-0.3142,-0.2857,-0.2939,-0.3447,-0.3808,-0.4161,-0.4512,-0.4766,-0.4925,-0.5104,-0.505,-0.5138,-0.5432,-0.5689,-0.581,-0.581,-0.581,-0.6005,-0.6257,-0.6193,-0.6233,-0.6369,-0.6005,-0.5794,-0.5739,-0.5787,-0.5847,-0.5873,-0.5661,-0.4957,-0.417,-0.4412,0.0,0.0,0.0,0.0,0.0,0.0,0.0,0.0,0.0,0.0,0.0,0.0,0.0,0.0,0.0,0.0,0.0,0.0,0.0,0.0,0.0,0.0,0.0,0.0,-1.1247,-1.2111,-1.0513,-1.1877,-1.3307,-1.4001,-1.6355,-1.8621,-2.0401,-2.0566,-2.0566,-2.0566,-2.0566,-2.0566,-2.0566,-1.5826,-1.3367,-1.4068,-1.1508,-0.9734,-0.8836,-1.1093,-1.1471,-0.9814,-0.9814,-0.8864,-0.7295,-1.0742,-1.4371,-1.8008,-1.8008,-1.8777,-2.0193,-2.0696,-1.9803,-1.8327,0.0,0.0,0.0,0.0,-2.785,-3.2512,0.3506,0.2589,0.1803,0.1803,0.1803,0.1446,0.0359,0.0202,-0.0223,-0.1446,-0.2702,-0.3777,-0.4443,-0.4457,-0.4443,-0.4512,-0.4031,-0.3622,-0.3487,-0.3298,-0.3563,-0.4467,-0.4519,-0.4519,-0.4519,-0.5116,-0.5428,-0.5428,-0.5657,-0.5684,-0.5542,-0.6016,-0.6273,-0.6338,-0.6338,-0.6338,-0.6331,-0.6338,-0.6864,-0.7582,-0.7699,-0.766,-0.7526,-0.7337,-0.7598,-0.8149,-0.8446,-0.6753,-0.4423,-0.4815,0.0,0.0,0.0,0.0,0.0,0.0,0.0,0.0,0.0,0.0,0.0,0.0,0.0,0.0,0.0,0.0,0.0,0.0,0.0,0.0,0.0,0.0,0.0,0.0,-1.3058,-1.2806,-1.2372,-1.3333,-1.4088,-1.4088,-1.4088,-1.5636,-1.9511,-2.0323,-2.0566,-2.0566,-2.0157,-1.9835,-1.9835,-1.6198,0.0,0.0,0.0,-0.8804,-1.2437,-1.196,-0.9893,-0.6359,-0.6359,-0.4446,-0.1035,-0.8894,-1.4313,-1.7577,-1.7577,-1.9561,-2.2599,-1.9536,-1.8301,-1.8606,-2.1812,-2.3292,-2.441,-3.106,-3.3634,-3.3815,0.3506,0.2589,0.1803,0.1803,0.1803,0.1714,0.1491,0.1446,0.1023,-0.0179,-0.1837,-0.3306,-0.4398,-0.4086,-0.3993,-0.4474,-0.4412,-0.3931,-0.2953,-0.4934,-0.565,-0.4539,-0.4519,-0.4519,-0.4519,-0.5116,-0.5428,-0.5428,-0.5657,-0.5898,-0.6153,-0.5779,-0.5868,-0.6338,-0.6338,-0.6338,-0.6412,-0.7969,-0.8477,-0.8236,-0.9612,-0.9422,-0.8364,-0.8307,-0.8766,-0.9334,-0.9432,-0.9366,-0.9058,-0.8021,-0.6223,-0.4508,-0.445,-0.4391,0.0,0.0,0.0,0.0,0.0,0.0,0.0,0.0,0.0,0.0,0.0,0.0,0.0,0.0,0.0,0.0,0.0,0.0,0.0,-1.4586,-1.6062,-1.579,-1.2732,-1.3333,-1.4088,-1.4088,-1.4088,-1.4412,-1.5311,-1.8541,-2.0566,-2.0566,-1.7326,-1.5387,-1.5387,-1.4573,-1.4088,-1.4088,-0.957,-0.9238,-1.3741,-1.001,-0.7729,-0.697,-0.697,0.0,-0.5915,-1.1266,-1.4145,-1.4858,-1.4858,-1.7195,-2.1005,-2.0361,-2.0068,-2.0287,-2.2303,-2.457,-2.7136,-3.0459,-3.2598,-3.3928,0.3506,0.3046,0.2481,0.1891,0.1803,0.1803,0.1803,0.1803,0.1579,0.0981,-0.0408,-0.1935,-0.3443,-0.3314,-0.3289,-0.3588,-0.3894,-0.3815,-0.3207,-0.4758,-0.5356,-0.4556,-0.4519,-0.4519,-0.4519,-0.5196,-0.5583,-0.5583,-0.5806,-0.5983,-0.618,-0.5978,-0.6555,-0.7783,-0.6718,-0.6872,-0.7876,-0.8825,-0.9409,-0.9668,-1.0838,-1.1057,-1.0761,-1.0509,-1.0851,-1.1388,-1.11,-1.1166,-1.1233,-0.9559,-0.8739,-0.8106,-0.6373,-0.6201,-0.6357,0.0,0.0,0.0,0.0,0.0,0.0,0.0,0.0,0.0,0.0,0.0,0.0,0.0,0.0,-1.2881,-1.2881,0.0,-1.4707,-1.6436,-1.8164,-1.7841,-1.381,-1.3193,-1.3414,-1.4015,-1.4088,-1.4088,-1.4088,-1.6034,-1.8212,-2.0401,-1.6519,-1.4088,-1.4088,-1.4088,-1.4088,-1.4088,-1.1821,-1.0611,-1.0611,-0.8269,-0.5891,-0.3575,-0.598,-0.7139,-0.7139,-0.9483,-1.0611,-1.0697,-1.3039,-1.6601,-2.0401,-1.8212,-1.7326,-1.7645,-2.0659,-2.3301,-2.5988,-3.1417,-3.3547,-3.3961,0.3506,0.3506,0.3132,0.2,0.1803,0.1803,0.1803,0.1803,0.1803,0.1803,0.076,-0.0644,-0.2329,-0.252,-0.2537,-0.2537,-0.3059,-0.3456,-0.3571,-0.4185,-0.4519,-0.4519,-0.4632,-0.4694,-0.4694,-0.5668,-0.6335,-0.6462,-0.6463,-0.6485,-0.6401,-0.6616,-0.7629,-0.9221,-0.8008,-0.8385,-0.9862,-0.9968,-1.0529,-1.1523,-1.189,-1.2365,-1.2879,-1.2525,-1.2659,-1.2986,-1.2612,-1.2405,-1.2058,-1.0651,-1.0988,-1.1494,-0.8903,-0.8638,-0.8922,-0.6961,-0.6082,0.0,0.0,0.0,0.0,0.0,0.0,0.0,0.0,-1.3617,-1.5029,-1.3652,-1.3369,-1.3477,-1.3818,-1.499,-1.6225,-1.7073,-1.8421,-1.8132,-1.4573,-1.3253,-1.3006,-1.3975,-1.4088,-1.4088,-1.4088,-1.4088,-1.5553,-1.9107,-1.5387,-1.3269,-1.4102,-1.4088,-1.3652,-1.2778,-1.2778,-1.0956,-0.7139,-0.6157,-0.3753,-0.009,-0.4832,-0.7068,-0.7139,-0.7139,-0.7573,-0.8707,-1.2431,-1.6116,-1.9027,-1.5553,-1.4088,-1.4412,-1.798,-2.1123,-2.4628,-3.2057,-3.4779,-3.494,0.3506,0.3506,0.3132,0.2,0.1803,0.1803,0.1803,0.1803,0.1803,0.1803,0.076,-0.0479,-0.1764,-0.1903,-0.1892,-0.1906,-0.2465,-0.3046,-0.3544,-0.4185,-0.4519,-0.4519,-0.5037,-0.5325,-0.5325,-0.692,-0.8152,-0.892,-0.8486,-0.8155,-0.7761,-0.7952,-0.8533,-0.9372,-1.0944,-1.1774,-1.1968,-1.2499,-1.3101,-1.3741,-1.3246,-1.3014,-1.2899,-1.2752,-1.2572,-1.2465,-1.2939,-1.2759,-1.2291,-1.2051,-1.1467,-1.0902,-1.1552,-1.1407,-1.0856,-0.9597,-0.8331,-0.7342,-0.7259,-0.781,-0.8704,-0.9994,-1.117,-1.2573,0.0,0.0,-1.5361,-1.5166,-1.5127,-1.5605,-1.7148,-1.7588,-1.6988,-1.4889,-1.4733,-1.4657,-1.4173,-1.3968,-1.3941,-1.4075,-1.4088,-1.4088,-1.4088,-1.4088,-1.4334,-1.4817,-1.1051,-1.0233,-1.3881,-1.4088,-1.2169,-0.8009,-0.7921,-0.7661,-0.7139,-0.295,-0.0539,-0.009,-0.4869,-0.7118,-0.7139,-0.7139,-0.9396,-1.3385,-1.3913,-1.4419,-1.4817,-1.4334,-1.4088,-1.4173,-1.4657,-1.9418,-2.6614,-3.0528,-3.4588,-3.8338,0.3506,0.3506,0.3132,0.2,0.1803,0.1803,0.1803,0.1803,0.1803,0.1803,0.0757,-0.0201,-0.0698,-0.1388,-0.1809,-0.1803,-0.2362,-0.2973,-0.3541,-0.4185,-0.4676,-0.503,-0.5291,-0.5428,-0.5428,-0.712,-0.8807,-1.0498,-0.9344,-0.8767,-0.8738,-0.8854,-0.9362,-1.019,-1.0875,-1.1677,-1.2692,-1.3173,-1.3654,-1.4048,-1.3634,-1.338,-1.318,-1.2432,-1.2211,-1.2331,-1.2592,-1.2518,0.0,-1.1122,-1.0681,-1.0705,-1.1136,-1.1116,-1.0688,-0.9519,-0.8775,-0.8262,-0.8209,-0.9065,-1.0122,-1.0773,-1.2315,-1.3972,-1.4976,-1.5226,-1.5203,-1.537,-1.6221,-1.7451,-1.918,-1.7427,-1.5385,0.0,-1.4088,-1.4088,-1.4088,-1.4088,-1.4088,-1.4088,-1.4088,-1.4088,-1.4088,-1.4703,-1.5097,-1.5097,-1.2898,-1.2604,-1.5,-1.2221,-0.9622,-0.7662,-0.7322,-0.58,-0.304,-0.0987,-0.1349,-0.4148,-0.6117,-0.7265,-0.7665,-0.7665,-1.0013,-1.4122,-1.4803,-1.5097,-1.5097,-1.5097,-1.4703,-1.4155,-1.4836,-2.0513,-2.8647,-3.0754,-3.3809,-3.7235,0.3506,0.3245,0.2762,0.1935,0.1803,0.1803,0.1803,0.1803,0.1806,0.1791,0.1046,0.0379,0.0045,-0.1074,-0.1809,-0.1803,-0.2362,-0.2901,-0.3303,-0.4828,-0.5506,-0.5157,-0.5339,-0.5428,-0.5428,-0.6666,-0.8311,-1.0429,-0.9449,-0.9192,-0.9559,-0.9622,-1.017,-1.1132,-1.0914,-1.1614,-1.2946,-1.3333,-1.3906,-1.4393,-1.3796,-1.3561,-1.334,-1.2157,-1.165,-1.1483,-1.1376,-1.1129,-1.0655,-0.9379,-0.9379,-0.9953,-1.0167,-1.0221,-1.0047,-0.9272,-0.8938,-0.8844,-0.9005,-0.9953,-1.1022,-1.1261,-1.3038,-1.4769,-1.4947,-1.5129,-1.5303,-1.5551,-1.6882,-1.8174,-1.8737,-1.6198,-1.4088,-1.4088,-1.4355,-1.4569,-1.4569,-1.4289,-1.4088,-1.4088,-1.3794,-1.3213,-1.2231,-1.4116,-1.5478,-1.5805,-1.5044,-1.4289,-1.3646,-1.0087,-0.7335,-0.5824,-0.5329,-0.3511,-0.0,0.0,-0.2512,-0.732,-0.7336,-0.7617,-0.8038,-0.9505,-1.1775,-1.4616,-1.5464,-1.5832,-1.5832,-1.5832,-1.6134,-1.6682,-1.747,-2.1942,-2.8222,-3.0255,-3.298,-3.6036,0.0,0.2611,0.1847,0.1803,0.1803,0.1803,0.1803,0.1803,0.1791,0.1789,0.1772,0.1292,0.0135,-0.1082,-0.1804,-0.1806,-0.2362,-0.2723,-0.274,-0.6447,-0.7408,-0.4653,-0.5113,-0.5428,-0.5428,-0.5428,-0.6342,-0.8112,-0.8947,-0.9605,-1.0061,-1.039,-1.1013,-1.1891,-1.2105,-1.2457,-1.2946,-1.3333,-1.4212,-1.5242,-1.4082,-1.3481,-1.3171,-1.2226,-1.0868,-0.9432,-0.9045,-0.8163,-0.7131,-0.7121,-0.7635,-0.843,-0.9185,-0.9359,-0.9269,-0.9586,-0.9252,-0.8931,-0.9499,-1.039,-1.1233,-1.1802,-1.3048,-1.4271,-1.4687,-1.5334,-1.582,-1.5914,-1.7072,-1.7224,-1.475,-1.4173,-1.4088,-1.4088,-1.5037,-1.5772,-1.5772,-1.4803,-1.4088,-1.4088,-1.3066,-1.099,0.0,-1.1419,-1.4609,-1.5745,-1.5798,-1.3555,-0.8528,-0.8038,-0.5625,-0.0404,-0.0201,-0.0101,-0.0,0.0,-0.2722,-0.7928,-0.7952,-0.8021,-0.8134,-1.3295,-1.5615,-1.5778,-1.5812,-1.5832,-1.5832,-1.5832,-1.8548,-2.2795,-2.2843,-2.3038,-2.38,-2.8195,-3.2266,-3.5881,0.0,0.0,0.1803,0.1803,0.1803,0.1803,0.1803,0.1803,0.1806,0.1791,0.0398,0.0,0.0,0.0,0.0,0.0,-0.1991,-0.2283,-0.2688,-0.5791,-0.7532,-0.7362,-0.7544,-0.6736,-0.4824,-0.5222,-0.5686,-0.6272,-0.7219,-0.8364,-0.9656,-0.9959,-1.0623,-1.159,-1.1884,-1.2198,-1.2532,-1.2859,-1.3274,-1.3684,-1.3311,-1.2683,-1.1977,-1.1618,-1.0974,-1.0113,0.0,-0.8278,-0.6979,-0.6979,-0.7375,-0.7909,-0.8444,-0.8637,-0.8724,-0.9018,-0.9659,-1.029,-1.0037,-1.1497,-1.313,-1.3141,-1.4227,-1.5486,-1.5918,-1.5779,-1.5761,-1.6705,-1.6063,-1.4919,-1.3199,-1.2906,-1.316,-1.3961,-1.507,-1.5832,-1.5832,-1.4823,-1.3794,-1.2999,-1.016,0.0,0.0,0.0,0.0,-1.5738,-1.5832,-1.3488,-0.8233,-0.4622,-0.1913,-0.0101,0.0,0.0,0.0,-0.3542,-0.6178,-0.7979,-0.7952,-0.8038,-0.8134,-1.3392,-1.5832,-1.5832,-1.5832,-1.5832,-1.6008,-1.9306,-1.7704,-1.372,-2.0471,-2.3135,-2.3637,-2.8119,-3.35,-3.8421,0.0,0.0,0.0,0.1803,0.1803,0.0,0.0,0.0,0.0,0.0,0.0,0.0,0.0,0.0,0.0,0.0,0.0,-0.2064,-0.2675,-0.5027,-0.6927,-0.8116,-0.7369,-0.6159,-0.4512,-0.49,-0.4999,-0.4783,-0.5439,-0.6588,-0.8159,-0.8723,-0.9562,-1.0573,-1.1273,-1.169,-1.185,-1.2078,-1.2353,-1.2565,-1.2218,-1.1804,-1.1399,-1.0814,-1.0214,0.0,-0.9102,-0.8364,-0.7599,-0.7433,-0.7396,-0.7482,-0.7963,-0.8446,-0.9001,-0.9468,-1.0191,-1.0844,-1.1041,-1.2254,-1.3491,-1.3592,-1.4495,-1.5438,-1.5733,-1.5308,-1.5072,-1.569,-1.4266,-1.2465,-1.1269,-1.1056,-1.1577,-1.3186,-1.479,-1.5832,-1.5832,-1.4823,-1.3955,-1.3601,-1.0539,-0.8649,0.0,0.0,0.0,-1.2716,-1.1106,-0.9527,-0.8035,-0.2917,0.0,0.0,0.0,-0.0909,-0.2832,-0.6279,-0.7992,-0.8038,-0.8038,-0.9015,-1.0867,-1.4268,-1.5832,-1.5832,-1.5832,-1.5832,-1.6197,-2.1033,-1.8247,-1.1619,-1.9842,-2.3135,-2.3637,-2.8119,-3.4171,-3.9932,0.0,0.0,0.0,0.0,0.0,0.0,0.0,0.0,0.0,0.0,0.0,0.0,0.0,0.0,0.0,0.0,0.0,0.0,-0.2675,-0.4226,-0.5609,-0.6715,-0.4728,-0.3846,-0.4412,-0.4426,-0.4144,-0.3534,-0.3812,-0.4564,-0.5779,-0.6902,-0.793,-0.8926,-1.0335,-1.0903,-1.079,-1.0903,-1.129,-1.1744,-1.0937,-1.0877,-1.1234,-1.0013,-0.8883,-0.7922,-0.7855,-0.8172,-0.8553,-0.8193,-0.7657,-0.7258,-0.7856,-0.8934,-1.0113,-1.09,-1.0825,-1.084,-1.2602,-1.2888,-1.2832,-1.3413,-1.3814,-1.4088,-1.4088,-1.4088,-1.3928,-1.3373,-1.1864,-1.0274,0.0,0.0,-0.9532,-1.1764,-1.4055,-1.5558,-1.5558,-1.4763,-1.4589,0.0,0.0,0.0,0.0,0.0,0.0,-0.7535,-0.2992,-0.2616,-0.7736,-0.2917,0.0,0.0,0.0,-0.2528,-0.7955,-0.7979,-0.8038,-0.8038,-0.8233,-1.096,-1.5832,-1.5832,-1.5832,-1.5832,-1.5832,-1.592,-1.6466,-2.0944,-2.0034,-1.6285,-2.1221,-2.3222,-2.3963,-2.8603,-3.4519,-4.0577,0.0,0.0,0.0,0.0,0.0,0.0,0.0,0.0,0.0,0.0,0.0,0.0,0.0,0.0,0.0,0.0,0.0,0.0,-0.2675,-0.27,-0.3023,-0.3757,-0.3226,-0.3018,-0.3173,-0.3176,-0.31,-0.2946,-0.2985,-0.385,-0.5421,-0.5644,-0.6233,-0.7258,-0.8606,-0.8845,-0.828,-0.9036,-0.8862,-0.8114,-0.9695,-0.996,-0.9681,-1.1336,-1.0584,-0.847,-0.753,-0.7326,-0.7482,-0.7656,-0.8397,-0.9331,-0.985,-1.0926,-1.2011,-1.1759,-1.2672,-1.3787,-1.4179,-1.586,-1.6905,-1.4575,-1.4015,-1.4088,-1.4088,-1.4088,-1.4041,-1.3895,-1.2792,-1.1236,-0.9185,-0.8804,0.0,-0.9599,-1.0942,0.0,-1.1904,-1.3915,0.0,-1.5792,0.0,-1.505,-1.5351,-1.5384,0.0,0.0,-0.6657,-0.6528,-0.7939,-0.2917,0.0,0.0,0.0,-0.2528,-0.7955,-0.7979,-0.8038,-0.8038,-1.1935,-1.4465,-1.5832,-1.5832,-1.5832,-1.5832,-1.5832,-1.784,-2.1033,-1.8664,-1.6929,-1.6285,-2.1221,-2.5136,-2.8868,-3.5148,-3.9678,-4.2886,0.0,0.0,0.0,0.0,0.0,0.0,0.0,0.0,0.0,0.0,0.0,0.0,0.0,0.0,0.0,0.0,0.0,0.0,0.0,-0.2143,-0.2077,-0.2688,-0.2712,-0.2712,-0.2712,-0.2712,-0.2618,-0.2486,-0.2706,-0.3335,-0.4285,-0.4833,-0.5069,-0.5234,-0.7573,-0.7903,-0.6769,-0.7006,-0.6942,0.0,0.0,-0.8994,-0.9043,-1.0499,-0.9899,-0.8327,-0.843,-0.8257,-0.8077,-0.8679,-0.9651,-1.0678,-1.138,-1.2429,-1.3254,-1.2808,-1.3615,-1.4774,-1.5493,-1.6554,-1.7016,-1.4991,-1.4409,-1.4302,-1.4128,-1.4088,-1.4088,-1.4088,-1.2318,-1.0367,-0.9051,-0.8804,-0.9145,0.0,0.0,0.0,-1.2872,-1.4583,-1.5832,0.0,-1.5832,0.0,-1.5832,-1.5832,-1.3584,0.0,-0.5824,-0.4522,-0.4522,-0.1612,0.0,0.0,0.0,-0.2623,-0.7905,-0.7962,-0.8038,-0.8038,-1.0965,-1.359,-1.5832,-1.5832,-1.5832,-1.592,-1.8118,-1.8026,-1.6443,-1.5954,-1.7109,-1.9306,-2.2041,-2.5797,-3.0644,-3.7543,-4.1935,-4.4561,0.0,0.0,0.0,0.0,0.0,0.0,0.0,0.0,0.0,0.0,-0.1806,-0.1803,0.0,0.0,0.0,0.0,0.0,0.0,0.0,0.0,-0.216,-0.2692,-0.2712,-0.2712,-0.2712,-0.2712,-0.2554,-0.2268,-0.273,-0.2948,-0.3,-0.4165,-0.4148,-0.3376,-0.6575,-0.7101,-0.5608,-0.5008,-0.5464,-0.662,-0.7088,-0.7885,-0.8745,0.0,-0.8388,-0.7919,-0.9668,-0.9853,-0.9437,-1.0568,-1.1121,-1.1515,-1.2526,-1.3531,-1.4293,-1.3982,-1.4339,-1.5081,-1.6427,-1.5995,-1.5284,-1.5117,-1.495,-1.4696,-1.4202,-1.3721,-1.3387,-1.3387,-1.0942,-0.8804,-0.8804,-0.8804,-0.9573,-1.1917,0.0,-1.5651,-1.5805,-1.5832,-1.5832,-1.5832,-1.5832,-1.5534,-1.4854,-1.4752,-1.2915,-0.8347,-0.3726,-0.0707,-0.0,0.0,0.0,0.0,0.0,-0.2615,-0.7939,-0.8038,-0.8038,-0.8038,-0.8038,-1.0769,-1.5832,-1.5832,-1.5439,-1.5032,-1.9224,-1.6536,-0.9406,-1.3974,-1.8664,-2.3135,-2.3724,-2.6662,-3.1336,-3.8095,-4.2684,-4.5659,0.0,0.0,0.0,0.0,0.0,0.0,0.0,0.0,0.0,0.0,-0.1794,-0.1803,0.0,0.0,0.0,0.0,0.0,0.0,0.0,0.0,0.0,-0.2709,-0.2712,-0.2712,-0.2712,-0.2712,-0.2656,-0.2605,-0.2693,-0.2744,-0.2761,-0.2995,-0.2996,-0.283,-0.3485,-0.3769,-0.3769,-0.4049,-0.46,-0.5322,-0.5605,-0.6373,-0.7562,-0.9336,0.0,0.0,-0.9668,-0.9716,-0.941,-1.2195,-1.2513,-1.1896,-1.2871,-1.4275,-1.5489,-1.5544,-1.6436,-1.7135,-1.6235,-1.5805,-1.5718,-1.5691,-1.5651,-1.5357,-1.4322,-1.1824,-0.9719,-0.9719,-0.9232,-0.8804,-0.8804,-0.8804,-0.9573,-1.1917,-1.3474,-1.4723,-1.5691,-1.5832,-1.5832,0.0,-1.5832,-1.4076,-0.9797,-0.9308,0.0,0.0,-0.7119,-0.4663,-0.0202,0.0,0.0,0.0,0.0,-0.2615,-0.7939,-0.8038,-0.8038,-0.8038,-0.8038,-1.0769,-1.5832,-1.5832,-1.3488,-0.9402,-1.0245,-1.2088,-1.4561,-1.5439,-1.8664,-2.3474,-2.7209,-3.1053,-3.52,-4.0822,-4.4044,-4.5621,0.0,0.0,0.0,0.0,0.0,0.0,0.009,0.0,-0.0202,-0.0788,-0.0876,-0.0852,-0.0864,-0.1433,-0.1547,0.0,0.0,0.0,0.0,0.0,0.0,-0.2669,-0.2712,-0.2712,-0.2712,-0.2712,-0.2661,-0.2558,0.0,-0.2616,-0.245,-0.262,-0.2706,-0.27,-0.2696,-0.2823,-0.3068,-0.421,-0.4678,-0.4761,-0.5794,-0.652,-0.7155,-0.8442,0.0,0.0,-0.8818,-0.9232,-0.9882,-1.1421,-1.1722,-1.176,-1.36,-1.605,-1.7875,-1.5692,-1.5894,-1.6721,-1.5975,-1.5832,-1.5832,-1.5832,-1.5832,-1.5197,-1.2799,-1.0468,-0.8804,-0.8804,-0.8804,-0.8804,-0.8804,-0.8804,-0.9172,-1.0301,-1.3019,-1.4977,-1.493,-1.5444,0.0,-1.5771,-1.5827,-1.3782,-0.8528,-0.8038,-0.6842,-0.4048,-0.3848,-0.2731,-0.0101,0.0,0.0,0.0,0.0,-0.121,-0.382,-0.6886,-0.8506,-0.8503,-0.8191,-0.9308,-1.1741,-1.1741,-1.0378,-0.8137,-1.0867,-1.4956,-1.9198,-1.3915,-1.9712,-3.2188,-3.4342,-3.626,-3.8332,-4.2105,-4.4554,-4.564,0.0,0.0,0.0,0.0,0.0,0.0,-0.0336,-0.0381,-0.0381,-0.0381,-0.0165,0.0,0.0,-0.0849,-0.1025,0.0,0.0,0.0,0.0,0.0,0.0,0.0,-0.2364,-0.252,-0.252,0.0,0.0,-0.241,-0.2579,0.0,0.0,0.0,0.0,0.0,-0.2704,-0.2796,-0.3039,-0.4242,-0.4694,0.0,0.0,-0.6647,-0.6703,0.0,0.0,0.0,0.0,-0.8818,-1.0078,-1.0508,-1.076,-1.1424,-1.421,-1.7149,-1.8879,-1.5184,-1.4917,-1.5832,-1.5832,-1.5832,-1.5534,-1.4364,-1.3998,-1.3273,-1.0784,-0.9472,-0.8804,-0.8804,-0.8804,-0.8804,-0.8804,-0.8804,-0.8804,-0.8804,-1.1911,-1.4001,-1.3086,-1.4616,-1.5416,0.0,-1.513,0.0,-0.8553,-0.8048,0.0,-0.2014,-0.0605,0.0,0.0,0.0,0.0,0.0,0.0,0.0,0.0,-0.587,-0.8872,-0.874,-0.8265,-0.8038,-0.8038,-0.8038,-0.8038,-0.8333,-1.3488,-1.9165,-2.3882,-1.5906,-2.3535,-4.007,-4.007,-4.0569,-4.1516,-4.3386,-4.4458,-4.4418,0.0,0.0,0.0,0.0,0.0,0.0,-0.1471,-0.1626,-0.1626,-0.1626,-0.0689,0.0,0.0,-0.009,-0.0112,0.0,0.0,0.0,0.0,0.0,0.0,0.0,0.0,0.0,0.0,0.0,0.0,-0.241,-0.2472,0.0,0.0,0.0,0.0,0.0,0.0,-0.3142,-0.3831,-0.3204,0.0,0.0,0.0,0.0,0.0,0.0,0.0,0.0,0.0,-0.8779,-0.9404,-1.123,-1.119,-1.0984,-1.4311,-1.582,-1.615,-1.4573,-1.4917,-1.5832,-1.5832,-1.5832,-1.4657,-0.9895,-0.8276,-0.8065,-0.8806,-0.8884,-0.8804,-0.8804,-0.8804,-0.8804,-0.8804,-0.8804,-0.8804,-0.8804,-0.9172,-0.9412,-0.9305,-1.3066,-1.3998,-0.9256,0.0,0.0,-0.8535,-0.7982,-0.7839,-0.7332,-0.2716,0.0,0.0,0.0,0.0,0.0,0.0,0.0,0.0,-0.5899,-0.8662,-0.8123,-0.8065,-0.8038,-0.8038,-0.8038,-0.8038,-0.8333,-1.3488,-2.0917,-2.9106,-2.8203,-3.2673,-4.007,-4.007,-4.2152,-4.517,-4.5811,-4.3747,-4.0229,0.0,0.0,0.0,0.0,0.0,0.0,-0.1626,-0.1803,-0.1803,-0.1803,-0.138,-0.0803,-0.009,0.0,0.0,0.0,0.0,0.0,0.0,0.0,0.0,0.0,0.0,0.0,0.0,0.0,-0.2227,-0.2268,-0.2493,0.0,0.0,0.0,0.0,0.0,0.0,-0.2878,-0.327,-0.3978,0.0,0.0,0.0,0.0,0.0,0.0,0.0,0.0,0.0,0.0,-1.0004,-1.1402,-1.1173,-1.0637,-1.2629,-1.3771,-1.4706,-1.6069,-1.6796,-1.6987,-1.6101,-1.5832,-1.5175,-1.2376,-0.9366,-0.7401,-0.8545,-0.8804,-0.8804,-0.8804,-0.8804,-0.8804,-0.8804,-0.8804,-0.8804,-0.8804,-0.8804,-0.8324,-0.694,-0.8948,-0.9892,-0.8205,-0.9802,0.0,0.0,0.0,-0.7959,-0.8009,0.0314,0.5337,0.5328,0.5309,0.3755,0.0108,0.0,0.0,0.0,-0.5569,-0.8279,-0.8038,-0.8038,-0.8038,-0.8038,-0.8038,-0.9698,-1.3171,-2.088,-2.8687,-3.6105,-3.7508,-3.9688,-4.2264,-4.3384,-4.4549,-4.5351,-4.3317,-3.8872,-3.3339,0.0,0.0,0.0,0.0,0.0,-0.0291,-0.1136,-0.1269,-0.1402,-0.1759,-0.1803,-0.1336,-0.0135,0.0,0.0,0.0,0.0,0.0,0.0,0.0,0.0,0.0,0.0,0.0,0.0,0.0,-0.2077,-0.2077,-0.2313,-0.2537,0.0,0.0,-0.2712,-0.2712,0.0,0.0,0.0,0.0,0.0,0.0,0.0,0.0,0.0,0.0,0.0,0.0,0.0,0.0,0.0,0.0,0.0,-1.0505,-1.1811,-1.2559,-1.3387,-1.5788,-1.7259,-1.7845,-1.6359,-1.5922,-1.5583,-1.4522,-1.1827,-0.9455,-0.9496,-0.9179,-0.8857,-0.9159,-0.9008,-0.8804,-0.8804,-0.8804,-0.8804,-0.8804,-0.8804,-0.8026,-0.573,-0.6085,-0.6966,0.0,0.0,-0.7962,0.0,-0.7972,-0.7659,-0.6897,0.2957,0.8107,0.6393,0.799,0.6952,0.2793,0.0879,0.0,0.0,-0.5359,-0.8038,-0.8038,-0.8038,-0.8038,-0.8038,-0.96,-1.3838,-2.0447,-2.9101,-3.5966,-4.0909,-3.8468,-4.0184,-4.4405,-4.5173,-4.4288,-4.2301,-3.9693,-3.4134,-2.7371,0.0,0.0,0.0,0.0,0.0,-0.0,-0.0022,-0.0022,-0.0447,-0.1648,-0.1803,-0.1336,-0.0135,0.0,0.0,0.0,0.0,0.0,0.0,0.0,0.0,0.0,0.0,0.0,-0.1803,-0.1806,-0.1809,-0.1809,-0.1809,-0.2122,-0.2712,-0.2712,-0.2712,-0.2712,0.0,0.0,0.0,0.0,-0.5143,0.0,0.0,0.0,-0.7695,0.0,0.0,0.0,0.0,0.0,0.0,0.0,0.0,0.0,0.0,-1.2556,-1.196,-1.2729,-1.5361,-1.7741,-1.6671,-1.6234,-1.5755,-1.4911,-1.481,-1.4237,-1.1848,-1.0014,-0.9061,-1.0012,-0.9465,-0.8804,-0.8804,-0.8804,-0.8804,-0.8804,-0.8804,-0.8026,-0.573,-0.5428,0.0,0.0,0.0,-0.8038,-0.8041,-0.8038,-0.6927,-0.4218,0.4039,0.6287,0.04,0.5679,0.8917,0.8816,0.3034,0.0,0.0,-0.5325,-0.8038,-0.8038,-0.8038,-0.8038,-0.8134,-1.3392,-2.0811,-3.0012,-3.6959,-4.1296,-4.2411,-2.8882,-3.2379,-4.6085,-4.4241,-4.0296,-3.5589,-3.5554,-3.0306,-2.3135,0.0,0.0,0.0,0.0,0.0,0.0,0.0,0.0,-0.0134,-0.0514,-0.1279,-0.1349,-0.0135,0.0,-0.0336,-0.1159,-0.047,0.0,0.0,0.0,0.0,0.0,0.0,-0.1803,-0.1803,-0.1803,-0.1803,-0.1803,-0.2221,-0.2524,-0.2712,-0.2712,-0.2712,-0.2712,-0.2712,-0.3364,0.0,-0.3779,-0.4425,0.0,0.0,-0.6533,-0.6061,0.0,0.0,0.0,0.0,0.0,0.0,0.0,0.0,0.0,0.0,0.0,0.0,-1.2491,-1.3445,-1.4683,-1.5501,-1.6009,-1.5686,-1.3356,-1.294,-1.2735,-1.1175,-1.1225,-1.115,-0.9569,-0.9008,-0.9368,-1.125,-1.1601,-1.1601,-1.1601,-1.0028,-0.8549,-0.7818,0.0,0.0,-0.6184,-0.656,-0.7146,0.0,0.0,-0.764,-0.6848,-0.0611,0.2147,0.0101,0.1952,0.3011,0.2793,0.4904,0.2369,-0.5425,-0.7132,-0.8038,-0.8038,-0.8038,-0.9895,-1.3482,-1.8517,-2.6651,-3.6541,-3.0939,-3.4897,-4.4245,-2.9253,-3.0594,-4.1778,-3.9076,-3.5394,-3.1241,-2.8174,-2.3222,-1.8118,0.0,0.0,0.0,0.0,0.0,0.0,0.0669,0.0669,0.0514,0.0067,-0.0652,-0.0833,-0.009,-0.0403,-0.0981,-0.1736,-0.1114,0.0,0.0,0.0,0.0,0.0,-0.1803,-0.1803,-0.1803,-0.1803,-0.1916,-0.2146,-0.2527,-0.2712,-0.2712,-0.2712,-0.2592,-0.2369,-0.2798,-0.3596,0.0,-0.4957,-0.5085,-0.5205,-0.6499,-0.6638,-0.6207,0.0,0.0,0.0,0.0,0.0,0.0,0.0,0.0,0.0,0.0,0.0,0.0,0.0,-1.2269,-1.2305,-1.418,-1.5096,-1.5035,-1.2989,-1.2713,-1.2614,-1.1344,-1.2001,-1.2421,-1.0694,-1.0336,-1.0897,-1.2578,-1.3658,-1.3978,-1.3065,-1.1451,-1.0038,-0.922,0.0,0.0,-0.7825,0.0,0.0,0.0,-0.9702,-0.932,-0.9038,-0.517,-0.2847,-0.3019,-0.2849,-0.2849,-0.3006,-0.0408,-0.284,-1.0863,-0.9015,-0.8038,-0.8038,-0.9989,-1.3628,-1.8664,-2.1676,-2.9321,-3.9767,-3.425,-3.6451,0.0,-3.0714,-2.8443,-3.2608,-3.1319,-2.8239,-2.4209,-2.1398,-1.7216,-1.2904,0.0,0.0,0.0,0.0,0.0,0.0,0.0,0.1803,0.1358,0.0157,0.0,-0.0022,-0.0112,-0.1136,-0.1803,-0.1803,-0.1803,0.0,0.0,0.0,0.0,-0.1913,-0.1913,-0.1913,-0.1913,-0.1847,-0.2081,-0.2651,-0.2651,-0.2651,-0.2651,-0.2651,-0.2345,-0.1847,-0.2912,-0.3421,-0.368,-0.6295,-0.6451,-0.5133,-0.6968,-0.7695,0.0,0.0,0.0,0.0,0.0,0.0,0.0,0.0,0.0,0.0,0.0,0.0,0.0,0.0,0.0,0.0,0.0,-1.3615,-1.3821,-1.331,-1.3585,-1.3621,-1.1961,-1.2244,0.0,-1.3113,-1.3162,-1.3162,-1.3162,-1.4835,-1.5522,-1.3248,-1.2861,-1.2126,-1.0031,-1.1268,0.0,0.0,-1.4232,0.0,-1.3329,-1.2404,-1.1458,-1.0476,-0.8916,-0.8137,-0.8528,-0.8165,-0.8182,-0.8578,-1.0771,-1.3002,-1.5242,-1.048,-0.8237,-0.8623,-1.3861,-1.8664,-2.3135,-2.3135,-2.9455,-4.0767,-4.462,-4.3944,-3.9599,-3.2932,-2.6477,-2.0898,-2.1674,-1.9265,-1.5242,-1.5242,-1.2129,-0.8038,0.0,0.0,0.0,0.0,0.0,0.0,0.0,0.0,0.0,0.0,0.0,-0.0359,-0.1269,-0.1626,-0.1803,0.0,0.0,0.0,0.0,0.0,0.0,-0.3111,-0.3111,-0.3111,-0.3111,-0.2241,-0.1875,-0.2019,-0.2019,-0.2019,-0.2019,-0.2019,-0.194,-0.1803,-0.2084,-0.2676,-0.3547,-0.42,-0.426,-0.4107,-0.6674,-0.7695,0.0,0.0,0.0,0.0,-0.7695,-0.8828,0.0,0.0,0.0,0.0,0.0,0.0,0.0,0.0,-1.1811,-1.1373,-1.1104,0.0,-1.228,-1.1451,-1.2219,-1.253,0.0,-1.1277,-1.343,-1.5242,-1.5656,-1.5656,-1.5656,-1.4617,-1.3563,-1.2968,-1.2669,-1.2228,-1.1343,0.0,0.0,0.0,-1.491,-1.4922,-1.2597,-1.2057,-1.097,-0.8821,-0.8233,-0.9698,-1.3782,-1.0194,-0.9809,-1.3806,-1.2651,-1.1184,-0.9895,-0.8623,-0.9989,-1.407,-1.8983,-2.1952,-2.3135,-2.3135,-3.1026,-4.4893,-4.587,-4.3944,-3.9797,-3.5789,-2.9569,-2.1826,-1.4465,-1.0821,-0.9797,-0.9797,-0.9015,-0.8038,0.0,0.0,0.0,0.0,0.0,0.0,0.0,0.0,0.0,0.0,0.0336,-0.047,-0.167,-0.1803,-0.1803,0.0,0.0,0.0,0.0,-0.2367,-0.2955,-0.3485,-0.3506,-0.3266,-0.274,-0.211,-0.1803,-0.1803,-0.1803,-0.1803,-0.1803,-0.1803,-0.1803,-0.1839,-0.2923,-0.3432,-0.3539,-0.4077,-0.4329,-0.4513,-0.6801,0.0,0.0,0.0,0.0,0.0,-0.8896,-0.9492,0.0,-1.0283,-1.0283,-1.0283,0.0,0.0,0.0,0.0,-1.1105,-1.1067,-1.084,-1.0965,-1.1084,-1.0585,-1.1712,-1.232,-0.9996,-1.2105,-1.4926,-1.6238,-1.6522,-1.6151,-1.5062,-1.3789,-1.2881,-1.2881,-1.2935,-1.2869,0.0,0.0,0.0,-1.3774,-1.4536,-1.4702,0.0,-1.3761,-1.3108,-1.1643,-1.1546,-1.2807,-1.5635,-1.0867,-0.9308,-1.2129,-1.3199,-1.3006,-1.1546,-1.1546,-1.0524,-0.8601,-1.1257,-1.6211,-2.3135,-2.521,-3.3509,-4.619,-4.4289,-3.9786,-3.3593,-3.008,-2.37,-1.5591,-1.0143,-0.8038,-0.7736,-0.5222,-0.4321,-0.4321,0.0,0.0,0.0,0.0,0.0,0.0,0.0,0.0,0.0,0.0,0.0,0.0,0.0,0.0,0.0,0.0,0.0,0.0,-0.1803,-0.1803,-0.2241,-0.3196,-0.3245,-0.2783,-0.1825,-0.1803,-0.1803,-0.1803,-0.1803,-0.1803,-0.1803,-0.1803,-0.1891,-0.2156,-0.4138,-0.4456,-0.3586,-0.4783,-0.5309,-0.5404,-0.6777,0.0,0.0,0.0,0.0,0.0,0.0,0.0,0.0,-1.0283,-1.0283,-1.0283,-1.0283,0.0,0.0,0.0,0.0,0.0,-1.0981,-1.0725,-1.0283,-1.0283,-1.1887,-1.3068,-1.1562,-1.3958,-1.6522,-1.6522,-1.6522,-1.5888,-1.3836,-1.3162,0.0,-1.3152,-1.3667,0.0,-1.3621,0.0,0.0,-1.34,-1.4255,0.0,-1.5752,-1.5779,-1.5832,-1.5832,-1.5832,-1.5439,-1.4657,-1.0378,-0.8333,-0.9213,-1.3488,-1.5777,-1.5774,-1.4172,-0.8897,0.0,0.0,-0.6843,-1.9889,-2.7911,-3.633,-4.4455,-4.0922,-3.2961,-2.2244,-1.9604,-1.4349,-0.7909,-0.8004,-0.7534,-0.6229,-0.1712,0.0,0.0,0.0,0.0,0.0,0.0,0.0,0.0,0.0,0.0,0.0,0.0,0.0,0.0,0.0,0.0,0.0,0.0,0.0,0.0,-0.1803,-0.1803,-0.1869,-0.2044,-0.2066,-0.1978,-0.1803,-0.1803,-0.1803,-0.1803,-0.1803,-0.1803,-0.1803,-0.1803,-0.2302,-0.3251,-0.3625,-0.3672,-0.3586,-0.4783,-0.5309,-0.5309,-0.5561,0.0,0.0,0.0,0.0,0.0,0.0,0.0,0.0,-1.0283,-1.0283,-1.0283,-1.0283,0.0,0.0,0.0,0.0,0.0,-1.0428,-1.04,-1.0283,-1.0283,-1.3148,-1.5891,-1.5593,-1.6046,-1.6522,-1.6522,-1.6522,-1.638,-1.602,-1.4294,-1.3248,0.0,0.0,-1.5729,0.0,0.0,-1.3648,-1.352,0.0,-1.7101,-1.5866,-1.5756,-1.5832,-1.5832,-1.5832,-1.3878,-0.9406,-0.8428,-0.9989,-1.4465,-1.5343,-1.5783,-1.5789,-0.6856,-0.1607,0.0,0.0,-0.1204,-0.4376,-2.8483,-3.8614,-3.7109,-3.6473,-2.3985,-0.4368,-0.7772,-0.8392,-0.7329,-0.7841,-0.5222,-0.1109,-0.0303,0.0,0.0,0.0,0.0,0.0,0.0,0.0,0.0,0.0,0.0,0.0,0.0,0.0,0.0,0.0,0.0,0.0,0.0,0.0,-0.1114,-0.1759,-0.1803,-0.1803,-0.1803,-0.1803,-0.1803,-0.1803,-0.1803,-0.1803,-0.1803,-0.1803,-0.1803,-0.1803,-0.2437,-0.3004,-0.3506,-0.3506,-0.3506,-0.3539,-0.4102,-0.4703,-0.5309,0.0,0.0,0.0,0.0,0.0,0.0,0.0,0.0,0.0,0.0,-1.0283,-1.0283,-1.0283,0.0,0.0,0.0,0.0,0.0,-1.0283,-1.0283,-1.0547,-1.1445,-1.316,-1.456,-1.456,-1.5567,-1.6522,-1.6522,-1.6522,0.0,0.0,0.0,-1.3214,-1.4202,0.0,-1.6571,-1.6228,-1.4364,-1.3447,0.0,0.0,-1.6627,-1.8171,-1.8377,-1.7681,-1.5961,-1.5244,-1.2773,-0.7736,-0.7862,-1.0378,-1.5635,-1.5758,-1.3009,-0.7327,-0.2428,0.0,0.0,0.0,0.0,-0.0784,-2.4975,-3.5812,-3.5264,-3.0777,-2.0756,-0.7597,-0.7237,-0.7139,-0.6897,-0.4562,-0.2177,0.0382,0.3269,0.2516,0.0,0.0,0.0,0.0,0.0,0.0,0.0,0.0,0.0,0.0,0.0,0.0,0.0,0.0,0.0,0.0,0.0,0.0,-0.0514,-0.1714,-0.1803,-0.1803,-0.1803,-0.1803,-0.1803,-0.1803,-0.1803,-0.1803,-0.1803,-0.1803,-0.1803,-0.1825,-0.2961,-0.3506,-0.3506,-0.3506,-0.3506,-0.3506,-0.3506,-0.4024,-0.489,0.0,0.0,0.0,0.0,0.0,0.0,0.0,0.0,0.0,0.0,0.0,0.0,0.0,0.0,0.0,-1.0283,-1.0283,-1.0283,-1.0283,-1.0283,-1.0605,-1.1943,-1.2578,-1.2881,-1.2881,-1.434,-1.5656,-1.5656,-1.6107,0.0,0.0,-1.3922,0.0,-1.4897,-1.6427,-1.7341,-1.6894,-1.5194,-1.4518,-1.5869,-1.5803,-1.6927,-2.0313,-2.0566,-1.9607,-1.7124,-1.6107,-1.314,-0.7397,-0.7577,-0.9144,-1.202,-1.2091,-0.8158,-0.0098,0.0,0.0,0.0,0.0,0.0,-0.0536,-1.6738,-2.7011,-3.1612,-2.42,-1.7706,-1.2169,-0.8619,-0.6425,-0.5087,-0.1434,0.0,0.0466,0.4624,0.4274,0.1672,0.0,0.0,0.0,0.0,0.0,0.0,0.0,0.0,0.0,0.0,0.0,0.0,0.0,0.0,0.0,0.0,0.0,-0.0514,-0.1714,-0.1803,-0.1803,-0.1803,-0.1803,-0.1803,-0.1803,-0.1803,-0.1803,-0.1803,-0.1803,-0.1803,-0.1825,-0.2961,-0.3506,-0.3506,-0.3506,-0.3506,-0.3506,-0.3506,-0.3552,-0.3725,-0.4843,0.0,0.0,0.0,0.0,0.0,0.0,0.0,0.0,0.0,0.0,0.0,0.0,0.0,-1.0283,-1.0283,-1.0283,-1.0283,-1.0283,-1.0283,-1.0312,-1.0479,-1.1689,-1.2881,-1.2881,-1.3017,-1.3152,-1.3152,-1.4926,0.0,0.0,-1.7022,-1.7676,-1.7735,-1.828,-1.8356,-1.7153,0.0,-1.8635,-1.7368,-1.8955,-2.0235,-2.0566,-2.0566,-2.0528,-2.0251,-2.0146,-1.6354,-0.7566,-0.718,-0.531,-0.1263,-0.117,-0.0811,-0.0,0.0,0.0,0.0,0.0,0.0,-0.0076,-0.1599,-0.9377,-2.143,-1.6802,-1.2043,-0.7577,-0.7224,-0.4465,-0.0449,-0.009,0.0,0.0,0.0403,0.3172,0.6644,0.0,0.0,0.0,0.0,0.0,0.0,0.0,0.0,0.0,0.0,0.0,0.1336,0.0135,0.0,0.0,0.0,0.0,-0.0202,-0.0648,-0.138,-0.1803,-0.1803,-0.1803,-0.1803,-0.1803,-0.1803,-0.1803,-0.1803,-0.1803,-0.2172,-0.2869,-0.3309,-0.3506,-0.3506,-0.3506,-0.3506,-0.3506,-0.3506,-0.3506,-0.3606,-0.4803,-0.5309,0.0,0.0,0.0,0.0,0.0,0.0,0.0,0.0,-0.8691,-0.8691,-0.8691,-0.9424,-1.0176,-0.9648,-0.9863,-1.0283,-1.0283,-1.0283,-1.0283,-1.0283,-1.0781,-1.1553,-1.2637,-1.3701,-1.4453,-1.4453,-1.6655,0.0,0.0,0.0,-1.9177,-1.9269,-1.989,-2.0158,-1.9798,-1.9584,-1.9428,-1.9349,-2.0978,-2.1743,-2.0681,-2.285,-2.322,-2.0789,-1.5427,-1.1974,-1.1472,-1.0735,-0.718,-0.0179,0.0,0.6315,1.9484,2.362,1.7005,0.0,0.0,0.0,0.0,0.0,-0.2827,-0.787,-0.9143,-0.8703,-0.7139,-0.7139,-0.6068,-0.4107,-0.1166,0.0,0.0376,0.3368,0.559,0.7227,0.0,0.0,0.0,0.0,0.0,0.0,0.0,0.0,0.1803,0.0,0.0,0.0,0.0,0.0,0.0,0.0,0.0,-0.0157,-0.0537,-0.0981,-0.1405,-0.1791,-0.1791,-0.1809,-0.1803,-0.1803,-0.1617,-0.1233,-0.1967,-0.274,-0.3506,-0.3506,-0.3506,-0.3506,-0.3506,-0.3506,-0.3506,-0.3506,-0.3718,-0.4148,-0.4957,-0.5309,0.0,0.0,0.0,0.0,0.0,0.0,0.0,0.0,-0.7695,-0.7695,-0.7695,-0.8721,-0.9766,-0.918,-0.9852,-1.0697,-1.04,-1.0283,-1.041,-1.0967,-1.0724,-1.0596,-1.1787,-1.3799,-1.5566,-1.6113,-1.816,-1.9133,-1.6923,0.0,0.0,0.0,-2.0282,-2.0467,-2.054,-2.0045,-1.9717,-1.9762,-2.1718,-2.2678,-2.1471,-2.2865,-2.2913,-2.075,-1.3222,-1.0656,-1.5083,-1.4523,-0.9785,-0.0258,0.0,0.9643,2.9738,2.8772,2.0887,0.6509,0.6509,0.421,0.0,0.0,0.0,-0.0269,-0.4999,-0.7139,-0.7126,-0.6939,-0.6973,-0.6605,-0.188,0.0,0.0539,0.5354,0.7139,0.7197,0.0,0.0,0.0,0.0,0.0,0.0,0.0,0.0,0.1803,0.1803,0.1803,0.0,0.0,0.0,0.0,0.0,0.0,-0.0514,-0.1714,-0.0671,-0.054,-0.1725,-0.1792,-0.1804,-0.1803,-0.1792,-0.1198,-0.0,-0.2357,-0.3493,-0.3473,-0.3493,-0.3506,-0.3506,-0.354,-0.3519,-0.3519,-0.3519,-0.4215,-0.5309,-0.5309,-0.5309,-0.5309,0.0,0.0,0.0,0.0,0.0,0.0,0.0,-0.7695,-0.7695,-0.7695,-0.8311,-0.8994,-0.8994,-1.0284,-1.1568,-1.0582,-1.0322,-1.0693,-1.2422,-1.1606,-1.0322,-1.0342,-1.2939,-1.5879,-1.7627,-1.8918,-1.9133,-1.6923,-1.7438,0.0,-1.961,-1.9291,-1.8841,-1.8635,-1.9786,-1.9987,-1.825,-2.1014,-2.3078,-2.3065,-1.9998,-1.8711,-2.042,-1.5439,-1.3947,-1.7794,-1.7862,-1.2315,-0.0392,0.0,0.8511,2.6274,0.9004,0.7008,2.0547,2.0547,1.3382,0.018,0.009,0.0,-0.0269,-0.4994,-0.7044,-0.7085,-0.6502,-0.6603,-0.6596,-0.188,0.0,0.0539,0.5354,0.7139,0.7139,0.0,0.0,0.0,0.0,0.0,0.0,0.0,0.0,0.1803,0.1803,0.1803,0.0,0.0,0.0,0.0,0.0,0.0,-0.0157,-0.0514,-0.0202,-0.0157,-0.0517,-0.1356,-0.1804,-0.1803,-0.0972,-0.0361,-0.0,-0.2357,-0.2663,-0.1076,-0.2729,-0.3911,-0.4679,-0.5916,-0.5833,-0.4763,-0.4763,-0.4963,-0.5309,-0.5309,-0.5309,-0.5309,0.0,0.0,0.0,0.0,0.0,0.0,0.0,0.0,0.0,-0.7695,-0.787,-0.8075,-0.8075,-0.8468,-0.9414,-1.171,-1.1356,0.0,-1.0928,-1.1701,-1.2767,-1.4298,-1.4129,-1.4121,-1.583,-1.8126,-1.9133,-1.6923,-1.6798,0.0,-1.8807,-1.9297,-1.9818,-2.0517,-2.0991,-2.0718,-1.9432,-2.1565,-2.2175,-1.9748,-1.8586,-1.8223,-1.873,-1.4743,-1.3947,-1.7794,-0.9958,-0.3679,-0.0078,0.0,0.7756,2.3942,1.6484,1.4707,1.8769,1.8769,1.7239,1.4151,0.447,0.0,-0.009,-0.1511,-0.3828,-0.6508,-0.6332,-0.4609,-0.197,-0.0526,0.0,0.0539,0.5354,0.7139,0.7139,0.0,0.0,0.0,0.0,0.0,0.0,0.2141,0.1803,0.1803,0.1803,0.138,0.0803,0.0,0.0,0.0,0.0,0.0,0.0,0.0,0.0,0.0,0.0,-0.1152,-0.1804,-0.1803,-0.1088,-0.0718,-0.0718,-0.2581,-0.2992,-0.2056,-0.3475,-0.4252,-0.4509,-0.5576,-0.5772,-0.5282,-0.4783,-0.485,-0.5309,-0.5309,-0.5309,-0.5309,0.0,0.0,0.0,0.0,0.0,0.0,0.0,0.0,0.0,-0.7264,-0.7539,-0.7695,-0.7695,-0.7695,-0.8178,-1.04,-1.1239,0.0,-1.1468,-1.2279,-1.3417,-1.4786,0.0,0.0,0.0,-1.7775,-1.9133,-1.6923,-1.6522,0.0,-1.8292,-1.9233,-2.0037,-2.0727,-2.0815,-2.0564,-1.9886,-2.0991,-2.0807,-1.8267,-1.8008,-1.7364,-1.5869,-1.5013,-1.3457,-1.0957,-0.397,0.0,0.0,0.0,0.445,1.3866,1.1868,1.3282,1.8008,1.8008,1.7741,1.6877,0.5317,0.0,-0.0085,-0.1766,-0.3908,-0.618,-0.4455,-0.227,0.0158,0.1834,0.1448,0.0341,0.3225,0.5459,0.7139,0.0,0.0,0.3807,0.4785,0.0,0.0,0.2124,0.1803,0.1803,0.1803,0.0849,0.0112,0.0,0.0,0.0,0.0,0.0,0.0,0.0,-0.0112,-0.0157,-0.0157,-0.1217,-0.1801,-0.1803,-0.1803,-0.1803,-0.1803,-0.2934,-0.3986,-0.4952,-0.4952,-0.4502,-0.3659,-0.3552,-0.3977,-0.4771,-0.3864,-0.4142,-0.5161,-0.5269,-0.5309,-0.5309,-0.5309,0.0,0.0,0.0,0.0,0.0,0.0,0.0,0.0,-0.654,-0.7255,-0.7695,-0.7695,-0.7812,-0.7899,-0.7708,-1.0222,0.0,-1.3141,-1.3062,0.0,-1.3152,-1.1991,-1.1729,-1.4839,0.0,-1.8894,-1.6886,-1.6522,-1.6873,-1.7978,-1.8995,-1.966,-1.966,-1.9748,-1.9798,-1.9798,-1.9579,-1.8939,-1.7873,-1.7494,-1.6016,-1.2848,-1.496,-1.1546,-0.0607,0.0,0.0557,0.1778,0.1532,0.0928,0.0,0.1091,0.7166,1.8008,1.7647,1.5255,1.0902,0.3407,0.0,-0.0235,-0.4028,-0.5742,-0.5395,-0.1566,0.0,0.0392,0.4613,0.3752,0.0,0.0,0.2737,0.6514,0.0,0.0,0.3569,0.3807,0.0,0.0,0.2019,0.1803,0.1803,0.1803,0.1582,0.1048,0.0112,0.0,0.0,0.0,0.0,0.0,0.0,-0.0878,-0.1418,-0.1405,-0.1651,-0.1809,-0.1803,-0.1803,-0.1803,-0.1803,-0.2934,-0.3626,-0.3848,-0.3848,-0.4223,-0.4863,-0.3918,-0.2623,-0.1242,-0.2829,-0.3652,-0.3957,-0.491,-0.5309,-0.5309,-0.5309,-0.5309,0.0,0.0,0.0,0.0,0.0,0.0,0.0,-0.6305,-0.7107,-0.7695,-0.7695,-0.8682,-0.9347,-0.7609,-0.8979,0.0,0.0,-1.2919,-1.3382,-1.5287,-1.544,-1.5367,-1.6133,-1.6748,-1.7074,-1.6609,-1.6522,-1.6785,-1.7601,-1.8191,-1.8543,-1.8543,-1.9271,-1.9798,-1.9798,-1.7775,-1.6226,-1.5988,-1.3643,-1.2893,-1.4639,-0.8017,-0.2708,-0.0135,0.0,0.4783,1.5188,1.3322,0.8175,0.0078,0.9369,1.5453,1.794,1.4942,0.9681,0.2563,0.0782,0.0,-0.0078,-0.0939,-0.1386,-0.1254,-0.0392,0.0,0.0392,0.4613,0.3752,0.0,0.0,0.0666,0.2059,0.0,0.0,0.0,0.0,0.0,0.0,0.0,0.0,0.1803,0.1803,0.1292,0.0692,0.0067,0.0,0.0,0.0,-0.0517,-0.0854,-0.0871,-0.1455,-0.1794,-0.1803,-0.1803,-0.1803,-0.1803,-0.1803,-0.1803,-0.1803,-0.2934,-0.3506,-0.3519,-0.4077,-0.4689,-0.5262,-0.403,-0.2822,-0.176,-0.2988,-0.3506,-0.3559,-0.4195,-0.4776,-0.5309,-0.5309,-0.5309,-0.5309,-0.5309,0.0,0.0,0.0,0.0,0.0,0.0,0.0,-0.6535,-0.6535,-0.7205,-0.7993,-0.8461,0.0,0.0,-1.0573,0.0,-1.1616,-1.4168,-1.4789,-1.4789,-1.4789,-1.57,-1.638,-1.5988,-1.625,-1.6647,-1.7024,-1.7262,-1.74,-1.74,-1.7877,-1.7774,-1.6623,-1.5164,-1.4199,-1.4199,-1.2692,-1.0669,-0.82,0.4604,1.1007,0.8063,0.7889,1.0909,1.7489,1.1436,0.5474,0.0073,1.4726,2.0342,1.6694,0.973,0.4173,-0.0146,-0.3534,-0.3249,0.0,0.0,0.0972,0.2549,0.2549,0.2773,0.3205,0.5473,0.4927,0.3049,0.3049,0.2986,0.3384,0.0,0.0,0.0,0.0,0.0,0.0,0.0,0.0,0.0,0.1775,0.0936,0.0224,0.0022,0.0,0.0,0.0,0.0,0.0,-0.1806,-0.1803,-0.1803,-0.1803,-0.1803,-0.1803,-0.1803,-0.1803,-0.1803,-0.1803,-0.2934,-0.3393,-0.3242,-0.4644,-0.5309,-0.5269,-0.4262,-0.3805,-0.3791,-0.3592,-0.3619,-0.3805,-0.3805,-0.4289,-0.4997,-0.5235,-0.5309,-0.5246,-0.4953,-0.3914,-0.2712,-0.2712,0.0,0.0,0.0,0.0,-0.5309,-0.5309,-0.5309,-0.5837,-0.8302,0.0,-0.7124,-0.7747,-0.7928,0.0,-1.0931,-1.1394,-1.1586,-1.2657,-1.4652,-1.602,-1.54,-1.5932,-1.6522,-1.6522,-1.6522,-1.6522,-1.6522,-1.6522,-1.5611,-1.32,-1.2471,-1.2372,-1.2832,-1.1545,-0.7695,-0.0558,1.4983,2.188,1.6767,1.6107,1.5581,1.4988,0.6957,0.1794,0.0,1.4696,1.8932,1.2663,0.4081,0.0,-0.0202,-0.6067,-0.5542,0.0067,0.0673,0.2616,0.5428,0.5428,0.5785,0.6338,0.6338,0.6338,0.6183,0.5473,0.5709,0.6346,0.0,0.0,0.0,0.0,0.0,0.0,0.0,0.0,0.0,0.0,0.167,0.1159,0.0112,0.0,0.0,0.0,-0.1104,-0.1804,-0.1806,0.0,0.0,-0.1803,-0.1803,-0.1803,-0.1803,-0.1803,-0.1803,-0.1803,-0.2934,-0.3004,-0.2078,-0.4284,-0.5309,-0.5302,-0.5148,-0.5043,-0.4983,-0.3938,-0.4115,-0.5043,-0.5043,-0.4529,-0.3851,-0.489,-0.5309,-0.5112,-0.3593,-0.2911,-0.2712,-0.2712,-0.2845,0.0,0.0,0.0,-0.5309,-0.5309,-0.5309,-0.5081,-0.4009,0.0,-0.6581,0.0,-0.4282,-0.4529,0.0,0.0,-0.639,0.0,-1.3978,-1.5017,-1.5266,-1.5932,-1.6522,-1.6522,-1.6522,-1.6522,-1.6522,-1.6522,-1.5611,-1.32,-1.0787,-1.0285,-1.2676,-0.612,-0.1219,-0.0112,1.1001,1.7377,1.6527,1.4525,1.3359,1.3263,1.3318,0.9036,0.0067,0.2344,0.308,0.2037,0.0639,0.0,0.0,-0.1006,-0.0872,0.0202,0.3349,0.4957,0.5428,0.5428,0.5785,0.6338,0.6338,0.6338,0.5867,0.2192,0.3129,0.6346,0.0,0.0,0.0,0.0,0.0,0.0,0.0,0.0,0.0,0.0,0.0,0.0845,0.0984,0.0403,0.0,0.0,-0.1104,-0.1804,-0.1806,-0.1803,-0.1803,-0.1803,-0.1803,-0.1803,-0.1803,-0.1803,-0.1803,-0.1803,-0.2302,-0.228,-0.1839,-0.3214,-0.3849,-0.3849,-0.3849,-0.4371,-0.5275,-0.4729,-0.481,-0.5309,-0.5309,-0.497,-0.4562,-0.5084,-0.4692,-0.3756,-0.2973,-0.2712,-0.2712,-0.2712,-0.2712,-0.2779,-0.3142,0.0,0.0,0.0,-0.5309,-0.4922,-0.3171,-0.3638,-0.4414,0.0,-0.3581,-0.3649,-0.3955,-0.3782,-0.5075,-1.0344,-1.2635,-1.3931,-1.4801,-1.58,-1.6522,-1.6522,-1.6107,-1.5988,-1.6436,-1.5344,-1.4071,-1.3017,-0.7541,-0.4321,-0.5544,0.5346,1.1585,0.9403,1.3736,1.6522,1.6522,1.2725,1.0584,1.0584,0.8117,0.4594,0.0061,0.0,0.0,0.0,0.2031,0.1946,0.0,0.0,0.0,0.0202,0.3818,0.5428,0.5456,0.5796,0.6094,0.6338,0.6338,0.4846,0.2817,0.3361,0.4691,0.6298,0.0,0.0,0.0,0.0,0.0,0.0,0.0,0.0,0.0,0.0,0.0,0.046,0.1672,0.0,0.0,0.0,-0.1104,-0.1804,-0.1806,-0.1803,-0.1875,-0.2029,-0.1885,-0.1803,-0.1803,-0.1803,-0.1803,-0.1803,-0.1961,-0.1954,-0.1813,-0.2419,-0.2704,-0.269,-0.2683,-0.3429,-0.4628,-0.4628,-0.4628,-0.466,-0.5119,-0.5309,-0.5246,-0.482,-0.3821,-0.2712,-0.2712,-0.2411,-0.2075,-0.2547,-0.2712,-0.2712,-0.2712,-0.2712,0.0,0.0,0.0,0.0,0.0,0.0,-0.2682,-0.2697,-0.2682,-0.2862,0.0,0.0,-0.4893,0.0,-1.167,-1.3198,-1.4122,-1.5525,-1.6466,-1.6293,-1.57,-1.548,-1.5969,-1.1661,-0.7132,-0.35,0.1679,0.5397,0.641,1.6091,2.0703,1.6769,1.5932,1.5611,1.5611,1.1247,0.8804,0.8804,0.3092,0.0,0.0,0.0,0.0,0.0059,0.3492,0.3843,0.1344,0.1344,0.1344,0.1545,0.422,0.5428,0.5476,0.6088,0.6338,0.6183,0.5082,0.2737,0.0549,0.4768,0.6338,0.6281,0.0,0.0,0.0,0.0,0.0,0.0,0.0,0.0,0.0,0.0,0.0,0.046,0.1672,0.1736,0.1247,0.009,-0.1104,-0.1804,-0.1806,-0.1803,-0.2064,-0.264,-0.2112,0.0,-0.1803,-0.1803,-0.1803,-0.1803,-0.2383,-0.2373,-0.1806,-0.2426,-0.2696,-0.271,-0.269,-0.2746,-0.2845,-0.2845,-0.2845,-0.2973,-0.4628,-0.5309,-0.5119,-0.3462,-0.2779,-0.2712,-0.2712,-0.1607,-0.0402,-0.2109,-0.2712,-0.2712,-0.2712,-0.2712,-0.2716,0.0,0.0,0.0,0.0,-0.2712,0.0,-0.0601,-0.018,0.0,0.0,0.0,-0.4856,-0.9394,-1.167,-1.2982,-1.3213,-1.5061,-1.6324,-1.5732,-1.5433,-1.52,-1.4817,-0.4136,0.8668,2.2106,2.0702,2.0179,2.3985,2.3116,2.0703,1.6769,1.4387,1.3113,1.3113,1.0379,0.8804,0.8804,0.3092,0.0,0.0,0.0,0.0,0.0067,0.3098,0.4746,0.5093,0.5093,0.5093,0.516,0.5296,0.5428,0.5476,0.6088,0.6338,0.5867,0.1879,0.0157,0.0549,0.4768,0.6338,0.6339,0.0,0.0,0.0,0.0,0.0,0.0,0.0,0.0,0.0,0.0,0.0,0.0,0.0,0.1803,0.1314,0.0112,-0.1096,-0.1791,-0.1803,-0.217,-0.2486,-0.2706,-0.2506,-0.2386,-0.2386,-0.2386,-0.2197,-0.1803,-0.2414,-0.238,-0.1801,-0.1238,-0.0955,-0.0976,-0.0972,-0.1607,-0.2712,-0.2712,-0.2712,-0.2746,-0.3364,-0.3626,-0.356,-0.2944,-0.2712,-0.2712,-0.2712,0.0,-0.0269,-0.2089,-0.2693,-0.2712,-0.2712,-0.2712,-0.2712,-0.2712,-0.2712,-0.2712,0.0,0.0,0.0,-0.0443,0.0,0.0179,0.0844,-0.1375,-0.4894,-0.9394,-1.0781,-1.1269,-1.1328,-1.3784,-1.543,-1.4343,-1.4437,-1.3086,-0.8682,-0.0717,0.7472,1.5042,1.9804,2.266,2.3217,2.1936,2.011,1.772,1.6368,1.554,1.5242,1.1165,0.8804,0.8804,0.3092,0.0,0.0,0.0,0.0973,0.2932,0.4399,0.5216,0.5428,0.5428,0.5428,0.5428,0.5428,0.5428,0.5205,0.3153,0.227,0.2113,0.0628,0.0,0.0549,0.4768,0.6338,0.6291,0.0,0.0,0.0,0.5108,0.0,0.3911,0.3548,0.3506,0.3506,0.3506,0.0,0.0,0.0,0.0,0.087,0.0067,-0.0738,-0.1449,-0.2069,-0.2297,-0.2221,-0.1802,-0.1807,-0.1807,-0.1807,-0.1807,-0.1612,-0.1196,-0.1612,-0.1575,-0.1174,-0.0371,0.0,0.0,0.0,-0.0655,-0.1807,-0.1807,-0.2142,-0.2712,-0.2712,-0.2712,-0.2577,-0.1363,-0.1632,-0.2712,0.0,0.0,0.0,-0.0469,-0.09,-0.0795,-0.0197,-0.0824,-0.1907,-0.251,-0.2712,-0.2712,-0.2712,0.0,0.0,0.0,0.0448,0.1374,0.3178,0.1108,-0.2275,-0.6044,-0.8078,-0.8939,-0.8142,-1.1095,-1.3597,-1.3368,-1.1944,-0.8613,-0.2246,0.4176,0.9706,1.372,1.9497,2.2786,2.1859,2.0464,1.9068,1.7653,1.6811,1.6393,1.6509,1.2474,0.8822,0.5927,0.205,0.0,0.0,0.0,0.1507,0.4525,0.5137,0.5428,0.5428,0.5428,0.5428,0.5428,0.5428,0.5428,0.5135,0.1504,0.0,0.0,0.0,0.0,0.0549,0.4768,0.6338,0.6338,0.6717,0.586,0.5127,0.5108,0.5108,0.4726,0.3668,0.3506,0.3506,0.3506,0.0,0.0,0.0,0.0,0.0,0.0,0.0,-0.0773,-0.2577,-0.2107,-0.1214,-0.0067,0.0,0.0034,0.0067,0.0067,0.0067,0.0,0.0,0.0,0.0,0.0,0.0022,0.0079,0.0081,0.008,0.0067,0.0034,-0.1004,-0.2613,-0.2613,-0.2577,-0.2137,0.1429,0.0563,0.0,-0.2507,-0.0267,0.0,0.2815,0.0,0.0,0.0,0.2867,-0.0268,-0.2075,-0.2613,-0.2613,0.0,0.0,0.0,0.0,0.0,0.0,0.3478,0.3612,0.2934,0.0575,-0.3533,-0.5922,-0.3478,-0.6732,-1.0446,-1.2456,-0.7837,-0.1923,0.4093,1.0905,1.6853,2.1009,2.1475,2.142,2.142,1.9385,1.7666,1.6595,1.5377,1.5197,1.6337,1.4107,0.8857,0.028,0.0,0.0,0.0,0.0,0.1507,0.4525,0.5137,0.5428,0.5428,0.5491,0.5557,0.5557,0.5428,0.5428,0.5135,0.1504,0.0,0.0,-0.0157,-0.0079,0.0471,0.4611,0.6183,0.6342,0.9162,0.7474,0.5961,0.5224,0.5108,0.4726,0.3668,0.3506,0.3506,0.0,0.0,0.0,0.3025,0.1993,0.0954,0.009,0.0,-0.0783,-0.257,-0.1324,-0.0345,-0.0,0.0,0.0603,0.1907,0.1942,0.1305,0.0,0.0,0.0,0.0,0.0,0.0694,0.1954,0.1943,0.1957,0.1873,0.057,-0.0302,-0.0737,-0.0737,0.0033,0.146,0.3727,0.3167,0.0,0.0,0.2392,0.3076,0.0,0.7148,0.7633,0.0,0.2735,0.1605,-0.0201,-0.0737,-0.0737,-0.0737,0.0,0.0,0.0,0.0,0.0,0.397,0.419,0.3874,0.2822,0.1591,0.1661,0.4898,0.3526,0.0854,-0.2387,-0.0985,0.2851,0.955,1.4753,1.8818,2.1352,2.0679,1.9872,1.9572,1.8642,1.7585,1.6494,1.562,1.4755,1.3931,1.1366,0.6908,0.0224,0.0,0.0,0.0,0.0,0.1507,0.4525,0.5137,0.5428,0.5495,0.8027,0.9128,0.9,0.647,0.5428,0.5135,0.1504,0.0,-0.0314,-0.3361,-0.266,0.0157,0.1332,0.3675,0.6322,0.8679,0.8236,0.7368,0.5441,0.5711,0.557,0.3766,0.3506,0.3506,0.0,0.0,0.0,0.3195,0.1906,0.0765,0.0058,0.0,-0.0436,-0.1507,-0.057,0.0,0.0,0.0737,0.1607,0.2679,0.3397,0.2922,0.1138,0.1138,0.1138,0.1104,0.0369,0.0971,0.2712,0.2712,0.2686,0.2626,0.1575,0.1138,0.1138,0.1138,0.1773,0.2812,0.3821,0.4043,0.0,0.0,0.0,0.4194,0.6811,0.8389,0.0,0.4919,0.4247,0.431,0.1859,0.0838,0.0637,0.1004,0.1966,0.2847,0.2878,0.0,0.0,0.3711,0.392,0.4094,0.4656,0.4768,0.5512,0.791,1.0285,1.0994,0.8351,0.8819,1.0714,1.414,1.7197,1.9376,2.0081,1.9375,1.8569,1.7918,1.7572,1.6998,1.6034,1.4869,1.3338,1.1292,0.7336,0.3526,0.0112,0.0,0.0,0.0,0.0,0.1507,0.4522,0.6049,0.6806,0.688,0.9444,1.0624,1.0428,0.6924,0.5428,0.5116,0.1509,-0.1058,-0.2893,-0.5318,-0.4768,-0.2426,-0.0628,0.266,0.6346,0.0,0.8638,0.8998,0.6128,0.6765,0.6813,0.4106,0.3698,0.3765,0.0,0.381,0.3356,0.2488,0.0968,0.0,0.0,0.0,0.0,0.0,0.0,0.0,0.0,0.174,0.2712,0.2712,0.4205,0.4339,0.2973,0.2812,0.2712,0.2679,0.1037,0.1171,0.2712,0.2712,0.2693,0.271,0.269,0.2712,0.2712,0.2712,0.2737,0.2776,0.2721,0.3788,0.5302,0.523,0.5363,0.585,0.77,0.8426,0.0,0.6443,0.7153,0.7978,0.4449,0.2737,0.2164,0.2791,0.2676,0.2514,0.3145,0.3389,0.0,0.3447,0.3537,0.4154,0.6085,0.6737,0.7266,0.8158,1.4084,1.8518,1.7503,1.8425,1.8818,1.7486,1.8498,1.9015,1.8026,1.7899,1.7518,1.6582,1.6459,1.6089,1.5299,1.3402,1.1039,0.8237,0.2927,0.0,0.0,0.0,0.0,0.0,0.0336,0.1842,0.4519,0.7444,0.8804,0.8844,1.0027,1.0624,1.0428,0.7312,0.5752,0.5093,0.1478,-0.2503,-0.6338,-0.6338,-0.6338,-0.5789,-0.1567,0.266,0.6335,1.0787,1.0305,0.9704,0.9071,0.8274,0.7075,0.5237,0.4937,0.5429,0.6711,0.5769,0.3816,0.0845,0.0213,0.0,0.0,0.0,0.0,0.0,0.0,0.0,0.0,0.174,0.2712,0.2712,0.3039,0.3719,0.4794,0.3397,0.2712,0.2679,0.2344,0.2377,0.2712,0.2712,0.2716,0.2686,0.2716,0.2712,0.2712,0.2712,0.2947,0.3289,0.2862,0.3788,0.5309,0.5302,0.6129,0.7721,1.1016,1.3066,1.3643,0.0,1.186,1.3864,0.9153,0.7184,0.6237,0.4839,0.5203,0.578,0.0,0.4701,0.0,0.5527,0.5695,0.592,0.6707,0.8847,1.1045,1.2618,1.4956,1.6414,1.5777,1.6607,1.7328,1.7229,1.8402,1.8747,1.743,1.7273,1.7085,1.6544,1.612,1.5557,1.4858,1.1492,0.7699,0.371,0.1282,0.0,0.0,0.0,0.0,0.0,0.2399,0.3901,0.4519,0.7444,0.8804,0.8844,1.0027,1.0624,1.0561,0.9907,0.8027,0.5093,0.1478,-0.2503,-0.6338,-0.6338,-0.6338,-0.5789,-0.1567,0.266,0.6278,1.0973,1.0322,0.9905,0.9905,0.8679,0.7145,0.5561,0.5309,0.5585,0.6382,0.4266,0.1982,0.0195,0.0,0.0,0.0,0.0831,0.1476,0.1789,0.153,0.1338,0.1338,0.2208,0.2712,0.2712,0.356,0.4436,0.5309,0.4436,0.356,0.2695,0.1785,0.1844,0.2712,0.2712,0.2712,0.2712,0.2712,0.32,0.3911,0.2727,0.0,0.4355,0.409,0.4532,0.5404,0.6199,0.7026,0.8395,1.2948,1.4501,0.0,1.2342,1.2749,1.3493,0.0,0.9397,0.7818,0.63,0.0,0.0,0.5926,0.0,0.0,0.0,0.6906,0.7781,0.9544,1.1353,1.322,1.523,1.6657,1.7561,1.7636,1.8177,1.8412,1.7916,1.8013,1.7624,1.6184,1.6892,1.7121,1.6211,1.6494,1.5904,1.3918,1.0179,0.6828,0.421,0.1449,0.0671,0.2174,0.2232,0.2232,0.2232,0.3735,0.4519,0.4519,0.7444,0.8804,0.8844,1.0027,1.1476,1.2931,1.1296,0.8608,0.5226,0.3418,0.1447,-0.0651,-0.2448,-0.3129,-0.2893,-0.0784,0.266,0.6338,1.047,1.0285,1.0185,0.9944,0.8679,0.7145,0.5561,0.5309,0.5309,0.5309,0.3067,0.1099,0.0107,0.0612,0.1021,0.1021,0.2046,0.3199,0.43,0.3426,0.2836,0.2719,0.3006,0.3204,0.3204,0.4596,0.5309,0.5309,0.5309,0.4403,0.2682,0.1209,0.1305,0.2699,0.2349,0.2386,0.2712,0.3072,0.4016,0.5159,0.0,0.3891,0.5309,0.5309,0.5309,0.5554,0.7443,0.8613,0.9916,1.4328,1.4845,1.3682,1.348,1.2914,0.0,0.0,0.0,0.0,0.0,0.0,0.0,0.0,0.0,0.7802,0.0,0.0,0.0,1.262,0.0,0.0,0.0,0.0,0.0,1.935,1.9948,1.9767,1.8029,1.7697,1.7068,1.5606,1.72,1.7879,1.6596,1.7363,1.6577,1.3382,0.9883,0.7413,0.6423,0.2861,0.1898,0.4128,0.4405,0.4519,0.4519,0.4519,0.4791,0.5332,0.7664,0.9061,0.9606,1.0581,1.2462,1.4762,1.1851,0.8608,0.5428,0.5428,0.5428,0.5068,0.1403,0.0,0.0,0.0,0.266,0.6338,1.1615,1.1579,1.1227,1.0084,0.8679,0.7145,0.5561,0.5309,0.5309,0.5309,0.6189,0.5078,0.0496,0.2816,0.4711,0.4711,0.3464,0.3993,0.7023,0.4896,0.3239,0.2737,0.4172,0.5017,0.5017,0.5214,0.5309,0.5309,0.5309,0.4403,0.2709,0.2503,0.2517,0.2644,0.1027,0.1205,0.2812,0.4339,0.5119,0.0,0.655,0.6348,0.0,0.5309,0.5309,0.5696,0.8612,1.1885,1.4964,0.0,1.5668,1.5359,0.0,1.485,1.5127,1.3412,0.0,0.0,0.0,0.0,0.0,0.0,1.0612,0.0,0.0,0.0,1.3077,1.4246,0.0,0.0,0.0,0.0,0.0,1.705,1.8783,1.9112,1.5711,1.7693,1.8965,1.7546,1.8993,1.9896,1.9311,1.8744,1.729,1.4506,1.1592,0.9394,0.8099,0.5436,0.3738,0.3183,0.4018,0.4519,0.4519,0.4519,0.5764,0.8315,0.8646,1.0079,1.2431,1.256,1.2855,1.3092,1.1338,0.8608,0.5428,0.5428,0.5428,0.503,0.143,0.0,0.0,0.0,0.266,0.6338,1.1805,1.1805,1.1637,1.1113,0.9881,0.8462,0.6918,0.6686,0.6686,0.6686,0.7264,0.6868,0.4699,0.6562,0.0,0.0,0.0,0.3927,0.0,0.5914,0.6814,0.5264,0.3291,0.3199,0.5269,0.5309,0.5309,0.5309,0.5309,0.4922,0.4205,0.4205,0.4205,0.4188,0.3407,0.2358,0.1308,0.4111,0.5309,0.0,0.0,0.782,0.0,0.7011,0.7673,0.925,1.0545,1.3576,1.6977,1.6977,1.7174,0.0,0.0,0.0,0.0,1.4511,0.0,0.0,0.0,0.0,0.0,0.0,0.0,0.0,1.4162,0.0,1.538,0.0,0.0,0.0,0.0,0.0,0.0,0.0,1.958,1.9593,1.7584,1.8903,1.9183,1.6781,1.8642,2.0148,2.0269,1.9331,1.8116,1.6637,1.3831,1.1519,0.996,0.6452,0.4298,0.3907,0.4294,0.4519,0.4519,0.4519,0.5928,0.8804,1.0438,1.176,1.2881,1.2881,1.2881,1.2773,1.0521,0.9131,0.8285,0.621,0.5428,0.5226,0.3751,0.1864,0.0,0.0,0.266,0.6338,1.2747,1.2299,1.1805,1.1805,1.076,0.941,0.7918,0.7695,0.787,0.8337,0.8396,0.8396,0.8396,0.9861,0.0,0.0,0.7831,0.426,0.0,0.0,1.0138,0.7998,0.4636,0.4034,0.6628,0.6095,0.5758,0.5758,0.5758,0.5591,0.5309,0.5309,0.5522,0.5928,0.5498,0.3333,0.0264,0.0,0.6545,0.7519,0.8088,0.7842,0.7068,0.6003,0.6832,0.8981,1.2266,1.531,1.7839,1.8128,1.8514,1.8823,1.8202,1.7424,1.6723,0.0,0.0,0.0,1.5735,0.0,0.0,0.0,0.0,0.0,0.0,0.0,0.0,0.0,0.0,0.0,0.0,0.0,2.0104,1.9987,0.0,1.9941,1.8924,1.9676,1.9403,1.688,1.8859,2.0442,2.0485,1.9831,1.906,1.8197,1.5486,1.3368,1.2272,0.7644,0.5179,0.5558,0.4886,0.4519,0.4519,0.4519,0.5928,0.8857,1.161,1.2881,1.2881,1.2881,1.2881,1.2725,0.9984,0.9292,0.9832,0.6545,0.5781,0.6793,0.6793,0.4665,0.1497,0.1662,0.3675,0.6338,1.5169,1.357,1.1805,1.1805,1.076,0.941,0.7918,0.7695,0.8289,0.999,1.0205,0.0,0.0,0.0,0.0,0.0,0.0,0.5465,0.0338,0.0,1.2234,1.0273,1.0068,1.0029,0.0,0.8059,0.6926,0.6926,0.6926,0.6386,0.5309,0.5309,0.6137,0.7549,0.5983,0.3333,0.0338,0.5465,0.9666,1.275,1.0687,0.6004,0.0309,0.0262,0.0302,0.1883,1.3463,1.7704,1.7954,1.8911,1.9485,1.9707,1.9343,1.8658,1.8197,0.0,0.0,0.0,1.86,1.8875,1.9071,1.8138,1.798,0.0,0.0,0.0,2.0298,0.0,0.0,0.0,2.1333,2.0772,2.0048,1.9267,1.9799,0.0,0.0,1.9356,2.0068,1.9183,2.065,2.126,2.003,2.0422,2.0107,1.8583,1.5987,1.4696,1.5234,0.9579,0.6963,0.8345,0.5869,0.4519,0.4519,0.4519,0.5928,0.8857,1.161,1.2881,1.2881,1.2881,1.2881,1.2725,0.9984,0.8831,0.8645,0.5749,0.6886,1.0428,1.0428,0.828,0.5299,0.5888,0.618,0.6338,1.4115,1.3347,1.2741,1.2741,1.237,1.1099,0.8157,0.8691,1.0077,0.0,0.0,0.0,0.0,1.3496,1.2609,0.0,0.0,0.8406,0.6657,1.0719,0.0,0.0,0.0,0.6218,0.0,1.1502,1.0472,0.9182,0.7716,0.6948,0.6897,0.6897,0.7175,0.7666,0.7145,0.6223,0.0,0.0,0.0,0.0,0.0,0.2009,0.0,0.0,0.0,0.0524,0.4567,0.6022,0.738,1.6297,1.967,2.0107,2.0001,1.9618,1.9272,1.9768,2.0954,2.203,2.1776,2.2038,2.2126,2.1104,2.137,2.1784,2.1499,2.1457,0.0,0.0,0.0,0.0,0.0,2.1368,2.0803,2.0535,2.0387,1.9926,0.0,1.9223,1.9729,2.0019,2.1133,0.0,2.0701,2.0374,1.9961,1.9355,1.6799,1.4877,1.3923,1.0933,0.841,0.6506,0.5779,0.4835,0.3516,0.5109,0.5932,0.6036,1.0671,1.3752,1.5287,1.5287,1.5287,1.5152,1.2589,1.049,0.8699,0.7771,0.8616,1.0624,1.0624,0.8479,0.5161,0.2941,0.3908,0.6718,1.4442,1.4117,1.3934,1.3288,0.0,1.2618,1.0851,1.1024,0.0,0.0,1.3891,0.0,1.439,0.0,1.2135,0.0,1.0592,1.0371,0.9919,1.1655,0.0,1.2283,0.7997,0.0,0.0,1.4117,1.3213,1.1319,1.1017,1.0067,0.8623,0.7978,0.8026,0.8613,0.7968,0.8004,0.8484,0.8484,0.9295,0.0,0.0,0.0,0.0496,0.5102,0.4004,0.0645,0.5566,0.7324,0.8597,1.6901,1.9982,2.0321,2.0315,2.0153,1.9984,2.0005,2.1427,2.3018,2.3108,2.3497,2.3652,2.2652,2.2842,2.3108,2.2497,2.2361,2.2456,2.2753,0.0,0.0,0.0,2.2003,2.1476,2.1246,2.0862,2.0365,0.0,1.9597,1.9859,2.0377,2.1032,0.0,0.0,2.0183,1.96,1.946,1.7258,1.5348,1.4072,1.1165,0.8582,0.6523,0.4714,0.3442,0.2736,0.4776,0.5391,0.457,1.0234,1.4154,1.6522,1.7312,1.7229,1.6423,1.4846,1.2686,1.0285,1.0285,1.0382,1.0491,0.9256,0.7377,0.5135,0.2753,0.468,0.8974,1.6052,1.5799,1.5285,1.3615,1.3323,0.0,0.0,0.0,1.3323,0.0,1.2455,1.1805,1.1805,1.1805,1.1805,1.1805,1.1805,1.1296,1.0072,1.1249,0.0,0.0,1.5741,1.5799,1.5799,0.0,0.0,1.3323,1.6275,1.5207,1.0399,0.8646,0.8754,1.0359,0.8703,0.8694,0.9905,0.997,1.0733,1.1282,0.3773,0.075,0.2116,1.4593,1.1726,0.2734,1.5898,2.0605,2.0585,2.0444,2.0418,2.0398,2.034,2.0315,2.0326,2.0373,2.1216,2.2242,2.2713,2.3386,2.3752,2.2924,2.2553,2.2483,2.2805,2.2812,2.292,2.3593,2.3188,2.285,2.3171,2.269,2.2028,2.1335,2.1208,2.1015,2.0444,2.048,2.0502,2.0338,2.0524,0.0,0.0,1.981,1.9063,1.8935,1.7307,1.6069,1.5392,1.0439,0.786,0.8336,0.3153,0.0894,0.2063,0.3895,0.4787,0.4787,1.014,1.405,1.6552,1.8727,1.8574,1.6637,1.6552,1.5197,1.3065,1.2978,1.1969,1.0231,0.6793,0.5428,0.5432,0.5659,0.8618,1.3084,1.6052,1.5799,1.5668,0.0,1.5134,1.5285,0.0,0.0,0.0,0.0,1.3187,1.1805,1.1805,1.1805,1.1805,1.1805,1.1805,0.0,0.0,0.0,0.0,1.3907,1.5104,1.5799,1.5799,1.5799,0.0,1.5134,1.5938,1.4989,1.2413,1.05,1.064,1.2437,1.2005,1.1076,0.997,1.0926,1.2281,1.3649,1.198,1.1305,1.1931,1.7816,1.8073,1.5781,1.9336,2.0605,2.0586,2.0563,2.0542,2.054,2.0531,2.0525,2.0504,2.0357,2.1417,2.2727,2.325,2.4084,2.4696,2.4328,2.4095,2.3926,2.386,2.3633,2.3565,2.3981,2.3735,2.3472,2.3571,2.3215,2.2616,2.1581,2.1337,2.13,2.1327,0.0,0.0,2.0516,0.0,0.0,2.0384,1.8902,1.7944,1.7765,1.7169,1.5389,1.2044,1.1088,0.9714,0.767,0.612,0.383,0.0615,0.6303,0.8672,0.7717,0.9138,1.2173,1.6552,1.8727,1.9406,1.8779,1.7188,1.6151,1.5433,1.3658,1.1969,1.0231,0.6793,0.5428,0.5811,0.926,1.3048,1.6655,1.5955,1.5799,0.0,1.5799,0.0,0.0,1.5799,1.6773,0.0,1.5948,1.4494,0.0,1.3565,1.2493,1.2269,1.346,1.3565,0.0,1.3565,0.0,0.0,1.4374,1.5285,1.5799,1.5799,1.6367,0.0,1.5799,1.6394,1.5476,1.3163,1.209,1.2162,1.3232,1.4,1.299,1.0541,0.7791,1.0667,1.7065,1.7329,1.742,0.0,1.9581,2.0419,2.0605,2.0605,2.0605,2.0605,2.0605,2.0605,2.0605,2.0605,2.0563,2.0499,2.0377,2.1679,2.3158,2.3235,2.4089,2.4929,2.4828,2.4575,2.4303,2.4056,2.3855,2.3735,2.3937,2.3837,2.3735,2.3896,2.3768,2.3359,2.2518,2.2159,2.2061,0.0,0.0,0.0,0.0,2.1495,2.1395,2.0201,1.9876,1.9541,1.9075,1.8715,1.6629,1.2241,1.3053,1.1705,0.7437,0.7556,0.624,0.318,0.9906,1.1782,0.8804,1.0035,1.2676,1.6595,1.9525,2.0845,2.0682,1.7759,1.6522,1.6368,1.47,1.3458,1.2235,0.7288,0.6338,0.8143,1.2159,1.5493,1.8008,1.5799,1.5799,0.0,0.0,0.0,0.0,0.0,1.7732,0.0,1.6563,0.0,1.6053,1.5349,1.3205,1.2867,1.5574,0.0,1.587,1.6052,1.6052,1.6052,1.6052,1.6052,1.5983,1.5799,1.6743,1.6085,0.0,1.6297,1.6184,1.3547,1.3547,1.3547,1.3615,1.5134,1.46,1.2133,0.5397,0.9408,2.0312,2.0312,2.0312,2.0292,2.0325,2.0445,2.0605,2.0586,2.0586,2.0605,2.0605,2.0605,2.0605,2.0585,2.0508,2.0445,2.056,2.2033,2.3515,2.3081,2.3866,2.4814,2.4804,2.4528,2.4152,2.3837,2.3735,2.3714,2.3774,2.3714,2.3795,2.4074,2.4059,2.3916,2.3704,2.3304,0.0,0.0,0.0,0.0,0.0,0.0,0.0,2.0108,2.1211,2.1694,2.0934,2.06,1.8263,1.332,1.4832,1.3162,0.7369,0.8069,0.8293,0.7768,1.3067,1.3387,0.8857,1.161,1.4318,1.7021,2.0638,2.231,2.2118,1.8728,1.7319,1.7313,1.5944,1.541,1.4777,0.8537,0.7962,1.0947,1.3935,1.5982,1.7226,1.5799,0.0,0.0,0.0,0.0,1.8302,1.6128,1.6188,1.7103,1.8811,1.9036,1.7341,1.2972,1.2074,1.2867,1.5574,1.5799,0.0,0.0,0.0,0.0,1.7455,1.7455,1.6926,1.5827,1.4724,1.0427,0.2773,1.1764,1.5868,1.5359,1.5359,1.5359,1.5359,1.5668,1.614,1.6708,1.6174,1.7606,2.0312,2.0312,2.0312,2.0323,2.048,2.0563,2.0586,2.0539,2.0543,2.0605,2.0605,2.0605,2.0585,2.0533,2.0497,2.0639,2.1487,2.2618,2.363,2.3821,2.4413,2.4937,2.4828,2.4623,2.4393,2.4171,2.3896,2.3774,2.4054,2.3896,2.3714,2.3774,2.325,2.3197,2.4381,2.396,0.0,0.0,0.0,0.0,0.0,0.0,2.1694,1.9554,1.9413,1.9231,1.8701,1.9557,1.6869,0.9486,1.2504,1.201,0.6641,0.8305,0.9761,1.0647,1.1437,1.0788,0.8857,1.161,1.5081,1.9192,2.1321,2.231,2.2265,2.1579,2.1686,2.1989,1.7342,1.541,1.504,1.1183,1.0034,1.0803,1.2317,1.3035,1.3302,0.0,0.0,0.0,0.0,0.0,0.0,0.0,1.685,1.7038,1.7603,1.7687,1.6188,1.2224,1.1805,1.316,1.6543,1.685,1.7101,1.7766,1.7811,1.7811,1.7811,1.7811,1.7502,1.685,1.4579,0.8993,0.0,1.1314,1.6485,1.5799,1.5799,1.6176,1.686,1.7388,1.7976,1.8626,1.9471,2.0001,2.0308,2.0405,2.0453,2.0464,2.0561,2.0605,2.0664,2.1228,2.1348,2.1223,2.1223,2.1223,2.1297,2.1689,2.1768,2.1847,2.2325,2.3124,2.3889,2.4072,2.4495,2.4877,2.4818,2.4559,2.4321,2.4228,2.4074,2.3996,2.417,2.4074,2.3976,2.3976,2.3805,2.3936,2.468,2.4639,0.0,0.0,0.0,2.4219,0.0,0.0,0.0,0.0,1.8656,1.8788,1.9398,1.9967,1.6807,0.8772,1.2001,1.2026,0.7505,1.1284,1.3291,1.3037,1.1563,1.0115,0.8857,1.2878,1.6952,2.1071,2.1915,2.3567,2.5727,2.4935,2.4207,2.3172,1.7682,1.541,1.5108,1.1841,0.9518,0.8002,0.8885,0.8993,0.8733,0.0,1.8535,0.0,0.0,2.04,1.8951,1.7964,1.7811,1.7432,1.6351,1.5683,1.4729,1.3255,1.3084,1.4367,1.7524,1.7811,1.7811,1.7811,1.7811,1.7811,1.7811,1.7811,1.7811,1.7811,1.4902,1.0246,0.3789,1.321,1.7358,1.6533,1.6336,1.6903,1.8153,1.9089,1.9499,1.954,2.0079,2.0312,2.0323,2.0523,2.0605,2.0605,2.0605,2.0742,2.1074,2.1894,2.2139,2.2099,2.2237,2.2179,2.2159,2.279,2.2945,2.2926,2.3057,2.3531,2.4063,2.4206,2.4511,2.479,2.4746,2.4495,2.4247,2.4209,2.4228,2.4266,2.4209,2.419,2.4209,2.4266,2.4528,2.4762,2.4839,2.513,2.5301,0.0,0.0,0.0,0.0,0.0,0.0,1.9449,1.8535,1.8534,1.9642,1.8331,1.5093,0.9633,1.1584,1.1382,0.8147,1.3804,1.6455,1.5509,1.2661,1.0806,1.0101,1.445,1.8671,2.2703,2.2703,2.5009,2.8905,2.7361,2.4844,2.1531,1.717,1.4982,1.4067,1.0752,0.7358,0.4333,0.4787,0.4684,0.422,0.0,0.0,0.0,0.0,0.0,1.7954,1.7822,1.7811,1.7766,1.7635,1.5285,1.4548,1.697,1.7238,1.7378,1.7772,1.7811,1.7811,1.7811,1.7811,1.7811,1.7811,1.7811,1.7811,1.7811,1.4902,1.4293,1.6136,1.7253,1.8197,1.8959,1.8035,1.8177,1.9193,1.989,2.0208,2.0216,2.0269,2.0312,2.0323,2.0523,2.0605,2.0605,2.0605,2.123,2.2129,2.192,2.234,2.3068,2.3681,2.3442,2.2882,2.2894,2.2901,2.3014,2.3562,2.3763,2.3957,2.4566,2.4776,2.476,2.4559,2.4495,2.4409,2.4247,2.4339,2.4428,2.4247,2.419,2.4266,2.4426,2.4512,2.4659,2.5001,2.5098,2.5138,2.5182,0.0,2.5107,2.4082,0.0,0.0,2.1559,1.9004,1.7156,1.6577,1.0793,0.8591,1.1608,0.9903,0.8373,0.7321,1.3307,1.717,1.8489,1.4535,1.3057,1.4082,1.5726,1.9156,2.4034,2.4034,2.5829,2.8905,2.7361,2.2681,1.6136,1.5623,1.3657,1.0724,0.7242,0.3678,0.0539,0.0545,0.0543,0.0539,0.0,0.0,2.126,2.126,1.9346,1.7811,1.7811,1.7811,1.7811,1.7811,1.6779,1.6492,1.7676,1.7811,1.7811,1.7811,1.7811,1.7811,1.7811,1.7811,1.7811,1.7811,1.7811,1.7811,1.7811,1.6644,1.6627,1.7811,1.8397,1.9921,2.2172,1.9189,1.8537,1.9909,2.0171,2.0312,2.0308,2.0424,2.0477,2.0483,2.0562,2.123,2.2129,2.1758,2.2107,2.2821,2.3181,2.3474,2.3814,2.4613,2.4328,2.3734,2.4207,2.4328,2.4359,2.4484,2.4522,2.4562,2.4752,2.4804,2.4746,2.4561,2.4591,2.4623,2.4428,2.4545,2.4654,2.4594,2.4543,2.4575,2.467,2.4756,2.4879,2.5127,2.5229,2.5266,2.5211,0.0,0.0,2.4543,0.0,2.229,2.1179,1.9529,1.84,1.8166,1.5263,1.3438,1.3256,1.5133,1.451,1.0722,1.3744,1.609,1.7444,1.6935,1.7145,1.8079,1.8519,2.0881,2.494,2.6996,2.7803,2.743,2.4011,1.986,1.541,1.541,1.3476,1.0231,0.6793,0.1864,-0.3215,-0.3215,-0.3215,-0.3215,2.1027,2.0991,2.0991,2.0991,1.9232,1.7811,1.7811,1.7811,1.7811,1.7811,1.7811,1.7811,1.7811,1.7811,1.7811,1.7811,1.7811,1.7811,1.7811,1.7811,1.7811,1.7811,1.7811,1.7811,1.7811,1.7811,1.7811,1.7811,1.8806,2.0978,2.4135,2.1314,2.0633,2.1765,2.1765,2.1765,2.1779,2.2003,2.1523,2.0605,2.0605,2.1348,2.2461,2.2715,2.3022,2.3425,2.4043,2.435,2.4578,2.5174,2.4965,2.4546,2.512,2.5303,2.5253,2.5018,2.4974,2.4962,2.4756,2.476,2.476,2.4623,2.47,2.476,2.4623,2.4733,2.4879,2.4879,2.4836,2.4818,2.4855,2.4955,2.5081,2.5221,2.533,2.5347,2.5181,2.5052,0.0,2.4702,2.3711,2.2712,2.1898,2.0749,2.0083,2.014,2.0061,1.8837,1.62,1.7909,1.7396,1.391,1.3654,1.4762,1.7287,1.7338,1.8481,2.0655,2.0505,2.1975,2.493,2.7431,2.7405,2.5244,2.2235,1.8819,1.541,1.541,1.3476,1.0231,0.6793,0.0995,-0.5491,-0.6535,-0.6272,-0.5428,1.8048,1.7862,1.7862,1.7862,1.7828,1.7811,1.7811,1.7811,1.7811,1.7811,1.7811,1.7811,1.7811,1.7811,1.7811,1.7811,1.7811,1.7811,1.7811,1.7811,1.7811,1.7811,1.7811,1.7811,1.7811,1.7811,1.7811,1.7811,1.8806,2.0978,2.4209,2.4892,2.5216,2.5245,2.5245,2.5245,2.5264,2.5515,2.3691,2.0605,2.0605,2.0605,2.0879,2.3125,2.3937,2.3913,2.4136,2.4702,2.5379,2.5312,2.5293,2.5284,2.5303,2.5303,2.5233,2.4915,2.4891,2.4937,2.4588,2.4654,2.4804,2.4804,2.4804,2.4804,2.4804,2.4953,2.5101,2.5101,2.4948,2.4842,2.4974,2.5048,2.5158,2.5366,2.539,2.5325,2.5118,2.4864,0.0,2.4436,2.3817,2.372,2.4563,2.2964,2.1817,2.1681,2.2711,2.2634,2.0996,1.5884,1.3914,1.5899,1.2626,1.3586,1.9226,1.4955,1.5645,2.1288,2.1011,2.1901,2.3823,2.4135,2.3567,2.2399,2.3212,2.0469,1.541,1.541,1.3476,1.0231,0.6793,0.0995,-0.5818,-0.9256,-0.835,-0.5428,1.8268,1.9469,2.0873,2.0873,2.0873,2.0179,1.8115,1.8378,1.8824,1.8824,1.8214,1.8589,2.0653,1.9046,1.8065,1.8753,1.8194,1.7811,1.7811,1.7811,1.7811,1.7811,1.7811,1.8128,1.8806,1.8149,1.8149,1.8824,1.9146,2.1245,2.4962,2.5182,2.5303,2.5303,2.5303,2.5303,2.5313,2.5391,2.4908,2.4082,2.4082,2.4082,2.414,2.4779,2.5035,2.5063,2.5024,2.5151,2.5321,2.5303,2.5303,2.5303,2.5303,2.5303,2.5253,2.5005,2.4962,2.4962,2.4756,2.4828,2.4917,2.4814,2.501,2.5158,2.5037,2.5202,2.5363,2.5363,2.5316,2.5279,2.5335,2.531,2.5348,2.5443,2.5426,2.5371,2.5321,2.4955,2.4807,2.512,2.4058,2.3705,2.4671,2.329,2.2434,2.2766,2.3052,2.2574,2.1131,2.0081,1.8926,1.7669,1.6028,1.42,1.2159,1.3419,1.6414,2.1036,2.1084,2.2397,2.4829,2.4905,2.4447,2.3405,2.0168,1.7792,1.5896,1.2369,1.0806,1.0028,0.4056,-0.1202,-0.5818,-0.9326,-0.9907,-0.8935,1.9875,2.1025,2.2443,2.2917,2.2615,2.1839,2.0407,2.0752,2.1143,2.1143,2.0582,2.093,2.2807,2.1329,1.9963,1.935,1.8735,1.8358,1.8358,1.8358,1.8358,1.8358,1.7997,1.8275,1.9274,1.8681,1.8681,1.9305,2.0807,2.2835,2.5303,2.5303,2.5303,2.5303,2.5303,2.5303,2.5303,2.5303,2.5459,2.5703,2.5703,2.5703,2.5683,2.5605,2.5535,2.5485,2.5441,2.539,2.5303,2.5303,2.5303,2.5293,2.5321,2.5339,2.5293,2.5069,2.5046,2.5077,2.4917,2.501,2.5126,2.5038,2.5225,2.5409,2.5318,2.5371,2.5469,2.5486,2.545,2.5411,2.5411,2.5418,2.541,2.5419,2.5408,2.5401,2.5376,2.4897,2.47,2.5147,2.4334,2.4031,2.47,2.3842,2.3165,2.2977,2.3151,2.2795,2.1693,2.2025,2.1354,1.9357,1.7993,1.5295,1.1073,1.2964,1.6689,2.213,2.2547,2.3645,2.5303,2.5303,2.4891,2.3961,1.9592,1.6731,1.4915,1.1688,0.9522,0.7749,0.2189,-0.2074,-0.5454,-0.8741,-1.018,-1.0624,2.2432,2.2432,2.2807,2.3976,2.3236,2.2746,2.3704,2.4043,2.419,2.419,2.419,2.419,2.419,2.419,2.296,1.9895,1.9418,1.9305,1.9305,1.9305,1.9305,1.9305,1.8628,1.8566,1.9274,1.951,1.9666,1.9708,2.3481,2.5303,2.5303,2.5303,2.5303,2.5303,2.5303,2.5303,2.5303,2.5303,2.5459,2.5703,2.5703,2.5703,2.5703,2.5703,2.5543,2.5331,2.5471,2.5414,2.5313,2.5313,2.5313,2.5312,2.5383,2.5413,2.5364,2.5116,2.5165,2.5274,2.5091,2.5216,2.5413,2.542,2.5451,2.552,2.5581,2.5492,2.5421,2.5488,2.541,2.5312,2.5292,2.5338,2.5363,2.5294,2.5331,2.5352,2.5293,2.4737,2.4437,2.4705,2.4606,2.4589,2.4742,2.4613,2.3944,2.2571,2.3184,2.3287,2.2576,2.2094,2.1572,2.0952,1.8818,1.6864,1.5149,1.3882,1.6973,2.4302,2.4986,2.5303,2.5303,2.5303,2.4917,2.4116,2.1017,1.7222,1.3113,1.2774,0.9291,0.3901,0.0893,-0.2174,-0.5117,-0.7824,-0.9552,-1.0561,2.375,2.375,2.3852,2.4151,2.3955,2.3019,2.0798,2.2593,2.419,2.419,2.419,2.419,2.419,2.419,2.3878,2.3107,2.0739,1.9305,1.9305,1.9305,1.9305,1.9305,2.1462,2.1625,1.9344,2.1749,2.3319,2.3881,2.483,2.5303,2.5303,2.5303,2.5303,2.5303,2.5303,2.5303,2.5303,2.5303,2.5459,2.5703,2.5703,2.5703,2.5703,2.5703,2.5601,2.5453,2.5493,2.548,2.5459,2.5459,2.5459,2.5459,2.5477,2.5488,2.5463,2.5402,2.5421,2.5434,2.5396,2.544,2.5488,2.5488,2.5483,2.5525,2.5583,2.5547,2.5486,2.5496,2.5473,2.5403,2.5254,2.5194,2.5166,2.5153,2.513,2.5083,2.5069,2.479,2.4717,2.5039,2.4919,2.4948,2.5288,2.4953,2.4341,2.3398,2.3581,2.3506,2.2901,2.3196,2.2992,2.2121,2.0439,1.9536,1.9504,1.8877,2.0797,2.5189,2.5363,2.5406,2.5303,2.5303,2.5192,2.4854,2.1267,1.8168,1.5365,1.1423,0.6333,0.0782,-0.2282,-0.5202,-0.7883,-0.8533,-0.9552,-1.0231,2.419,2.419,2.419,2.419,2.419,2.3602,2.1804,2.3052,2.419,2.419,2.419,2.419,2.419,2.419,2.419,2.419,2.2575,2.1528,2.1528,2.1528,2.1528,2.1528,2.3254,2.3364,2.1584,2.3624,2.4891,2.5303,2.5303,2.5303,2.5303,2.5303,2.5303,2.5303,2.5303,2.5371,2.5488,2.5488,2.5561,2.5703,2.5703,2.5703,2.5703,2.5703,2.5659,2.5593,2.5561,2.5522,2.5493,2.5493,2.5493,2.5517,2.5543,2.5551,2.5558,2.5551,2.5528,2.5498,2.5465,2.5486,2.5505,2.5506,2.5505,2.5503,2.5542,2.5493,2.544,2.5459,2.5355,2.5239,2.5139,2.5028,2.4969,2.5037,2.496,2.4924,2.4998,2.4858,2.4856,2.5151,2.5137,2.5203,2.5528,2.5226,2.4764,2.4163,2.4105,2.402,2.3791,2.4124,2.3953,2.3162,2.2318,2.1955,2.2096,2.2567,2.3719,2.55,2.5559,2.5526,2.5391,2.5321,2.4797,2.373,1.9867,1.7585,1.6015,0.9482,0.3348,-0.2341,-0.5311,-0.7444,-0.8804,-0.8804,-0.7522,-0.5464,2.419,2.419,2.419,2.419,2.419,2.419,2.419,2.419,2.419,2.419,2.419,2.419,2.419,2.419,2.419,2.419,2.419,2.419,2.419,2.419,2.419,2.419,2.419,2.419,2.419,2.4917,2.5303,2.5303,2.5303,2.5303,2.5303,2.5303,2.5303,2.5313,2.5348,2.5493,2.5703,2.5703,2.5703,2.5703,2.5703,2.5703,2.5703,2.5703,2.5703,2.5683,2.5646,2.558,2.5539,2.5539,2.5524,2.5535,2.5588,2.5597,2.5584,2.559,2.5547,2.5489,2.5437,2.5468,2.5499,2.5468,2.5449,2.5438,2.5407,2.5355,2.5316,2.5307,2.5126,2.4962,2.4937,2.4823,2.4799,2.4949,2.4804,2.4747,2.4974,2.4884,2.4873,2.5147,2.5265,2.5389,2.5541,2.5414,2.5166,2.4773,2.4667,2.4658,2.4754,2.4836,2.462,2.405,2.3978,2.3814,2.3512,2.4855,2.5507,2.5401,2.5582,2.5535,2.5286,2.5325,2.3917,2.1209,1.7531,1.5472,1.4102,0.6833,0.0553,-0.4791,-0.7664,-0.8804,-0.8804,-0.8804,-0.5066,0.0,2.419,2.419,2.419,2.419,2.419,2.419,2.419,2.419,2.419,2.419,2.419,2.419,2.419,2.419,2.419,2.419,2.419,2.419,2.419,2.419,2.419,2.419,2.419,2.419,2.419,2.4917,2.5303,2.5303,2.5303,2.5303,2.5303,2.5303,2.5303,2.5303,2.5539,2.566,2.5703,2.5703,2.5703,2.5703,2.5703,2.5703,2.5703,2.5703,2.5703,2.5703,2.5683,2.5682,2.5662,2.5662,2.5625,2.5598,2.5595,2.5559,2.5527,2.5511,2.5504,2.5499,2.5492,2.5485,2.5464,2.5279,2.5194,2.5119,2.4943,2.4891,2.4891,2.4891,2.4869,2.4771,2.4604,2.4559,2.4607,2.4799,2.4433,2.4329,2.493,2.4846,2.482,2.5082,2.5324,2.5461,2.5436,2.5401,2.5254,2.4985,2.5088,2.5143,2.5045,2.5214,2.5089,2.4583,2.4414,2.4212,2.3989,2.4575,2.489,2.5004,2.5351,2.5084,2.4252,2.5211,2.2619,1.7261,1.4607,1.0781,0.6051,0.227,-0.1336,-0.4791,-0.7664,-0.8804,-0.8804,-0.8804,-0.5067,0.0,2.419,2.419,2.419,2.419,2.419,2.419,2.419,2.419,2.419,2.419,2.419,2.419,2.419,2.419,2.419,2.419,2.419,2.419,2.419,2.419,2.419,2.419,2.4572,2.4795,2.4795,2.5138,2.5303,2.5303,2.5303,2.5303,2.5303,2.5303,2.5387,2.5526,2.5637,2.5703,2.5703,2.5703,2.5703,2.5703,2.5703,2.5703,2.5703,2.5703,2.5659,2.5598,2.5629,2.5627,2.5598,2.5598,2.5567,2.5551,2.5551,2.5511,2.5479,2.533,2.5356,2.5415,2.5316,2.5263,2.5186,2.5039,2.4969,2.4905,2.4828,2.4804,2.4756,2.4576,2.4431,2.4332,2.4246,2.4137,2.4229,2.4712,2.4505,2.4433,2.493,2.4946,2.4954,2.5101,2.5337,2.5483,2.5469,2.5366,2.5278,2.5214,2.5132,2.5094,2.5108,2.5114,2.4972,2.4601,2.4296,2.4097,2.3981,2.4249,2.4466,2.4648,2.5001,2.4724,2.3885,2.3884,1.9652,1.2117,0.7819,0.4459,0.184,-0.1168,-0.3234,-0.4791,-0.7664,-0.8804,-0.8593,-0.7069,-0.3727,0.0,2.419,2.419,2.419,2.419,2.419,2.419,2.419,2.419,2.419,2.419,2.419,2.419,2.419,2.419,2.419,2.419,2.419,2.419,2.419,2.419,2.4284,2.4442,2.5012,2.5303,2.5303,2.5303,2.5303,2.5303,2.5303,2.5303,2.5303,2.5303,2.5441,2.5703,2.5703,2.5703,2.5703,2.5703,2.5703,2.5703,2.5703,2.5703,2.5703,2.5703,2.5629,2.5493,2.5513,2.5513,2.5493,2.5493,2.5484,2.5488,2.5488,2.542,2.535,2.5139,2.5159,2.5226,2.5079,2.4989,2.493,2.4756,2.4731,2.4716,2.467,2.4654,2.457,2.4225,2.4044,2.3929,2.3929,2.3785,2.3945,2.4682,2.4572,2.4535,2.4998,2.5015,2.5001,2.507,2.5263,2.5363,2.5343,2.5197,2.5155,2.5249,2.502,2.4889,2.4911,2.4889,2.471,2.4377,2.4094,2.3833,2.36,2.3791,2.4041,2.432,2.4576,2.4388,2.3749,2.1342,1.6214,0.9004,0.273,-0.0392,-0.1229,-0.3566,-0.4519,-0.4736,-0.6961,-0.7771,-0.7551,-0.5332,-0.3148,-0.1143,2.419,2.419,2.419,2.419,2.419,2.419,2.419,2.419,2.419,2.419,2.419,2.419,2.419,2.419,2.419,2.419,2.419,2.419,2.419,2.419,2.4491,2.5182,2.5264,2.5303,2.5303,2.5303,2.5303,2.5303,2.5303,2.5303,2.5303,2.5303,2.5441,2.5703,2.5703,2.5703,2.5703,2.5703,2.5703,2.5703,2.5703,2.5703,2.5703,2.5703,2.5629,2.5473,2.5363,2.5398,2.5493,2.5493,2.5465,2.5401,2.5413,2.5235,2.5038,2.5015,2.4924,2.4842,2.4828,2.4814,2.4775,2.4559,2.4528,2.4478,2.4284,2.4247,2.4152,2.3819,2.3717,2.3717,2.3717,2.3714,2.3945,2.4682,2.4366,2.4327,2.5163,2.4917,2.4731,2.4991,2.5027,2.4979,2.4864,2.4836,2.4836,2.4845,2.4823,2.4681,2.4379,2.4647,2.4538,2.3953,2.4046,2.364,2.2702,2.3082,2.3547,2.4117,2.4077,2.4047,2.3747,1.7084,1.2896,1.052,0.3206,-0.1563,-0.4181,-0.4405,-0.4519,-0.4515,-0.4736,-0.4846,-0.4791,-0.457,-0.4723,-0.4556,2.4303,2.419,2.419,2.419,2.419,2.419,2.419,2.419,2.419,2.419,2.419,2.419,2.419,2.419,2.419,2.419,2.462,2.4877,2.4877,2.4877,2.5012,2.5293,2.5303,2.5303,2.5303,2.5303,2.5303,2.5303,2.5303,2.5303,2.5303,2.5303,2.5346,2.5453,2.5453,2.5453,2.5453,2.5453,2.5453,2.5453,2.5453,2.5453,2.5453,2.5453,2.5415,2.5379,2.5322,2.533,2.5387,2.5387,2.5272,2.5157,2.5147,2.5015,2.485,2.4723,2.4575,2.4445,2.4445,2.4371,2.4263,2.406,2.3844,2.3681,2.361,2.3566,2.3482,2.3141,2.3253,2.3392,2.3392,2.3566,2.3903,2.4508,2.4439,2.447,2.4923,2.485,2.4785,2.4986,2.493,2.4891,2.493,2.4741,2.467,2.479,2.4559,2.4337,2.4136,2.3717,2.3294,2.2814,2.2237,2.1754,2.1346,2.1678,2.2442,2.3655,2.2665,2.2034,2.1558,1.687,1.3946,1.2067,0.3663,-0.0671,-0.1842,-0.3735,-0.4519,-0.4519,-0.4519,-0.4519,-0.4736,-0.6524,-0.6434,-0.5226,2.4339,2.419,2.419,2.419,2.419,2.419,2.419,2.419,2.419,2.419,2.419,2.419,2.419,2.419,2.4303,2.4526,2.5012,2.5303,2.5303,2.5303,2.5303,2.5303,2.5303,2.5303,2.5303,2.5303,2.5303,2.5303,2.5303,2.5303,2.5303,2.5303,2.5303,2.5303,2.5303,2.5303,2.5303,2.5303,2.5303,2.5303,2.5303,2.5303,2.5303,2.5303,2.5303,2.5303,2.5303,2.5253,2.5163,2.5163,2.5065,2.4943,2.4943,2.4823,2.4654,2.4337,2.4154,2.4016,2.3917,2.3744,2.3605,2.3674,2.3437,2.3189,2.3189,2.3189,2.3093,2.2772,2.2972,2.3189,2.3189,2.3459,2.3881,2.4408,2.4495,2.4559,2.4775,2.4804,2.4814,2.4831,2.4752,2.4712,2.4747,2.454,2.4408,2.4437,2.4192,2.3959,2.3751,2.2853,2.2279,2.2107,2.107,2.0447,2.0326,2.0681,2.1576,2.2906,2.2016,2.0918,1.9646,1.7659,1.4725,1.084,0.4256,0.0895,-0.0168,-0.2232,-0.3067,-0.3178,-0.4125,-0.4635,-0.5148,-0.8256,-0.8346,-0.6859,2.4357,2.419,2.419,2.419,2.419,2.419,2.419,2.419,2.419,2.419,2.419,2.419,2.4209,2.4209,2.451,2.5243,2.5303,2.5303,2.5303,2.5303,2.5303,2.5303,2.5303,2.5303,2.5303,2.5303,2.5303,2.5303,2.5303,2.5303,2.5303,2.5303,2.5303,2.5303,2.5303,2.5303,2.5303,2.5303,2.5303,2.5303,2.5303,2.5303,2.5303,2.5303,2.5303,2.5303,2.5303,2.513,2.4892,2.4892,2.4864,2.4804,2.4804,2.4654,2.4391,2.386,2.3692,2.3628,2.33,2.2972,2.2873,2.3522,2.3437,2.3189,2.3189,2.3189,2.3093,2.2772,2.2972,2.3189,2.3189,2.3459,2.3881,2.4408,2.4495,2.4578,2.4775,2.479,2.4716,2.4528,2.4495,2.4409,2.4209,2.419,2.4036,2.3714,2.3692,2.3544,2.3189,2.2169,2.1757,2.2073,2.0927,2.0124,1.9711,2.0326,2.1037,2.1893,2.2355,2.1107,1.8407,1.9003,1.4589,0.6383,0.507,0.2788,-0.0056,-0.0056,-0.0056,-0.0336,-0.3345,-0.4886,-0.5811,-0.9256,-1.0561,-1.0104,2.5024,2.4556,2.419,2.419,2.419,2.419,2.419,2.419,2.419,2.419,2.419,2.4392,2.4917,2.4968,2.5061,2.5274,2.5303,2.5303,2.5303,2.5303,2.5303,2.5303,2.5303,2.5303,2.5303,2.5303,2.5303,2.5303,2.5303,2.5303,2.5303,2.5303,2.5303,2.5303,2.5303,2.5303,2.5303,2.5303,2.5303,2.5303,2.5303,2.5303,2.5303,2.5303,2.5303,2.5303,2.5303,2.5152,2.493,2.4752,2.4636,2.4559,2.4409,2.4339,2.421,2.3816,2.3692,2.3628,2.33,2.2972,2.2746,2.2947,2.2781,2.2571,2.2571,2.2571,2.2544,2.2453,2.2652,2.2923,2.3165,2.3459,2.3837,2.4228,2.4284,2.4321,2.4375,2.4375,2.432,2.4174,2.4023,2.3885,2.3731,2.3577,2.3351,2.2957,2.2702,2.2417,2.2046,2.174,2.1383,2.0847,2.0485,2.0461,2.073,2.0924,2.0745,2.0227,2.0936,1.9945,1.7458,1.6495,1.4186,1.0739,0.6357,0.1605,-0.3178,-0.3178,-0.3178,-0.3234,-0.4125,-0.4628,-0.4956,-0.6408,-0.8479,-1.0104,2.5303,2.493,2.4636,2.4636,2.4636,2.4636,2.4636,2.4636,2.4636,2.4636,2.4636,2.4809,2.5253,2.5303,2.5303,2.5303,2.5303,2.5303,2.5303,2.5303,2.5303,2.5303,2.5303,2.5303,2.5303,2.5303,2.5303,2.5303,2.5303,2.5303,2.5303,2.5303,2.5303,2.5303,2.5303,2.5303,2.5303,2.5303,2.5303,2.5303,2.5303,2.5303,2.5303,2.5303,2.5107,2.4877,2.5056,2.4917,2.4659,2.4512,2.4338,2.4155,2.4037,2.3917,2.3735,2.3392,2.3282,2.3283,2.3274,2.292,2.2605,2.2897,2.2869,2.2665,2.2378,2.253,2.2649,2.2361,2.2527,2.2884,2.3548,2.3943,2.4396,2.5049,2.4869,2.4667,2.4667,2.4295,2.3959,2.3906,2.366,2.3464,2.3374,2.3141,2.2735,2.2204,2.1864,2.1546,2.1303,2.1336,2.1039,2.0314,2.0483,2.0494,2.0275,2.0616,2.0749,2.0716,1.9523,1.8085,1.6335,1.2463,1.1492,1.2501,0.5668,0.0,-0.4519,-0.4519,-0.4519,-0.4519,-0.4519,-0.4666,-0.48,-0.444,-0.565,-0.7265,2.5303,2.5553,2.5649,2.5341,2.5303,2.5303,2.5303,2.5303,2.5303,2.5303,2.5303,2.5303,2.5303,2.5303,2.5303,2.5303,2.5303,2.5303,2.5303,2.5303,2.5303,2.5303,2.5303,2.5303,2.5303,2.5303,2.5303,2.5303,2.5303,2.5303,2.5303,2.5303,2.5303,2.5303,2.5303,2.5303,2.5303,2.5303,2.5303,2.5303,2.5303,2.5303,2.5303,2.5264,2.485,2.4321,2.4654,2.4545,2.4228,2.4227,2.3976,2.3692,2.3649,2.3414,2.3141,2.2797,2.2747,2.2893,2.3306,2.2919,2.2564,2.3224,2.3444,2.3291,2.2496,2.2818,2.3122,2.253,2.2603,2.3119,2.4272,2.4766,2.5312,2.6402,2.5915,2.5383,2.5362,2.4387,2.3671,2.3628,2.3346,2.3117,2.3052,2.2659,2.2105,2.139,2.1038,2.0862,2.0813,2.0846,2.0682,2.0246,2.0733,2.0344,1.8956,1.9432,2.0474,2.201,1.8324,1.6106,1.5035,0.7802,0.7312,1.1688,0.3539,-0.173,-0.4515,-0.4791,-0.4736,-0.4519,-0.4519,-0.4855,-0.5088,-0.3135,-0.2477,-0.2674,2.5303,2.7456,2.8437,2.5764,2.5303,2.5303,2.5303,2.5303,2.5303,2.5303,2.5303,2.5303,2.5303,2.5303,2.5303,2.5303,2.5303,2.5303,2.5303,2.5303,2.5303,2.5303,2.5303,2.5303,2.5303,2.5303,2.5303,2.5303,2.5303,2.5303,2.5303,2.5303,2.5303,2.5303,2.5303,2.5303,2.5303,2.5303,2.5303,2.5303,2.5303,2.5303,2.5264,2.5019,2.4864,2.4818,2.47,2.4561,2.441,2.4247,2.3976,2.3628,2.3224,2.3135,2.3141,2.2797,2.3145,2.3591,2.3459,2.3274,2.319,2.3359,2.3816,2.39,2.2598,2.2429,2.2665,2.3071,2.3197,2.367,2.5015,2.5311,2.5649,2.6472,2.5915,2.5303,2.5052,2.4241,2.3522,2.2972,2.2848,2.2574,2.2017,2.124,2.0588,2.0066,1.9943,1.9728,1.9383,1.9692,1.9884,1.9839,2.0697,2.0582,1.9375,1.7457,1.6923,1.7743,1.8359,1.6848,1.3273,0.7261,0.5156,0.6098,0.1831,-0.173,-0.468,-0.6961,-0.6524,-0.4519,-0.4519,-0.4597,-0.4361,-0.1624,-0.0605,-0.0672,2.7399,2.786,2.7399,2.561,2.5303,2.5841,2.7475,2.7725,2.7149,2.5514,2.5303,2.5303,2.5303,2.6764,2.7072,2.5437,2.6783,2.7033,2.5399,2.6822,2.7725,2.7725,2.6168,2.5303,2.5303,2.5303,2.5303,2.5303,2.5303,2.5303,2.5303,2.5303,2.5303,2.5303,2.5303,2.5303,2.5303,2.5303,2.5303,2.5303,2.5303,2.5084,2.4766,2.4785,2.4727,2.4617,2.4559,2.4479,2.4339,2.4247,2.4094,2.3816,2.3129,2.2849,2.279,2.2966,2.3322,2.379,2.4316,2.4188,2.4002,2.4357,2.4458,2.4218,2.3088,2.3376,2.3883,2.3917,2.3917,2.4372,2.5861,2.5957,2.6065,2.6799,2.6105,2.5378,2.5195,2.4366,2.3809,2.3796,2.3437,2.2712,2.1552,2.0817,2.008,1.9325,1.9273,1.9163,1.893,1.9376,1.9737,1.9965,2.1002,2.0867,1.9516,1.8366,1.7347,1.6398,1.3906,1.0639,0.6644,0.3681,0.2343,0.2174,-0.0835,-0.3828,-0.6686,-0.8156,-0.7117,-0.4519,-0.4519,-0.4697,-0.4559,-0.1249,0.0,0.0,2.984,2.7648,2.5476,2.6072,2.6168,2.6918,2.9167,3.0013,2.9379,2.6533,2.6168,2.6168,2.6168,2.8687,2.9264,2.6418,2.8764,2.9187,2.636,2.8821,3.0398,3.0398,2.7668,2.5899,2.5303,2.5303,2.5303,2.5303,2.5303,2.5303,2.5303,2.5303,2.5303,2.5303,2.5303,2.5303,2.5303,2.5303,2.5264,2.5222,2.5222,2.4823,2.4303,2.4594,2.4512,2.4266,2.441,2.4339,2.419,2.419,2.4151,2.3935,2.3056,2.2571,2.2446,2.3173,2.3477,2.3883,2.5236,2.5152,2.4814,2.5456,2.5135,2.4543,2.4069,2.4712,2.527,2.478,2.4678,2.5128,2.6606,2.6603,2.6615,2.7302,2.6443,2.5694,2.5641,2.4758,2.4257,2.47,2.3899,2.2783,2.1466,2.0745,1.9972,1.9006,1.8917,1.8941,1.9041,1.9361,1.9848,2.045,2.1223,2.0892,1.9303,1.862,1.6729,1.3608,0.7165,0.2636,0.0,0.0,-0.028,-0.0895,-0.34,-0.6145,-0.8804,-0.8804,-0.7391,-0.5179,-0.4798,-0.4552,-0.4087,-0.1076,0.0,0.0,3.0302,2.7648,2.6226,2.9187,2.9706,2.886,2.636,2.8494,3.0225,2.9763,2.9706,2.9706,2.9706,3.011,3.0206,2.9744,3.0129,3.0186,2.9744,3.0129,3.0398,3.0398,2.9956,2.8321,2.536,2.5303,2.5303,2.5303,2.5303,2.5303,2.5303,2.5303,2.5303,2.5303,2.5303,2.5303,2.5303,2.5303,2.5126,2.4874,2.4874,2.4746,2.453,2.4358,2.4357,2.4426,2.4284,2.4228,2.419,2.419,2.3917,2.3455,2.2624,2.2349,2.2446,2.3173,2.3849,2.4509,2.5372,2.5541,2.549,2.5592,2.5541,2.5592,2.6133,2.5406,2.478,2.5338,2.5456,2.5819,2.7009,2.7178,2.73,2.7766,2.7083,2.6451,2.6138,2.5392,2.4607,2.3948,2.2582,2.1642,2.1395,2.0482,1.9647,1.9021,1.8944,1.9142,1.971,1.9273,1.9649,2.1131,2.0806,1.9918,1.8482,1.2832,0.7402,0.2211,-0.0472,-0.1157,0.0,0.0,-0.1452,-0.3901,-0.4349,-0.6145,-0.8804,-0.8804,-0.8586,-0.8027,-0.6018,-0.3438,-0.0673,-0.0202,0.0,0.0,3.0398,2.9167,2.861,3.0129,3.0398,2.9879,2.8379,2.9417,3.0398,3.0398,3.0398,3.0398,3.0398,3.0398,3.0398,3.0398,3.0398,3.0398,3.0398,3.0398,3.0398,3.0398,3.0398,2.9687,2.8168,2.8148,2.7206,2.5303,2.5303,2.5303,2.5303,2.5303,2.5303,2.5303,2.5303,2.5303,2.5303,2.5303,2.5222,2.5068,2.4888,2.4623,2.4357,2.4247,2.4266,2.4321,2.4228,2.419,2.4094,2.3376,2.4086,2.5092,2.3913,2.3714,2.3988,2.4492,2.4864,2.527,2.6015,2.6218,2.6319,2.6742,2.6809,2.6928,2.7249,2.7148,2.6962,2.686,2.6505,2.6553,2.771,2.7407,2.7083,2.75,2.6723,2.6044,2.5908,2.5285,2.4563,2.3698,2.2975,2.2182,2.1169,2.0648,2.0168,1.9561,1.9503,1.961,1.9878,1.9566,1.9908,2.109,2.1494,1.9627,1.5335,0.9175,0.2403,-0.4915,-0.6556,-0.6009,-0.3536,-0.1938,-0.1507,-0.2065,-0.379,-0.6145,-0.8699,-0.7063,-0.6416,-0.6339,-0.5691,-0.3215,0.0,0.0,0.0,0.0]}]]